[[{"header":{"parameterUnit":"m.s-1","parameterCategory":1,"la1":30.6,"la2":29.2853,"lo1":-89.7004,"lo2":-87.6739,"dy":0.0162,"dx":0.0183,"nx":112,"ny":82,"refTime":"2023-07-22T06:00:00:Z","depth":0,"parameterNumber":2,"parameterNumberName":"U-component_of_WINDS"},"data":[0.0,0.0,0.0,0.0,0.0,0.0,0.0,0.0,0.0,0.0,0.0,0.0,0.0,0.0,0.0,0.0,0.0,0.0,0.0,0.0,0.0,0.0,0.0,0.0,0.0,0.0,0.0,0.0,0.0,0.0,0.0,0.0,0.0,0.0,0.0,0.0,0.0,0.0,0.0,0.0,0.0,0.0,0.0,0.0,0.0,0.0,0.0,0.0,0.0,0.0,0.0,0.0,0.0,0.0,0.0,0.0,0.0,0.0,0.0,0.0,0.0,0.0,0.0,0.0,0.0,0.0,0.0,0.0,0.0,0.0,0.0,0.0,0.0,0.0,0.0,0.0,0.0,0.0,0.0,0.0,0.0,0.0,0.0,0.0,0.0,0.0,0.0,0.0,0.0,0.0,-2.6779,-2.6779,-2.6779,-2.6779,-2.6779,-2.6779,-2.6779,-2.6779,0.0,0.0,0.0,0.0,0.0,0.0,0.0,0.0,0.0,0.0,0.0,0.0,0.0,0.0,0.0,0.0,0.0,0.0,0.0,0.0,0.0,0.0,0.0,0.0,0.0,0.0,0.0,0.0,0.0,0.0,0.0,0.0,0.0,0.0,0.0,0.0,0.0,0.0,0.0,0.0,0.0,0.0,0.0,0.0,0.0,0.0,0.0,0.0,0.0,0.0,0.0,0.0,0.0,0.0,0.0,0.0,0.0,0.0,0.0,0.0,0.0,0.0,0.0,0.0,0.0,0.0,0.0,0.0,0.0,0.0,0.0,0.0,0.0,0.0,0.0,0.0,0.0,0.0,0.0,0.0,0.0,0.0,0.0,0.0,0.0,0.0,0.0,0.0,0.0,0.0,0.0,0.0,0.0,0.0,0.0,0.0,0.0,0.0,0.0,0.0,0.0,0.0,0.0,0.0,-2.6779,-2.6779,-2.6779,-2.6779,-2.6779,-2.6779,-2.6779,-2.6779,0.0,0.0,0.0,0.0,0.0,0.0,0.0,0.0,0.0,0.0,0.0,0.0,0.0,0.0,0.0,0.0,0.0,0.0,0.0,0.0,0.0,0.0,0.0,0.0,0.0,0.0,0.0,0.0,0.0,0.0,0.0,0.0,0.0,0.0,0.0,0.0,0.0,0.0,0.0,0.0,0.0,0.0,0.0,0.0,0.0,0.0,0.0,0.0,0.0,0.0,0.0,0.0,0.0,0.0,0.0,0.0,0.0,0.0,0.0,0.0,0.0,0.0,0.0,0.0,0.0,0.0,0.0,0.0,0.0,0.0,0.0,0.0,0.0,0.0,0.0,0.0,0.0,0.0,0.0,0.0,0.0,0.0,0.0,0.0,0.0,0.0,0.0,0.0,0.0,0.0,0.0,0.0,0.0,0.0,0.0,0.0,0.0,0.0,0.0,0.0,0.0,0.0,0.0,-2.6779,-2.6779,-2.6779,-2.6779,-2.6779,-2.6779,-2.6779,-2.6779,-2.6779,-2.6779,0.0,0.0,0.0,0.0,0.0,0.0,0.0,0.0,0.0,0.0,0.0,0.0,0.0,0.0,0.0,0.0,0.0,0.0,0.0,0.0,0.0,0.0,0.0,0.0,0.0,0.0,0.0,0.0,0.0,0.0,0.0,0.0,0.0,0.0,0.0,0.0,0.0,0.0,0.0,0.0,0.0,0.0,0.0,0.0,0.0,0.0,0.0,0.0,0.0,0.0,0.0,0.0,0.0,0.0,0.0,0.0,0.0,0.0,0.0,0.0,0.0,0.0,0.0,0.0,0.0,0.0,0.0,0.0,0.0,0.0,0.0,0.0,0.0,0.0,0.0,0.0,0.0,0.0,0.0,0.0,0.0,0.0,0.0,0.0,0.0,0.0,0.0,0.0,0.0,0.0,0.0,0.0,0.0,0.0,0.0,0.0,0.0,0.0,0.0,0.0,0.0,0.0,-2.6779,-2.6779,-2.6779,-2.6779,-2.6779,-2.6779,-2.6779,-2.6779,-2.6779,-2.6779,0.0,0.0,0.0,0.0,0.0,0.0,0.0,0.0,0.0,0.0,0.0,0.0,0.0,0.0,0.0,0.0,0.0,0.0,0.0,0.0,0.0,0.0,0.0,0.0,0.0,0.0,0.0,0.0,0.0,0.0,0.0,0.0,0.0,0.0,0.0,0.0,0.0,0.0,0.0,0.0,0.0,0.0,0.0,0.0,0.0,0.0,0.0,0.0,0.0,0.0,0.0,0.0,0.0,0.0,0.0,0.0,0.0,0.0,0.0,0.0,0.0,0.0,0.0,0.0,0.0,0.0,0.0,0.0,0.0,0.0,0.0,0.0,0.0,0.0,0.0,0.0,0.0,0.0,0.0,0.0,0.0,0.0,0.0,0.0,0.0,0.0,0.0,0.0,0.0,0.0,0.0,0.0,0.0,0.0,0.0,0.0,0.0,0.0,0.0,0.0,0.0,0.0,-2.6779,-2.6779,-2.6779,-2.6779,-2.6779,-2.6779,-2.6779,-2.6779,-2.6779,-2.6779,0.0,0.0,0.0,0.0,0.0,0.0,0.0,0.0,0.0,0.0,0.0,0.0,0.0,0.0,0.0,0.0,0.0,0.0,0.0,0.0,0.0,0.0,0.0,0.0,0.0,0.0,0.0,0.0,0.0,0.0,0.0,0.0,0.0,0.0,0.0,0.0,0.0,0.0,0.0,0.0,0.0,0.0,0.0,0.0,0.0,0.0,0.0,0.0,0.0,0.0,0.0,0.0,0.0,0.0,0.0,0.0,0.0,0.0,0.0,0.0,0.0,0.0,0.0,0.0,0.0,0.0,0.0,0.0,0.0,0.0,0.0,0.0,0.0,0.0,0.0,0.0,0.0,0.0,0.0,0.0,0.0,0.0,0.0,0.0,0.0,0.0,0.0,0.0,0.0,0.0,0.0,0.0,0.0,0.0,0.0,0.0,0.0,0.0,0.0,0.0,0.0,0.0,-2.6779,-2.6779,0.0,-2.6779,-2.6779,-2.6779,-2.6779,-2.6779,-2.6779,0.0,0.0,0.0,0.0,0.0,0.0,0.0,0.0,0.0,0.0,0.0,0.0,0.0,0.0,0.0,0.0,0.0,0.0,0.0,0.0,0.0,0.0,0.0,0.0,0.0,0.0,0.0,0.0,0.0,0.0,0.0,0.0,0.0,0.0,0.0,0.0,0.0,0.0,0.0,0.0,0.0,0.0,0.0,0.0,0.0,0.0,0.0,0.0,0.0,0.0,0.0,0.0,0.0,0.0,0.0,0.0,0.0,0.0,0.0,0.0,0.0,0.0,0.0,0.0,0.0,0.0,0.0,0.0,0.0,0.0,0.0,0.0,0.0,0.0,0.0,0.0,0.0,0.0,0.0,0.0,0.0,0.0,0.0,0.0,0.0,0.0,0.0,0.0,0.0,0.0,0.0,0.0,0.0,0.0,0.0,0.0,0.0,0.0,0.0,0.0,0.0,0.0,-2.6779,-2.6779,-2.6779,0.0,-2.6779,-2.6779,-2.6779,-2.6779,-2.6779,-2.6779,0.0,0.0,0.0,0.0,0.0,0.0,0.0,0.0,0.0,0.0,0.0,0.0,0.0,0.0,0.0,0.0,0.0,0.0,0.0,0.0,0.0,0.0,0.0,0.0,0.0,0.0,0.0,0.0,0.0,0.0,0.0,0.0,0.0,0.0,0.0,0.0,0.0,0.0,0.0,0.0,0.0,0.0,0.0,0.0,0.0,0.0,0.0,0.0,0.0,0.0,0.0,0.0,0.0,0.0,0.0,0.0,0.0,0.0,0.0,0.0,0.0,0.0,0.0,0.0,0.0,0.0,0.0,0.0,0.0,0.0,0.0,0.0,0.0,0.0,0.0,0.0,0.0,0.0,0.0,0.0,0.0,0.0,0.0,0.0,0.0,0.0,0.0,0.0,0.0,0.0,0.0,0.0,0.0,0.0,0.0,0.0,0.0,0.0,0.0,0.0,0.0,0.0,-2.6779,-2.6779,-2.6779,-2.6779,-2.6779,-2.6779,-2.6779,-2.6779,-2.6779,0.0,0.0,0.0,0.0,0.0,0.0,0.0,0.0,0.0,0.0,0.0,0.0,0.0,0.0,0.0,0.0,0.0,0.0,0.0,0.0,0.0,0.0,0.0,0.0,0.0,0.0,0.0,0.0,0.0,0.0,0.0,0.0,0.0,0.0,0.0,0.0,0.0,0.0,0.0,0.0,0.0,0.0,0.0,0.0,0.0,0.0,0.0,0.0,0.0,0.0,0.0,0.0,0.0,0.0,0.0,0.0,0.0,0.0,0.0,0.0,0.0,0.0,0.0,0.0,0.0,0.0,0.0,0.0,0.0,0.0,0.0,0.0,0.0,0.0,0.0,0.0,0.0,0.0,0.0,0.0,0.0,0.0,0.0,0.0,0.0,0.0,0.0,0.0,0.0,0.0,0.0,0.0,0.0,0.0,0.0,0.0,0.0,0.0,0.0,0.0,0.0,0.0,0.0,-2.6779,-2.6779,-2.6779,-2.6779,-2.6779,-2.6779,-2.6779,-2.6779,-2.6779,-2.6779,0.0,0.0,0.0,0.0,0.0,0.0,0.0,0.0,0.0,0.0,0.0,0.0,0.0,0.0,0.0,0.0,0.0,0.0,0.0,0.0,0.0,0.0,0.0,0.0,0.0,0.0,0.0,0.0,0.0,0.0,0.0,0.0,0.0,0.0,0.0,0.0,0.0,0.0,0.0,0.0,0.0,0.0,0.0,0.0,0.0,0.0,0.0,0.0,0.0,0.0,0.0,0.0,0.0,0.0,0.0,0.0,0.0,0.0,0.0,0.0,0.0,0.0,0.0,0.0,0.0,0.0,0.0,0.0,0.0,0.0,0.0,0.0,0.0,0.0,0.0,0.0,0.0,0.0,0.0,0.0,0.0,0.0,0.0,0.0,0.0,0.0,0.0,0.0,0.0,0.0,0.0,0.0,0.0,0.0,0.0,0.0,0.0,0.0,0.0,0.0,0.0,0.0,-2.6779,-2.6779,-2.6779,-2.6779,-2.6779,-2.6779,-2.6779,-2.6779,-2.6779,-2.6779,0.0,0.0,0.0,0.0,0.0,0.0,0.0,0.0,0.0,0.0,0.0,0.0,0.0,0.0,0.0,0.0,0.0,0.0,0.0,0.0,0.0,0.0,0.0,0.0,0.0,0.0,0.0,0.0,0.0,0.0,0.0,0.0,0.0,0.0,0.0,0.0,0.0,0.0,0.0,0.0,0.0,0.0,0.0,0.0,0.0,0.0,0.0,0.0,0.0,0.0,0.0,0.0,0.0,0.0,0.0,0.0,0.0,0.0,0.0,0.0,0.0,0.0,0.0,0.0,0.0,0.0,0.0,0.0,0.0,0.0,0.0,0.0,0.0,0.0,0.0,0.0,0.0,0.0,0.0,0.0,0.0,0.0,0.0,0.0,0.0,0.0,0.0,0.0,0.0,0.0,0.0,0.0,0.0,0.0,0.0,0.0,0.0,0.0,0.0,0.0,0.0,0.0,-2.6779,-2.6779,-2.6779,-2.6779,-2.6779,-2.6779,-2.6779,-2.6779,-2.6779,-2.6779,0.0,0.0,0.0,0.0,0.0,0.0,0.0,0.0,0.0,0.0,0.0,0.0,0.0,0.0,0.0,0.0,0.0,0.0,0.0,0.0,0.0,0.0,0.0,0.0,0.0,0.0,0.0,0.0,0.0,0.0,0.0,0.0,0.0,0.0,0.0,0.0,0.0,0.0,0.0,0.0,0.0,0.0,0.0,0.0,0.0,0.0,0.0,0.0,0.0,0.0,0.0,0.0,0.0,0.0,0.0,0.0,0.0,0.0,0.0,0.0,-2.947,0.0,0.0,0.0,0.0,0.0,0.0,0.0,0.0,0.0,0.0,0.0,0.0,0.0,0.0,0.0,0.0,0.0,0.0,0.0,0.0,0.0,0.0,0.0,0.0,0.0,0.0,0.0,0.0,0.0,0.0,0.0,0.0,0.0,0.0,0.0,0.0,0.0,0.0,0.0,0.0,0.0,-2.6779,-2.6779,-2.6779,-2.6779,-2.6779,-2.6779,-2.6779,-2.6779,-2.6779,-2.6779,-2.6779,0.0,0.0,0.0,0.0,0.0,0.0,0.0,0.0,0.0,0.0,0.0,0.0,0.0,0.0,0.0,0.0,0.0,0.0,0.0,0.0,0.0,0.0,0.0,0.0,0.0,0.0,0.0,0.0,0.0,0.0,0.0,0.0,0.0,0.0,0.0,0.0,0.0,0.0,0.0,0.0,0.0,0.0,0.0,0.0,0.0,0.0,0.0,0.0,0.0,0.0,0.0,0.0,0.0,0.0,0.0,0.0,0.0,0.0,0.0,0.0,-2.9305,0.0,0.0,0.0,0.0,0.0,0.0,0.0,0.0,0.0,0.0,0.0,0.0,0.0,0.0,0.0,0.0,0.0,0.0,0.0,0.0,0.0,0.0,0.0,0.0,0.0,0.0,0.0,0.0,0.0,0.0,0.0,0.0,0.0,0.0,0.0,0.0,0.0,0.0,0.0,0.0,-2.6779,-2.6779,-2.6779,-2.6779,-2.6779,-2.6779,-2.6779,-2.6779,-2.6779,-2.6779,-2.6779,0.0,0.0,0.0,0.0,0.0,0.0,0.0,0.0,0.0,0.0,0.0,0.0,0.0,0.0,0.0,0.0,0.0,0.0,0.0,0.0,0.0,0.0,0.0,0.0,0.0,0.0,0.0,0.0,0.0,0.0,0.0,0.0,0.0,0.0,0.0,0.0,0.0,0.0,0.0,0.0,0.0,0.0,0.0,0.0,0.0,0.0,0.0,0.0,0.0,0.0,0.0,0.0,0.0,-2.9578,-2.9501,-2.9501,-2.9501,-2.9501,-2.9501,-2.9501,-2.9312,-2.9075,0.0,0.0,0.0,0.0,0.0,0.0,0.0,0.0,0.0,0.0,0.0,0.0,0.0,0.0,0.0,0.0,0.0,0.0,0.0,0.0,0.0,0.0,0.0,0.0,0.0,-2.7815,-2.773,0.0,0.0,0.0,0.0,0.0,0.0,0.0,0.0,0.0,0.0,0.0,0.0,-2.6779,-2.6779,-2.6779,-2.6779,-2.6779,-2.6779,-2.6779,-2.6779,-2.6779,-2.6779,-2.6779,-2.6779,0.0,0.0,0.0,0.0,0.0,0.0,0.0,0.0,0.0,0.0,0.0,0.0,0.0,0.0,0.0,0.0,0.0,0.0,0.0,0.0,0.0,0.0,0.0,0.0,0.0,0.0,0.0,0.0,0.0,0.0,0.0,0.0,-3.2179,-3.2108,0.0,0.0,0.0,0.0,0.0,0.0,0.0,0.0,0.0,0.0,0.0,0.0,0.0,-3.0117,-3.0826,-3.0537,-3.0702,-3.1294,-3.1036,-3.0939,-3.0939,-3.0939,-3.0939,-3.0939,-3.0939,0.0,-2.9075,-2.9075,0.0,0.0,0.0,0.0,0.0,0.0,0.0,0.0,0.0,0.0,0.0,0.0,0.0,0.0,0.0,0.0,0.0,0.0,0.0,0.0,0.0,0.0,-2.8334,-2.7625,-2.7488,-2.7335,0.0,-2.7181,-2.7335,-2.6884,-2.6832,0.0,0.0,0.0,0.0,0.0,0.0,0.0,-2.6779,-2.6779,-2.6779,-2.6779,-2.6779,-2.6779,-2.6779,-2.6779,-2.6779,-2.6779,-2.6779,-2.6779,-2.6779,-2.6779,0.0,0.0,0.0,0.0,0.0,0.0,0.0,0.0,0.0,0.0,0.0,0.0,0.0,0.0,0.0,0.0,0.0,0.0,0.0,0.0,0.0,0.0,0.0,0.0,0.0,0.0,0.0,0.0,0.0,-3.2232,-3.2179,-3.2108,-3.2144,-3.2179,0.0,0.0,0.0,0.0,0.0,0.0,0.0,0.0,0.0,-3.0992,-3.0731,-3.0814,-3.1308,-3.1437,-3.169,-3.1974,-3.2254,-3.2392,-3.2392,-3.2392,-3.2392,-3.2376,-3.1966,-3.146,-3.0828,-3.0038,-2.9722,-2.969,0.0,0.0,0.0,0.0,-2.9075,-2.9075,-2.9075,-2.9075,0.0,-2.9075,0.0,0.0,0.0,0.0,0.0,0.0,0.0,0.0,0.0,0.0,-2.771,-2.7181,-2.7041,-2.6989,-2.6846,-2.6937,-2.6989,0.0,-2.6779,-2.6779,-2.6779,0.0,0.0,0.0,0.0,-2.6779,-2.6779,-2.6779,-2.6779,-2.6779,-2.6779,-2.6779,-2.6779,-2.6779,-2.6779,-2.6779,-2.6779,-2.6779,-2.6779,-2.6779,-2.6779,0.0,0.0,0.0,0.0,0.0,0.0,0.0,0.0,0.0,0.0,0.0,0.0,0.0,0.0,0.0,0.0,0.0,0.0,0.0,0.0,0.0,0.0,0.0,0.0,0.0,0.0,0.0,0.0,-3.2179,-3.2144,-3.2054,-3.2001,-3.2034,0.0,0.0,0.0,0.0,0.0,0.0,-3.129,-3.1193,-3.1389,-3.1967,-3.1849,-3.194,-3.2281,-3.2637,-3.2934,-3.3124,-3.3593,-3.383,-3.383,-3.383,-3.383,-3.3814,-3.3293,-3.3072,-3.2982,-3.1176,-3.0449,-3.0385,-2.9864,-2.9659,-2.9659,-2.9659,-2.9659,-2.9659,-2.9659,-2.9548,-2.939,-2.939,0.0,-2.8936,-2.8936,0.0,0.0,0.0,0.0,-2.8271,-2.7879,-2.7679,-2.7536,-2.7132,-2.7157,-2.7273,-2.7273,-2.7142,-2.6968,0.0,-2.6779,-2.6779,-2.6779,0.0,0.0,0.0,0.0,-2.6779,-2.6779,-2.6779,-2.6779,-2.6779,-2.6779,-2.6779,-2.6779,-2.6779,-2.6779,-2.6779,-2.6779,-2.6779,-2.6779,-2.6779,-2.6779,-2.6779,0.0,0.0,0.0,0.0,0.0,0.0,0.0,0.0,0.0,0.0,0.0,0.0,0.0,0.0,0.0,0.0,0.0,0.0,0.0,0.0,0.0,0.0,0.0,0.0,0.0,0.0,0.0,0.0,0.0,-3.1837,-3.1542,0.0,0.0,0.0,0.0,-3.2302,-3.2486,-3.2295,-3.1614,-3.2353,-3.2625,-3.2304,-3.285,-3.3498,-3.4184,-3.4178,-3.4541,-3.5236,-3.5268,-3.5284,-3.5284,-3.5284,-3.5284,-3.5284,-3.5252,-3.5236,-3.5015,-3.2282,-3.116,-3.116,-3.1128,-3.1112,-3.1112,-3.1112,-3.1112,-3.1112,-3.1112,-3.0686,-3.0117,-3.0117,-2.9406,-2.8511,-2.8511,-2.8255,0.0,0.0,-2.7963,-2.7864,-2.7524,-2.7832,-2.8172,-2.7733,-2.8144,-2.8579,-2.8579,-2.81,-2.7505,0.0,-2.6779,-2.6779,-2.6779,0.0,-2.6779,-2.6779,-2.6779,-2.6779,-2.6779,-2.6779,-2.6779,-2.6779,-2.6779,-2.6779,-2.6779,-2.6779,-2.6779,-2.6779,-2.6779,-2.6779,-2.6779,-2.6779,-2.6779,-2.6779,-2.6779,0.0,0.0,0.0,0.0,0.0,0.0,0.0,0.0,0.0,0.0,0.0,0.0,0.0,0.0,0.0,0.0,0.0,0.0,0.0,0.0,0.0,0.0,0.0,0.0,0.0,0.0,0.0,0.0,-3.2137,-3.2015,0.0,-3.274,-3.2407,-3.2503,-3.3247,-3.2896,-3.2934,-3.3531,-3.375,-3.3927,-3.4257,-3.4525,-3.4762,-3.4999,-3.5442,-3.5789,-3.6058,-3.6516,-3.6738,-3.6738,-3.6738,-3.6738,-3.6706,-3.6263,-3.6058,-3.5947,-3.4494,-3.3625,-3.3103,-3.2234,-3.1887,-3.1839,-3.1381,-3.1223,-3.1223,-3.1223,-3.1049,-3.0844,-3.0844,-3.0572,-3.0254,-3.0254,-2.9928,-2.9612,-2.9943,-2.9424,-2.8816,-2.8959,-2.8768,-2.8539,-2.8388,-2.8521,-2.8681,-2.8681,-2.8507,-2.8274,-2.8042,-2.7345,-2.6779,-2.6779,-2.6779,-2.6779,-2.6779,-2.6779,-2.6779,-2.6779,-2.6779,-2.6779,-2.6779,-2.6779,-2.6779,-2.6779,-2.6779,-2.6779,-2.6779,-2.6779,-2.6779,-2.6779,-2.6779,-2.6779,-2.6779,-2.6779,-2.6779,0.0,0.0,0.0,0.0,0.0,0.0,0.0,0.0,0.0,0.0,0.0,0.0,0.0,0.0,0.0,0.0,0.0,0.0,0.0,0.0,0.0,0.0,0.0,0.0,0.0,0.0,-3.2273,-3.2615,-3.2572,-3.2723,-3.3371,-3.3188,-3.3389,-3.4268,-3.3848,-3.4064,-3.5188,-3.5348,-3.5695,-3.6421,-3.6658,-3.6769,-3.6769,-3.7227,-3.7464,-3.7464,-3.7938,-3.816,-3.816,-3.816,-3.816,-3.8144,-3.767,-3.7338,-3.7085,-3.6627,-3.6011,-3.5236,-3.3862,-3.3324,-3.3261,-3.2803,-3.2629,-3.2582,-3.2345,-3.2108,-3.1887,-3.1634,-3.1297,-3.1008,-3.1008,-3.0674,-3.0387,-3.0536,-2.9963,-2.9387,-2.9451,-2.9245,-2.9,-2.9,-2.916,-2.9319,-2.9319,-2.9145,-2.9,-2.9,-2.8144,-2.7418,-2.7418,-2.7418,-2.7418,-2.7418,-2.7244,-2.7099,-2.7099,-2.6924,-2.6779,-2.6779,-2.6779,-2.6779,-2.6779,-2.6779,-2.6779,-2.6779,-2.6779,-2.6779,-2.6779,-2.6779,-2.6779,-2.6779,-2.6779,-2.6779,-2.6779,0.0,0.0,0.0,0.0,0.0,0.0,0.0,0.0,0.0,0.0,0.0,0.0,0.0,0.0,0.0,0.0,0.0,0.0,0.0,0.0,0.0,0.0,0.0,-3.3164,-3.2711,-3.2625,-3.3263,-3.3113,-3.3241,-3.3968,-3.4261,-3.4668,-3.5394,-3.5473,-3.5789,-3.6485,-3.7164,-3.7844,-3.8523,-3.9171,-3.9503,-3.9503,-3.9503,-3.9503,-3.9503,-3.9503,-3.9503,-3.9503,-3.9503,-3.9503,-3.9503,-3.9503,-3.9139,-3.8539,-3.8539,-3.8144,-3.7401,-3.5979,-3.5426,-3.5426,-3.5394,-3.5394,-3.53,-3.4573,-3.3909,-3.3261,-3.2582,-3.1667,-3.0747,-3.0732,-3.0458,-3.0038,-2.9669,-2.952,-2.9411,-2.8966,-2.9247,-2.9711,-2.9711,-3.019,-3.064,-3.064,-3.0132,-2.9682,-2.9682,-2.9174,-2.8724,-2.8695,-2.8681,-2.8681,-2.8681,-2.8158,0.0,-2.7752,-2.72,-2.6823,-2.6823,-2.6794,-2.6779,-2.6779,-2.6779,-2.6779,-2.6779,-2.6779,-2.6779,-2.6779,-2.6779,-2.6779,-2.6779,-2.6779,-2.6779,-2.6779,0.0,0.0,0.0,0.0,0.0,0.0,0.0,0.0,0.0,0.0,0.0,0.0,0.0,0.0,0.0,0.0,0.0,0.0,0.0,0.0,0.0,0.0,-3.4185,-3.269,-3.3619,-3.4312,-3.3855,-3.4546,-3.5134,-3.531,-3.5594,-3.6194,-3.7122,-3.7472,-3.7954,-3.8618,-3.8839,-3.9029,-3.9218,-3.9408,-3.9503,-3.9503,-3.9503,-3.9503,-3.9503,-3.9503,-3.9503,-3.9503,-3.9503,-3.9503,-3.9503,-3.9503,-3.9408,-3.9234,-3.9234,-3.9123,-3.876,-3.688,-3.6137,-3.6074,-3.5568,-3.5394,-3.5363,-3.5157,-3.4968,-3.4778,-3.4604,-3.4344,-3.4007,-3.3628,-3.3161,-3.2831,-3.2687,-3.2169,-3.1699,-3.1928,-3.1816,-3.1729,-3.1729,-3.1859,-3.199,-3.199,-3.1467,-3.1003,-3.1003,-3.0495,-2.9755,-2.884,-2.8681,-2.8681,-2.8681,-2.8521,0.0,-2.8419,-2.7868,-2.7461,-2.7461,-2.7055,-2.6779,-2.6779,-2.6779,-2.6779,-2.6779,-2.6779,-2.6779,-2.6779,-2.6779,-2.6779,-2.6779,-2.6779,-2.6779,0.0,0.0,0.0,0.0,0.0,0.0,0.0,0.0,0.0,0.0,0.0,0.0,0.0,0.0,0.0,0.0,0.0,0.0,0.0,0.0,0.0,0.0,-3.507,-3.5297,-3.3967,-3.4783,-3.5458,-3.525,-3.6007,-3.6535,-3.6501,-3.725,-3.7935,-3.8527,-3.8758,-3.9234,-3.9929,-3.9961,-4.0087,-4.0372,-4.0372,-4.0372,-4.0372,-4.0372,-4.0372,-4.0372,-4.0372,-4.0372,-4.0372,-4.0372,-4.0372,0.0,-4.0372,-4.0214,-3.9961,-3.9961,-3.9771,0.0,0.0,0.0,0.0,0.0,-3.6263,-3.6263,-3.6263,-3.6074,-3.5764,-3.5593,-3.5316,-3.4951,-3.4472,-3.4118,-3.3894,-3.3653,-3.3238,-3.2815,-3.2864,-3.2689,-3.2513,-3.2513,-3.2513,-3.2513,-3.2513,-3.2208,-3.1946,-3.1946,-3.1642,0.0,-3.0045,-2.9653,-2.9479,-2.9479,-2.9247,-2.9073,-2.9073,-2.8521,-2.8028,-2.7752,-2.7403,-2.707,-2.6808,-2.6779,0.0,0.0,0.0,-2.6779,-2.6779,-2.6779,0.0,0.0,0.0,-2.6779,-2.6779,0.0,0.0,0.0,-2.4732,-2.3922,0.0,0.0,0.0,0.0,0.0,0.0,0.0,0.0,0.0,0.0,0.0,0.0,0.0,0.0,0.0,0.0,-3.6298,-3.6781,-3.6484,-3.6439,-3.657,-3.6981,-3.7488,-3.7821,-3.7701,-3.8871,-3.9629,-3.9629,-3.9692,-4.0024,-4.0672,0.0,0.0,0.0,0.0,-4.1588,-4.1588,-4.1588,-4.1588,-4.1588,-4.1588,-4.1588,-4.1588,-4.1588,-4.1588,-4.1588,-4.1588,-4.1257,-4.0704,-4.0704,-4.0277,-3.9566,-3.8886,-3.8618,-3.8539,-3.7859,-3.7591,-3.7575,-3.7512,0.0,0.0,-3.6004,-3.5391,-3.4747,-3.4182,-3.4076,-3.3954,-3.3446,-3.3321,-3.3273,-3.2844,-3.273,-3.273,-3.273,-3.273,-3.273,-3.273,-3.2672,-3.2629,-3.2629,-3.2571,-3.2324,-3.1729,-3.1105,-3.0655,-3.0582,-3.0089,-2.9726,-2.9726,-2.9174,-2.8565,-2.7998,0.0,0.0,-2.6939,-2.6823,-2.6779,-2.6779,-2.6779,-2.6779,-2.6779,-2.6779,-2.6779,-2.6779,-2.6779,-2.6779,-2.6779,-2.6727,-2.6394,-2.5893,-2.4553,-2.3695,0.0,0.0,0.0,0.0,0.0,0.0,0.0,0.0,0.0,0.0,0.0,0.0,0.0,0.0,0.0,-3.6972,-3.8282,-3.9404,-3.9881,-3.9677,-3.8998,-3.7556,-3.8852,-3.9658,-3.917,-3.9882,-4.0388,-4.0388,-4.0893,-4.1257,-4.1399,-4.1399,-4.1462,-4.1588,-4.1588,-4.1588,-4.1588,-4.1588,-4.1588,-4.1588,0.0,0.0,-4.1588,-4.1588,-4.1588,-4.1588,-4.1588,-4.1525,-4.1399,-4.1399,-4.1004,-4.0324,-3.9598,-3.9313,-3.9234,-3.8555,-3.8318,-3.8239,-3.767,-3.7385,-3.7216,-3.6644,-3.6429,-3.6122,-3.5232,-3.4927,0.0,-3.4303,-3.417,-3.417,-3.4051,-3.4051,-3.4051,-3.4051,-3.4051,-3.4051,-3.4051,-3.3645,-3.3282,-3.3282,-3.2875,-3.2483,-3.2353,-3.1772,-3.1163,-3.064,-3.0466,-3.0393,-3.0393,-2.9842,-2.9392,-2.9276,-2.8277,-2.7679,-2.7563,-2.7084,-2.6779,-2.6779,-2.6779,-2.6779,-2.6779,-2.6779,-2.6779,-2.6779,-2.6779,-2.6779,-2.6779,-2.6286,-2.6002,-2.5893,-2.5133,-2.4452,0.0,0.0,0.0,0.0,0.0,0.0,0.0,0.0,0.0,0.0,0.0,-3.4801,0.0,0.0,-3.7474,-3.8521,-3.9699,-4.0475,-4.0651,-4.1097,-4.0874,-3.9551,-4.0051,-4.0355,-4.0056,-4.0688,-4.1099,-4.1099,-4.1399,-4.1588,-4.1588,-4.1588,-4.1588,-4.1588,-4.1588,-4.1588,-4.1588,-4.1588,-4.1588,-4.1588,-4.1588,-4.1588,-4.1588,-4.1588,-4.1588,-4.1588,-4.1588,-4.1588,-4.1588,-4.1588,-4.1399,-4.1051,-4.0688,-4.0119,-3.9455,-3.9123,-3.9013,-3.895,-3.8618,-3.8491,-3.8369,-3.7573,-3.7118,-3.6651,-3.5607,-3.5052,-3.4721,-3.4481,-3.4414,-3.4414,-3.4414,-3.4414,-3.4414,-3.4414,-3.4414,-3.4414,-3.4414,-3.4167,-3.3935,-3.3935,-3.3688,-3.3354,-3.305,-3.2716,-3.2164,-3.1192,-3.0771,-3.0568,-3.0568,-3.0306,-2.9972,-2.9668,-2.9058,-2.8364,-2.7726,-2.7157,-2.6779,-2.6779,-2.6779,-2.6779,-2.6779,-2.6779,-2.6779,-2.6779,-2.6779,-2.6779,-2.6779,-2.65,-2.6233,-2.5893,-2.53,-2.4851,0.0,0.0,0.0,0.0,0.0,0.0,0.0,0.0,-3.4679,-3.5538,-3.581,-3.637,-3.7932,-3.8348,-3.8846,-4.0322,-4.103,-4.1325,-4.1009,-4.1796,-4.2202,-4.1634,-4.1126,-4.0798,-4.0798,-4.1272,-4.1588,-4.1588,-4.1588,-4.1588,-4.1588,-4.1588,-4.1588,-4.1588,-4.1588,-4.1588,-4.1588,-4.1588,-4.1588,-4.1588,-4.1588,-4.1588,-4.1588,-4.1588,-4.1588,-4.1588,-4.1588,-4.1588,-4.1588,-4.1588,-4.1588,-4.1588,-4.1588,-4.0893,-3.9882,-3.9756,-3.9708,-3.9692,-3.955,-3.9503,-3.9298,-3.8233,-3.7567,-3.6944,-3.5878,-3.5183,-3.4777,-3.4777,-3.469,-3.4603,-3.4603,-3.4501,-3.4414,-3.4414,-3.4414,-3.4414,-3.4414,-3.4414,-3.4414,-3.4414,-3.4414,-3.4254,-3.3746,-3.3558,-3.3064,-3.1888,-3.1163,-3.0756,-3.0756,-3.064,-3.0379,-2.9856,-2.9697,-2.9102,-2.7784,-2.7258,-2.691,-2.6794,-2.6779,-2.6779,-2.6779,-2.6779,-2.6779,-2.6779,-2.6779,-2.6779,-2.6779,-2.6779,-2.6553,-2.6056,-2.537,-2.4951,-3.2196,-3.2414,-3.2439,-3.2327,-3.2521,-3.29,0.0,0.0,-3.4933,-3.6192,-3.6918,-3.7948,-4.0141,-4.0538,-4.1073,-4.258,-4.2944,-4.3031,-4.2964,-4.2772,-4.2548,-4.2467,-4.1853,-4.1478,-4.1478,-4.1541,-4.1588,-4.1588,-4.1588,-4.1588,-4.1588,-4.1588,-4.1588,-4.1588,-4.1588,-4.1588,-4.1588,-4.1588,-4.1588,-4.1588,-4.1588,-4.1588,-4.1588,-4.1588,-4.1588,-4.1588,-4.1588,-4.1588,-4.1588,-4.1588,-4.1588,-4.1588,-4.1588,-4.1494,-4.1288,-4.0688,-4.0482,-4.0388,-3.974,-3.9503,-3.9298,-3.8233,-3.7855,-3.7594,-3.6538,-3.6156,-3.6098,-3.6098,-3.5691,-3.5256,-3.5256,-3.4835,-3.4414,-3.4414,-3.4414,-3.4414,-3.4414,-3.4414,-3.4414,-3.4414,-3.4414,-3.4385,-3.4312,-3.3833,-3.3224,-3.2513,-3.1845,-3.1409,-3.1409,-3.0916,-3.0553,-3.048,-2.9958,-2.9102,-2.7784,-2.7665,-2.7389,-2.6823,-2.6779,-2.6779,-2.6779,-2.6779,-2.6779,-2.6779,-2.6779,-2.6779,-2.6779,-2.6779,-2.6779,-2.6674,-2.5522,-2.4738,-3.2355,-3.3105,0.0,0.0,-3.4035,-3.5052,-3.5308,-3.6186,-3.7237,-3.8191,-3.8975,-3.9888,-4.1267,-4.1905,-4.2444,0.0,-4.3257,-4.3211,-4.2956,-4.2745,-4.2459,-4.2077,-4.1769,-4.1588,-4.1588,-4.1588,-4.1588,-4.1588,-4.1588,-4.1588,-4.1588,-4.1588,-4.1588,-4.1588,-4.1588,-4.1588,-4.1588,-4.1588,-4.1588,-4.1588,-4.1588,-4.1588,-4.1588,-4.1588,-4.1588,-4.1588,-4.1588,-4.1588,-4.1588,-4.1588,-4.1588,-4.1588,-4.1588,-4.1588,-4.1557,-4.1288,-4.1178,-4.113,-4.083,-4.0719,-4.0509,-3.9412,-3.8812,-3.8318,-3.7227,-3.662,-3.6301,-3.6301,-3.6112,-3.5909,-3.5909,-3.5444,-3.4965,-3.4965,-3.4675,-3.4414,-3.4414,-3.4414,-3.4414,-3.4414,-3.4414,-3.4414,-3.4414,-3.4196,-3.3935,-3.3659,-3.2425,-3.1526,-3.1526,-3.0959,-3.0568,-3.0568,-3.0001,-2.9406,-2.8869,-2.8158,-2.7607,-2.7345,-2.6982,-2.6779,-2.6779,-2.6779,-2.6779,-2.6779,-2.6779,-2.6779,-2.6779,-2.6779,-2.6621,-2.6286,-2.577,-2.5203,-3.2906,0.0,0.0,-3.4333,-3.5518,-3.6807,-3.6992,-3.7908,-3.8912,-3.965,-4.0268,-4.1003,-4.213,-4.2668,-4.3134,-4.3793,-4.3728,-4.3451,-4.2921,-4.2694,-4.2333,-4.1654,-4.1588,-4.1588,-4.1588,-4.1588,-4.1588,-4.1588,-4.1588,-4.1588,-4.1588,-4.1588,-4.1588,-4.1588,-4.1588,-4.1588,-4.1588,-4.1588,-4.1588,-4.1588,-4.1588,-4.1588,-4.1588,-4.1588,-4.1588,-4.1588,-4.1588,-4.1588,-4.1588,-4.1588,-4.1588,-4.1588,-4.1588,-4.1588,-4.1588,-4.1588,-4.1588,-4.1588,-4.1588,-4.1588,-4.144,-4.0239,-3.9586,-3.9013,-3.7901,-3.7215,-3.6823,-3.6823,-3.6707,-3.6591,-3.6591,-3.6098,-3.559,-3.547,-3.5009,-3.4632,-3.4443,-3.4414,-3.4414,-3.4414,-3.4414,-3.4414,-3.4414,-3.4414,-3.4414,-3.4414,-3.3064,-3.199,-3.1816,-3.109,-3.0568,-3.0568,-3.0161,-2.9813,-2.9639,-2.8782,-2.8045,-2.7697,-2.7302,-2.6968,-2.6794,-2.6779,-2.6779,-2.6779,-2.6779,-2.6779,-2.6779,-2.6779,-2.6568,-2.6111,-2.6002,-2.566,0.0,0.0,-3.5108,-3.5678,-3.6472,-3.7269,-3.7882,-3.8556,-3.9172,-3.9867,-3.9986,-4.0679,-4.2787,-4.2689,-4.301,-4.5025,-4.4872,-4.4226,-4.3571,-4.2986,-4.2333,-4.1654,-4.1588,-4.1588,0.0,-4.1588,-4.1588,-4.1588,-4.1588,-4.1588,-4.1588,-4.1588,-4.1588,-4.1588,-4.1588,-4.1588,-4.1588,-4.1588,-4.1588,-4.1588,-4.1588,-4.1588,-4.1588,-4.1588,-4.1588,-4.1588,-4.1588,-4.1588,-4.1588,-4.1588,-4.1588,-4.1588,-4.1588,-4.1588,-4.1588,-4.1588,-4.1588,-4.1588,-4.1588,-4.1588,-4.144,-4.0239,-3.9889,-3.9662,-3.8531,-3.8159,-3.8144,-3.8144,-3.7723,-3.7273,-3.7273,-3.678,-3.6127,-3.5517,-3.5343,-3.5169,-3.4545,-3.4414,-3.4414,-3.4414,-3.4414,-3.4414,-3.4414,-3.4414,-3.4414,-3.4414,-3.3848,-3.318,-3.2571,-3.1366,-3.0568,-3.0568,-3.0553,-3.0306,-2.9682,-2.9581,-2.9044,-2.7755,-2.7654,-2.7418,-2.6808,-2.6779,-2.6779,-2.6779,-2.6779,-2.6779,-2.6779,-2.6779,-2.6779,-2.6779,-2.6179,-2.5893,0.0,0.0,-3.7666,-3.7515,-3.8678,-3.9764,-3.9561,-4.0256,-4.0906,-4.0648,-4.0991,-4.1555,-4.2285,-4.2685,-4.31,-4.3837,-4.3474,-4.3048,-4.28,-4.2261,-4.1835,-4.1654,-4.1588,0.0,0.0,0.0,0.0,-4.1588,-4.1588,-4.1588,-4.1588,-4.1588,-4.1588,-4.1588,-4.1588,-4.1588,-4.1588,-4.1588,-4.1588,-4.1588,-4.1588,-4.1588,-4.1588,-4.1588,-4.1588,-4.1588,-4.1588,-4.1588,-4.1588,-4.1588,-4.1588,-4.1588,-4.1588,-4.1588,-4.1588,-4.1588,-4.1588,-4.1588,-4.1588,-4.1588,-4.144,-4.0239,-3.9889,-3.9677,-3.856,-3.8202,-3.8202,-3.8202,-3.8057,-3.7897,-3.7897,-3.7433,-3.6925,-3.6707,-3.5996,-3.5369,-3.5082,-3.4704,-3.4414,-3.4414,-3.4414,-3.4414,-3.4414,-3.4414,-3.4414,-3.4414,-3.3877,-3.3079,-3.199,-3.1467,-3.1032,-3.0611,-3.0568,-3.0495,-3.0277,-2.9871,-2.945,-2.9015,-2.8202,-2.7636,-2.7418,-2.7012,-2.6779,-2.6779,-2.6779,-2.6779,-2.6779,-2.6779,-2.6779,-2.6779,-2.6621,-2.65,0.0,-3.7653,-3.8866,-3.8983,-3.9935,-4.0752,-4.0287,-4.0744,-4.118,-4.07,-4.0974,-4.1484,-4.1988,-4.229,-4.2669,-4.3162,-4.2712,-4.2325,-4.2402,-4.1889,-4.1548,-4.1623,-4.1588,0.0,0.0,0.0,0.0,-4.1588,-4.1588,-4.1588,-4.1588,-4.1588,-4.1588,-4.1588,-4.1588,-4.1588,-4.1588,-4.1588,-4.1588,-4.1588,-4.1588,-4.1588,-4.1588,-4.1588,-4.1588,-4.1588,-4.1588,-4.1588,-4.1588,-4.1588,-4.1588,-4.1588,-4.1588,-4.1588,-4.1588,-4.1588,-4.1588,-4.1588,-4.1588,-4.1588,-4.144,-4.0239,-3.9889,-3.9677,-3.856,-3.8202,-3.8202,-3.8202,-3.8202,-3.8202,-3.8202,-3.7912,-3.7578,-3.736,-3.6664,-3.5923,-3.5529,-3.5038,-3.469,-3.4457,-3.4414,-3.4414,-3.4414,-3.4414,-3.4414,-3.4414,-3.4066,-3.334,-3.2048,-3.1671,-3.1279,-3.064,-3.0568,-3.0568,-3.0568,-3.0205,-2.9871,-2.9639,-2.8855,-2.8202,-2.7697,-2.7345,-2.7012,-2.6779,-2.6779,-2.6779,-2.6779,-2.6779,-2.6779,-2.6779,-2.6779,-2.6779,-3.8664,-3.8865,-3.8788,-4.0097,-4.0353,-4.0244,-4.0244,-4.0077,-3.9986,-3.9952,-4.0051,-4.0519,0.0,0.0,-4.1596,-4.2869,-4.2518,-4.2114,-4.2237,-4.1738,-4.1387,0.0,0.0,0.0,0.0,0.0,0.0,-4.1588,0.0,-4.1588,-4.1588,-4.1588,-4.1588,-4.1588,-4.1588,-4.1588,-4.1588,-4.1588,-4.1588,-4.1588,-4.1588,-4.1588,-4.1588,-4.1588,-4.1588,-4.1588,-4.1588,-4.1588,-4.1588,-4.1588,-4.1588,-4.1588,-4.1588,-4.1588,-4.1588,-4.1588,-4.1588,-4.1588,-4.1588,-4.1588,-4.144,-4.0239,-3.9889,-3.9677,-3.856,-3.8202,-3.8202,-3.8202,-3.8202,-3.8202,-3.8202,-3.8202,-3.8057,-3.7491,-3.7331,-3.6954,-3.5677,-3.5456,-3.5169,-3.453,-3.4414,-3.4414,-3.4414,-3.4414,-3.4414,-3.4414,-3.4414,-3.3964,-3.273,-3.199,-3.1322,-3.0684,-3.0597,-3.0568,-3.0568,-3.0568,-3.0321,-2.9711,-2.9639,-2.9087,-2.7882,-2.7712,-2.7447,-2.6852,-2.6808,-2.6779,-2.6779,-2.6779,-2.6779,-2.6779,-2.6779,-2.6779,-3.9182,-4.0184,-4.1178,-4.1179,-4.1072,-4.0932,-4.0449,-4.0192,-3.9851,-3.9309,-3.9153,-3.9278,0.0,0.0,0.0,-4.0112,-4.0121,0.0,-4.0147,-4.0505,0.0,0.0,0.0,-4.1588,-4.1588,-4.1588,0.0,0.0,-4.1588,-4.1588,-4.1588,-4.1588,-4.1588,-4.1588,-4.1588,-4.1588,-4.1588,-4.1588,-4.1588,-4.1588,-4.1588,-4.1588,-4.1588,-4.1588,-4.1588,-4.1588,-4.1588,-4.1588,-4.1588,-4.1588,-4.1588,-4.1588,-4.1588,-4.1588,-4.1588,-4.1588,-4.1588,-4.1588,-4.1588,-4.1588,-4.144,-4.0239,-3.9889,-3.9677,-3.856,-3.8202,-3.8202,-3.8202,-3.8202,-3.8202,-3.8202,-3.8202,-3.8159,-3.8014,-3.7636,-3.707,-3.6243,-3.5706,-3.5169,-3.453,-3.4414,-3.4414,-3.4414,-3.4414,-3.4414,-3.4414,-3.4414,-3.4124,-3.3325,-3.2658,-3.2004,-3.1351,-3.0858,-3.0568,-3.0568,-3.0568,-3.051,-3.0335,-2.9885,-2.9479,-2.916,-2.8175,-2.765,-2.749,-2.7026,-2.6779,-2.6779,-2.6779,-2.6779,-2.6779,-2.6779,-2.6779,-4.0005,-4.0961,-4.175,-4.1174,-4.0784,-4.0437,-4.0069,-3.961,-3.9194,-3.9069,-3.8745,0.0,0.0,0.0,0.0,0.0,0.0,0.0,-3.8918,-3.9814,-4.0546,0.0,-4.1178,0.0,-4.1588,-4.1588,-4.1588,0.0,-4.1588,-4.1588,-4.1588,-4.1588,-4.1588,-4.1588,-4.1588,-4.1588,-4.1588,-4.1588,-4.1588,-4.1588,-4.1588,-4.1588,-4.1588,-4.1588,-4.1588,-4.1588,0.0,-4.1588,-4.1588,-4.1588,-4.1588,-4.1588,-4.1588,-4.1588,-4.1588,-4.1588,-4.1588,-4.1588,-4.1588,-4.1456,-4.1107,-4.0185,-3.9889,-3.9677,-3.856,-3.8202,-3.8202,-3.8202,-3.8202,-3.8202,-3.8202,-3.8202,-3.8202,-3.8202,-3.7941,-3.752,-3.6881,-3.6228,-3.5503,-3.4588,-3.4646,-3.4748,-3.4457,-3.4414,-3.4414,-3.4414,-3.4414,-3.4283,-3.3935,-3.3093,-3.2266,-3.1584,-3.0945,-3.0568,-3.0568,-3.0568,-3.0568,-3.0568,-3.0248,-2.9914,-2.9639,-2.8885,-2.8303,-2.7683,-2.7389,-2.7055,-2.6779,-2.6779,-2.6779,-2.6779,-2.6779,-2.6779,-4.0769,-4.1357,-4.1461,-4.0801,-4.0056,-3.9452,-3.9363,-3.8553,-3.8054,-3.8622,0.0,0.0,-3.8342,0.0,-3.7474,-3.7706,0.0,-3.8402,-3.8107,-3.9237,-4.0248,-4.0436,-4.1051,-4.1494,-4.1573,-4.1588,-4.1588,-4.1588,-4.1588,-4.1588,-4.1588,-4.1588,-4.1588,-4.1588,-4.1588,-4.1588,-4.1588,-4.1588,-4.1588,-4.1588,-4.1588,-4.1588,-4.1588,-4.1588,-4.1588,-4.1588,-4.1588,0.0,-4.1588,-4.1588,-4.1588,-4.1588,-4.1588,-4.1588,-4.1588,-4.1588,-4.1588,-4.1588,-4.1588,-4.1256,-4.0715,-4.0115,-3.9834,-3.9621,-3.856,-3.8202,-3.8202,-3.8202,-3.8202,-3.8202,-3.8202,-3.8202,-3.8202,-3.8202,-3.8202,-3.8028,-3.7433,-3.678,-3.5981,-3.4878,-3.5053,-3.5183,-3.4632,-3.4472,-3.4414,-3.4414,-3.4414,-3.4414,-3.4414,-3.3296,-3.2295,-3.1714,-3.1003,-3.0568,-3.0568,-3.0568,-3.0568,-3.0568,-3.0568,-3.0321,-2.9784,-2.9668,-2.9102,-2.7943,-2.7842,-2.7592,-2.7041,-2.7041,-2.7041,-2.7041,-2.7041,-2.6982,-4.0502,-4.1464,-4.2137,-4.0912,-4.0056,-3.934,-3.8608,-3.7331,0.0,0.0,0.0,-3.5112,-3.5192,-3.5232,0.0,-3.5442,0.0,0.0,0.0,0.0,-3.9057,0.0,0.0,0.0,0.0,0.0,0.0,0.0,0.0,-4.1588,-4.1588,-4.1588,-4.1588,-4.1588,-4.1588,-4.1588,-4.1588,-4.1588,-4.1588,-4.1588,-4.1588,-4.1588,-4.1588,-4.1588,-4.1588,-4.1588,-4.1588,0.0,-4.1588,-4.1588,-4.1588,-4.1588,-4.1588,-4.1588,-4.1588,-4.1588,-4.1588,-4.1588,-4.1588,-4.1256,-4.0715,-4.0115,-3.9636,-3.909,-3.8427,-3.8202,-3.8202,-3.8202,-3.8202,-3.8202,-3.8202,-3.8202,-3.8202,-3.8202,-3.8202,-3.8028,-3.7433,-3.678,-3.6243,-3.6025,-3.5648,-3.5328,-3.5227,-3.4762,-3.4414,-3.4414,-3.4414,-3.4414,-3.4414,-3.3296,-3.2483,-3.2367,-3.1279,-3.0568,-3.0568,-3.0568,-3.0568,-3.0568,-3.0568,-3.0524,-3.0422,-2.99,-2.9523,-2.929,-2.8782,-2.8463,-2.8347,-2.8347,-2.8347,-2.8347,-2.8347,-2.8071,-3.9875,-4.0675,-4.1184,-3.9864,-3.8981,-3.8384,-3.8248,0.0,0.0,0.0,0.0,-3.3995,-3.4338,0.0,0.0,0.0,0.0,0.0,0.0,0.0,0.0,0.0,0.0,0.0,0.0,0.0,0.0,0.0,0.0,-4.1588,-4.1588,-4.1588,-4.1588,-4.1588,-4.1588,-4.1588,-4.1588,-4.1588,-4.1588,-4.1588,-4.1588,-4.1588,-4.1588,-4.1588,-4.1588,-4.1588,-4.1588,0.0,-4.1588,-4.1588,-4.1588,-4.1588,-4.1588,-4.1588,-4.1588,-4.1588,-4.1588,-4.1588,-4.1588,-4.1039,-4.027,-3.9975,-3.9565,-3.8958,-3.8352,-3.8202,-3.8202,-3.8202,-3.8202,-3.8202,-3.8202,-3.8202,-3.8202,-3.8202,-3.8202,-3.8028,-3.7433,-3.7302,-3.7099,-3.6446,-3.6069,-3.5749,-3.5415,-3.4835,-3.4414,-3.4414,-3.4414,-3.4414,-3.4414,-3.3296,-3.2513,-3.2513,-3.1351,-3.0568,-3.0568,-3.0568,-3.0568,-3.0568,-3.0568,-3.0568,-3.0568,-3.0277,-2.9972,-2.9639,-2.9334,-2.9,-2.8681,-2.8681,-2.8681,-2.8681,-2.8681,-2.8521,-3.9159,-3.964,-3.9762,-3.8566,-3.7884,-3.7406,-3.734,-3.5958,0.0,0.0,-3.4297,-3.3152,-3.3761,0.0,0.0,0.0,0.0,0.0,0.0,0.0,0.0,0.0,0.0,0.0,0.0,0.0,0.0,0.0,0.0,0.0,-4.1588,-4.1588,-4.1588,-4.1588,-4.1588,-4.1588,-4.1588,-4.1588,-4.1588,-4.1588,-4.1588,-4.1588,-4.1588,-4.1588,-4.1588,-4.1588,-4.1588,0.0,0.0,-4.1588,-4.1588,-4.1588,-4.1588,-4.1588,-4.1588,-4.1588,-4.1588,-4.1588,-4.1588,-4.0956,-4.0045,-3.9975,-3.9493,-3.8797,-3.8352,-3.8202,-3.8202,-3.8202,-3.8202,-3.8202,-3.8202,-3.8202,-3.8202,-3.8202,-3.8202,-3.8072,-3.7607,-3.7868,-3.7912,-3.691,-3.6504,-3.6156,-3.5648,-3.4922,-3.4414,-3.4414,-3.4414,-3.4414,-3.4414,-3.3296,-3.2513,-3.2513,-3.1351,-3.0568,-3.0568,-3.0568,-3.0568,-3.0568,-3.0568,-3.0568,-3.0568,-3.0568,-3.0335,-2.9842,-2.9827,-2.9581,-2.9087,-2.9087,-2.9087,-2.9087,-2.9087,-2.9015,-3.8543,-3.8616,-3.8489,-3.7733,-3.7412,-3.6712,-3.488,0.0,0.0,0.0,-3.2132,-3.1685,-3.2048,-3.205,0.0,0.0,0.0,0.0,0.0,0.0,0.0,0.0,0.0,0.0,0.0,0.0,0.0,0.0,0.0,0.0,-4.1588,-4.1588,-4.1588,-4.1588,-4.1588,-4.1588,-4.1588,-4.1588,-4.1588,-4.1588,-4.1588,-4.1588,-4.1588,-4.1588,-4.1588,-4.1588,-4.1588,0.0,0.0,-4.1588,-4.1588,-4.1588,-4.1588,-4.1588,-4.1588,-4.1588,-4.1588,-4.1588,-4.1588,-4.1189,-4.0646,-4.0285,-3.9349,-3.8277,-3.8202,-3.8202,-3.8202,-3.8202,-3.8202,-3.8202,-3.8202,-3.8202,-3.8202,-3.8202,-3.8202,-3.8188,-3.813,-3.8159,-3.8173,-3.8043,-3.7099,-3.6286,-3.6228,-3.5212,-3.4414,-3.4414,-3.4414,-3.4414,-3.4414,-3.3296,-3.2513,-3.2513,-3.1351,-3.0568,-3.0568,-3.0568,-3.0568,-3.0568,-3.0568,-3.0568,-3.0568,-3.0568,-3.0553,-3.0495,-3.0495,-3.0451,-3.0393,-3.0393,-3.0393,-3.0393,-3.0393,-3.0089,-3.654,-3.6627,-3.6564,-3.6295,-3.553,-3.4718,-3.4244,0.0,0.0,-3.1909,-3.1372,-3.101,-3.1355,-3.147,-3.1781,0.0,0.0,0.0,0.0,0.0,0.0,0.0,0.0,0.0,0.0,0.0,0.0,0.0,0.0,0.0,-4.1588,-4.1588,-4.1588,-4.1588,-4.1588,-4.1588,-4.1588,-4.1588,-4.1588,-4.1588,-4.1588,-4.1588,-4.1588,-4.1588,-4.1588,-4.1588,-4.1588,0.0,0.0,-4.1588,-4.1588,-4.1588,-4.1588,-4.1588,-4.1588,-4.1588,-4.1588,-4.1588,-4.1588,-4.1039,-4.02,-4.0045,-3.919,-3.8202,-3.8366,-3.8366,-3.8366,-3.8202,-3.8277,-3.8366,-3.8366,-3.8366,-3.8366,-3.8202,-3.8202,-3.8202,-3.8202,-3.8202,-3.8202,-3.8202,-3.7172,-3.6301,-3.6301,-3.5256,-3.4414,-3.4414,-3.4414,-3.4414,-3.4414,-3.3296,-3.2513,-3.2513,-3.1351,-3.0568,-3.0568,-3.0568,-3.0568,-3.0568,-3.0568,-3.0568,-3.0568,-3.0568,-3.0568,-3.0568,-3.0568,-3.0568,-3.0568,-3.0568,-3.0568,-3.0568,-3.0568,-3.0437,-3.4846,-3.4714,-3.4462,-3.4462,-3.3668,-3.2921,0.0,0.0,-3.0871,-3.104,-3.0681,-3.046,-3.0828,-3.1083,-3.1504,0.0,0.0,0.0,0.0,0.0,0.0,0.0,0.0,0.0,0.0,0.0,0.0,0.0,0.0,0.0,0.0,-4.1588,-4.1588,-4.1588,-4.1588,-4.1588,-4.1588,-4.1588,-4.1588,-4.1588,-4.1588,-4.1588,-4.1588,-4.1588,-4.1588,-4.1588,-4.1588,0.0,0.0,-4.1588,-4.1588,-4.1588,-4.1588,-4.1588,-4.1588,-4.1588,-4.1522,-4.139,-4.139,-4.0752,-3.9889,-3.9763,-3.9205,-3.8501,-3.8516,-3.8441,-3.8366,-3.8277,-3.8366,-3.8516,-3.8516,-3.8441,-3.8366,-3.8202,-3.8202,-3.8202,-3.8202,-3.8202,-3.8202,-3.8202,-3.7172,-3.6301,-3.6301,-3.5256,-3.4414,-3.4414,-3.4414,-3.4356,-3.4167,-3.318,-3.244,-3.2251,-3.1235,-3.0568,-3.0568,-3.0568,-3.0568,-3.0568,-3.0568,-3.0568,-3.0568,-3.0568,-3.0568,-3.0568,-3.0568,-3.0568,-3.0568,-3.0568,-3.0568,-3.0568,-3.0568,-3.048,-3.384,-3.3198,-3.2349,-3.2349,-3.2191,-3.1707,0.0,0.0,-3.068,-2.9955,-2.981,-2.9968,-3.0435,-3.0845,-3.1123,-3.114,0.0,0.0,0.0,0.0,0.0,0.0,0.0,0.0,0.0,0.0,0.0,0.0,0.0,0.0,0.0,-4.1588,-4.1588,-4.1588,-4.1588,-4.1588,-4.1588,-4.1588,-4.1588,-4.1588,-4.1588,-4.1588,-4.1588,-4.1588,-4.1588,0.0,0.0,0.0,0.0,-4.1588,-4.1588,-4.1588,-4.1588,-4.1588,-4.1588,-4.1588,-4.1256,-4.0799,-4.0799,-4.0424,-3.9834,-3.9493,-3.9235,-3.9031,-3.859,-3.8366,-3.8202,-3.8441,-3.8516,-3.8516,-3.8516,-3.8366,-3.8202,-3.8202,-3.8202,-3.8202,-3.8202,-3.8202,-3.8202,-3.8202,-3.7172,-3.6301,-3.6301,-3.5256,-3.4414,-3.4414,-3.4414,-3.4182,-3.3558,-3.2919,-3.2266,-3.1598,-3.0945,-3.0568,-3.0568,-3.0568,-3.0568,-3.0568,-3.0568,-3.0568,-3.0568,-3.0568,-3.0568,-3.0568,-3.0568,-3.0568,-3.0568,-3.0568,-3.0568,-3.0568,-3.0568,-3.0234,-3.2369,-3.2094,-3.1555,-3.1555,-3.1164,-3.0688,-3.0275,-2.9926,-2.9589,-2.9382,-2.9335,-2.9454,-2.9924,-3.014,-3.0418,-3.0988,0.0,0.0,0.0,0.0,0.0,0.0,0.0,0.0,0.0,0.0,0.0,0.0,0.0,0.0,0.0,-4.1588,-4.1588,-4.1588,-4.1588,-4.1588,-4.1588,-4.1588,-4.1588,-4.1588,-4.1588,-4.1588,-4.1588,-4.1588,-4.1588,0.0,0.0,0.0,0.0,-4.1588,-4.1588,-4.1588,-4.1588,-4.1588,-4.1654,-4.1851,-4.1522,-4.107,-4.1256,-4.0631,-3.9737,-3.9451,-3.909,-3.8664,-3.8366,-3.8366,-3.8441,-3.8441,-3.8516,-3.8441,-3.8366,-3.8366,-3.8366,-3.8202,-3.8202,-3.8202,-3.8202,-3.8202,-3.8202,-3.8202,-3.7172,-3.6301,-3.6301,-3.5256,-3.4414,-3.4414,-3.4414,-3.4182,-3.3558,-3.2904,-3.2266,-3.1584,-3.0945,-3.0568,-3.0568,-3.0568,-3.0568,-3.0568,-3.0568,-3.0568,-3.0568,-3.0568,-3.0568,-3.0568,-3.0568,-3.0568,-3.0568,-3.0568,-3.035,-2.9914,-2.9479,-2.8942,0.0,-3.1045,-3.0656,-3.0465,-3.0101,0.0,0.0,-2.9437,-2.9075,-2.9075,-2.9075,-2.9213,-2.9454,-2.9677,-2.9968,-3.0543,0.0,0.0,0.0,0.0,0.0,0.0,0.0,0.0,0.0,0.0,0.0,0.0,0.0,0.0,0.0,-4.1588,-4.1588,-4.1588,-4.139,-4.139,-4.1588,-4.139,-4.139,-4.1588,-4.1588,-4.1588,-4.1588,-4.1588,-4.1588,0.0,0.0,0.0,0.0,-4.1588,-4.1654,-4.1785,-4.1785,-4.1851,-4.2029,-4.2222,-4.1688,-4.0956,-4.1225,-4.0393,-3.9307,-3.922,-3.8943,-3.8575,-3.8501,-3.8427,-3.8516,-3.859,-3.859,-3.8516,-3.8427,-3.8427,-3.8366,-3.8202,-3.8202,-3.8202,-3.8202,-3.8202,-3.8202,-3.8202,-3.7172,-3.6301,-3.6301,-3.5256,-3.4414,-3.4414,-3.4414,-3.4095,-3.3224,-3.2759,-3.2164,-3.1264,-3.08,-3.0568,-3.0568,-3.0568,-3.0568,-3.0568,-3.0568,-3.0568,-3.0568,-3.0568,-3.0568,-3.0568,-3.0568,-3.0568,-3.0568,-3.0335,-2.9885,-2.9261,-2.8623,-2.8115,0.0,0.0,0.0,0.0,0.0,0.0,0.0,-2.9075,0.0,-2.9075,-2.9075,-2.9075,-2.9075,-2.947,-2.975,-2.9793,0.0,0.0,0.0,0.0,0.0,0.0,0.0,0.0,0.0,0.0,0.0,0.0,0.0,0.0,0.0,-4.1588,-4.1588,-4.1588,-4.1055,-4.0987,-4.1522,-4.107,-4.107,-4.1522,-4.1522,-4.1522,-4.1522,-4.1588,-4.1588,0.0,0.0,0.0,0.0,-4.1654,-4.1851,-4.2109,-4.2109,-4.2349,-4.2585,-4.2648,-4.1836,-4.0826,-4.0826,-3.9999,-3.8929,-3.8855,-3.8782,-3.8782,-3.8782,-3.8649,-3.859,-3.8723,-3.8649,-3.859,-3.8723,-3.8501,-3.8202,-3.8202,-3.8202,-3.8202,-3.8202,-3.8202,-3.8202,-3.8202,-3.7172,-3.6301,-3.6301,-3.5256,-3.4414,-3.4414,-3.437,-3.3906,-3.2672,-3.2483,-3.1961,-3.0698,-3.0568,-3.0568,-3.0568,-3.0568,-3.0568,-3.0568,-3.0568,-3.0568,-3.0568,-3.0568,-3.0568,-3.0568,-3.0524,-3.048,-3.0437,-2.9798,-2.9189,-2.8594,-2.7955,-2.7665,-2.9924,0.0,-2.9677,-2.9213,0.0,0.0,0.0,0.0,0.0,0.0,0.0,0.0,0.0,0.0,0.0,0.0,0.0,0.0,0.0,0.0,0.0,0.0,0.0,0.0,0.0,0.0,0.0,0.0,0.0,0.0,0.0,-4.1588,-4.1588,-4.1588,-4.06,-4.0409,-4.0987,-4.0851,-4.0851,-4.1003,-4.1003,-4.1003,-4.0987,-4.139,-4.139,0.0,0.0,0.0,-4.198,-4.198,-4.2158,-4.2459,-4.2459,-4.2522,-4.2648,-4.2912,-4.2459,-4.1819,-4.2045,-4.1245,-3.999,-3.922,-3.8943,-3.8782,-3.8782,-3.8782,-3.8723,-3.8797,-3.8797,-3.8723,-3.859,-3.8516,-3.8366,-3.8202,-3.8202,-3.8202,-3.8202,-3.8202,-3.8202,-3.8202,-3.7172,-3.6301,-3.6301,-3.5256,-3.4414,-3.4414,-3.4008,-3.3412,-3.2614,-3.2077,-3.1453,-3.0655,-3.0568,-3.0568,-3.0568,-3.0568,-3.0568,-3.0568,-3.0568,-3.0568,-3.0568,-3.0568,-3.0568,-3.0568,-3.0103,-2.961,-2.9131,-2.8477,-2.8045,-2.794,-2.7302,-2.7012,-2.9793,-2.9793,-2.9677,-2.9213,-2.9075,-2.9075,0.0,0.0,0.0,0.0,0.0,0.0,0.0,0.0,0.0,0.0,0.0,0.0,0.0,0.0,0.0,0.0,0.0,0.0,0.0,0.0,0.0,0.0,0.0,0.0,0.0,-4.113,-4.1272,-4.1573,-4.0752,-4.0493,-4.0799,-4.0301,-4.0146,-4.0424,-4.0646,-4.0646,-4.0424,-4.0972,-4.0904,0.0,0.0,0.0,-4.1754,-4.198,-4.2412,-4.2851,-4.2851,-4.2912,-4.3096,-4.3235,-4.2929,-4.2285,-4.2126,-4.1194,-3.9879,-3.9394,-3.9177,-3.9104,-3.9104,-3.9104,-3.9031,-3.8943,-3.8797,-3.8649,-3.8649,-3.8516,-3.8366,-3.8202,-3.8202,-3.8202,-3.8202,-3.8202,-3.813,-3.7839,-3.6983,-3.6214,-3.5923,-3.5067,-3.4414,-3.4414,-3.3877,-3.3238,-3.26,-3.1932,-3.1279,-3.064,-3.0568,-3.0568,-3.0568,-3.0568,-3.0568,-3.0568,-3.0568,-3.0568,-3.0568,-3.0568,-3.0437,-3.0147,-2.9508,-2.8884,-2.8245,-2.7897,-2.7578,-2.7287,-2.6939,-2.6779,-2.9677,-2.9677,-2.9589,-2.9213,-2.9075,-2.9075,0.0,0.0,0.0,0.0,0.0,0.0,0.0,0.0,0.0,0.0,0.0,0.0,0.0,0.0,0.0,0.0,0.0,0.0,0.0,0.0,0.0,0.0,0.0,0.0,0.0,-4.0435,-4.0735,-4.1415,-4.0899,-4.0607,-4.0646,-3.9595,-3.9307,-3.9763,-4.0285,-4.0285,-3.9834,-4.0424,-4.0355,-3.9834,0.0,0.0,-4.1276,-4.19,-4.2476,-4.3035,-4.3113,-4.3295,-4.3432,-4.3432,-4.3035,-4.2317,-4.1591,-4.0531,-3.9553,-3.9424,-3.9424,-3.9424,-3.9424,-3.9424,-3.9337,-3.9177,-3.8885,-3.859,-3.8723,-3.8501,-3.8202,-3.8202,-3.8202,-3.8202,-3.8202,-3.8202,-3.8028,-3.7418,-3.6765,-3.6112,-3.5473,-3.4835,-3.4385,-3.4283,-3.3732,-3.3093,-3.244,-3.1787,-3.1177,-3.0626,-3.0568,-3.0568,-3.0568,-3.0568,-3.0568,-3.0568,-3.0568,-3.0568,-3.0568,-3.048,-3.0132,-2.9493,-2.8855,-2.8216,-2.7578,-2.7578,-2.7316,-2.6779,-2.6779,-2.6779,-2.9213,-2.9213,-2.9213,-2.9121,-2.9075,-2.9075,0.0,0.0,0.0,0.0,0.0,0.0,0.0,0.0,0.0,0.0,0.0,0.0,0.0,0.0,0.0,0.0,0.0,0.0,0.0,0.0,0.0,0.0,0.0,0.0,0.0,-3.9677,-3.9993,-4.0735,-4.0181,-3.9945,-4.0045,-3.9436,-3.9162,-3.9235,-3.9322,-3.9307,-3.9235,-3.9935,-4.0005,-3.9508,0.0,-4.0768,-4.1075,-4.1835,-4.2349,-4.271,-4.3295,-4.3235,-4.2772,-4.2772,-4.2317,-4.1591,-4.0873,-4.0478,-4.0216,-3.961,-3.9424,-3.9424,-3.9424,-3.9424,-3.9424,-3.9337,-3.9192,-3.8958,-3.8664,-3.8516,-3.8441,-3.8202,-3.8202,-3.8202,-3.8202,-3.8202,-3.8028,-3.7418,-3.6765,-3.6112,-3.5473,-3.4835,-3.424,-3.3703,-3.3079,-3.2425,-3.1758,-3.1119,-3.0684,-3.0582,-3.0568,-3.0568,-3.0568,-3.0568,-3.0568,-3.0568,-3.0568,-3.0568,-3.0568,-3.006,-2.9464,-2.884,-2.8202,-2.7563,-2.6924,-2.6924,-2.6881,-2.6779,-2.6779,-2.6779,-2.9075,-2.9075,-2.9075,-2.9075,-2.9075,-2.9075,0.0,0.0,0.0,0.0,0.0,0.0,0.0,0.0,0.0,0.0,0.0,0.0,0.0,0.0,0.0,0.0,0.0,0.0,0.0,0.0,0.0,0.0,0.0,0.0,0.0,0.0,-3.9281,-3.9977,-3.9559,-3.9412,-3.9772,-3.9026,-3.8575,-3.8649,-3.8943,-3.8958,-3.8811,-3.9436,-3.9508,-3.9075,0.0,-4.0231,-4.0615,-4.1225,-4.1672,-4.2061,-4.2317,-4.2253,-4.1997,-4.1997,-4.1591,-4.094,-4.0615,-4.0216,-3.9824,-3.9481,-3.9424,-3.9424,-3.9424,-3.9424,-3.9262,-3.8832,-3.8822,-3.887,-3.8723,-3.8501,-3.8277,-3.8202,-3.8202,-3.8202,-3.8202,-3.7941,-3.7535,-3.6881,-3.6243,-3.559,-3.4965,-3.4603,-3.4196,-3.3558,-3.2919,-3.228,-3.1613,-3.0959,-3.0568,-3.0568,-3.0568,-3.0568,-3.0568,-3.0568,-3.0568,-3.0568,-3.0568,-3.0422,-3.0074,-2.945,-2.8811,-2.8173,-2.7549,-2.7084,-2.6779,-2.6779,-2.6779,-2.6779,-2.6779,-2.6779,-2.9075,-2.9075,-2.9075,0.0,0.0,0.0,0.0,0.0,0.0,0.0,0.0,0.0,0.0,0.0,0.0,0.0,0.0,0.0,0.0,0.0,0.0,0.0,0.0,0.0,0.0,0.0,0.0,0.0,0.0,0.0,0.0,0.0,-3.8509,-3.9047,-3.8789,-3.8809,-3.9082,-3.8495,-3.8281,-3.8427,-3.8723,-3.8738,-3.8516,-3.9017,-3.9147,-3.887,-3.9394,-3.9753,-4.0091,-4.0668,-4.0992,-4.126,-4.1459,-4.1393,-4.126,-4.106,-4.0668,-4.0216,-4.0216,-3.9879,-3.9424,-3.9424,-3.9305,-3.9185,-3.9185,-3.9065,-3.877,-3.8106,-3.8115,-3.834,-3.834,-3.8047,-3.7841,-3.7841,-3.7767,-3.7767,-3.7767,-3.7404,-3.6881,-3.6214,-3.5706,-3.5169,-3.453,-3.4283,-3.3978,-3.334,-3.2701,-3.2048,-3.138,-3.0872,-3.0568,-3.0568,-3.0568,-3.0568,-3.0568,-3.0568,-3.0568,-3.0568,-3.0568,-3.0292,-2.9653,-2.9015,-2.8376,-2.7683,-2.7113,-2.6779,-2.6779,-2.6779,-2.6779,-2.6779,-2.6779,-2.6779,-2.9075,-2.9075,-2.9075,-2.9075,0.0,0.0,0.0,0.0,0.0,0.0,0.0,0.0,0.0,0.0,0.0,0.0,0.0,0.0,0.0,0.0,0.0,0.0,0.0,0.0,0.0,0.0,0.0,0.0,0.0,0.0,0.0,0.0,0.0,-3.7794,-3.7808,-3.7632,-3.7357,-3.7842,-3.8394,-3.9031,-3.8501,-3.8366,-3.8516,-3.8723,-3.8943,-3.9104,-3.9337,-3.9424,-3.9481,-4.0216,-4.0547,-4.06,-4.126,-4.1127,-4.0478,-3.9809,-3.9553,-3.9481,-3.9481,-3.9409,-3.9424,-3.9424,-3.899,-3.8467,-3.8467,-3.8033,-3.7539,-3.7494,-3.7263,-3.7043,-3.6928,-3.6802,-3.6746,-3.6746,-3.6589,-3.6446,-3.6446,-3.6402,-3.6199,-3.5546,-3.547,-3.5169,-3.453,-3.3935,-3.3325,-3.2687,-3.2019,-3.1366,-3.0727,-3.0611,-3.0568,-3.0568,-3.0568,-3.0568,-3.0568,-3.0568,-3.0568,-3.0568,-3.0568,-3.0292,-2.9653,-2.9015,-2.8376,-2.7683,-2.7113,-2.6779,-2.6779,-2.6779,-2.6779,-2.6779,-2.6779,-2.6779,-2.9075,-2.9075,-2.9075,-2.9075,0.0,0.0,0.0,0.0,0.0,0.0,0.0,0.0,0.0,0.0,0.0,0.0,0.0,0.0,0.0,0.0,0.0,0.0,0.0,0.0,0.0,0.0,0.0,0.0,0.0,0.0,0.0,-3.748,-3.7335,-3.708,-3.7167,-3.7132,-3.7089,-3.7035,-3.7281,-3.7901,-3.8209,-3.8516,-3.8723,-3.887,-3.9104,-3.9265,-3.9337,-3.9424,-3.9409,-3.9681,-3.9824,-3.9809,-4.0076,-4.0005,-3.9753,-3.9481,-3.9424,-3.9364,-3.8931,-3.8781,-3.8721,-3.8302,-3.7988,-3.7778,-3.7778,-3.7599,-3.733,-3.6941,-3.6783,-3.6669,-3.6916,-3.6726,-3.6458,-3.6543,-3.6458,-3.6301,-3.6301,-3.5996,-3.5648,-3.547,-3.5038,-3.4574,-3.3935,-3.363,-3.3108,-3.2063,-3.1685,-3.1293,-3.0655,-3.0568,-3.0568,-3.0568,-3.0568,-3.0568,-3.0568,-3.0568,-3.0568,-3.0568,-3.0568,-3.0118,-2.9073,-2.8811,-2.8202,-2.7157,-2.691,-2.6779,-2.6779,-2.6779,-2.6779,-2.6779,-2.6779,-2.6779,-2.9075,-2.9075,-2.9075,0.0,0.0,0.0,0.0,0.0,0.0,0.0,0.0,0.0,0.0,0.0,0.0,0.0,0.0,0.0,0.0,0.0,0.0,0.0,0.0,0.0,0.0,0.0,0.0,0.0,0.0,0.0,0.0,-3.748,-3.7225,-3.6723,-3.6781,-3.6706,-3.6446,-3.6369,-3.6417,-3.6724,-3.7605,-3.8135,-3.8192,-3.8631,-3.8865,-3.911,-3.9334,-3.9424,-3.9424,-3.9424,-3.9424,-3.9424,-3.9424,-3.9424,-3.9394,-3.917,-3.9095,-3.899,-3.8317,-3.8078,-3.8003,-3.7554,-3.7285,-3.712,-3.712,-3.6971,-3.6716,-3.6297,-3.6178,-3.6201,-3.6514,-3.6192,-3.5846,-3.6,-3.586,-3.5706,-3.5706,-3.5372,-3.5009,-3.4874,-3.4414,-3.392,-3.3282,-3.2991,-3.2556,-3.1656,-3.1351,-3.1061,-3.0626,-3.0568,-3.0568,-3.0568,-3.0568,-3.0568,-3.0568,-3.0568,-3.0568,-3.0568,-3.0568,-3.0001,-2.8739,-2.8681,-2.8086,-2.6808,-2.6779,-2.6779,-2.6779,-2.6779,-2.6779,-2.6779,-2.6779,-2.6779,-2.9075,-2.9075,0.0,0.0,0.0,0.0,0.0,0.0,0.0,0.0,0.0,0.0,0.0,0.0,0.0,0.0,0.0,0.0,0.0,0.0,0.0,0.0,0.0,0.0,0.0,0.0,0.0,0.0,0.0,0.0,0.0,-3.748,-3.7225,-3.6723,-3.6662,-3.6196,-3.5169,-3.5955,-3.6149,-3.559,-3.6611,-3.702,-3.6939,-3.7701,-3.818,-3.8422,-3.9095,-3.9394,-3.9394,-3.9394,-3.9394,-3.9394,-3.9394,-3.9394,-3.932,-3.8631,-3.8377,-3.8287,-3.7629,-3.7404,-3.7404,-3.7389,-3.6985,-3.6477,-3.6477,-3.6028,-3.5504,-3.5504,-3.5359,-3.5228,-3.5439,-3.5213,-3.4868,-3.4765,-3.4563,-3.4414,-3.4414,-3.4414,-3.4211,-3.3601,-3.3456,-3.3253,-3.2614,-3.1961,-3.1526,-3.1511,-3.0974,-3.0568,-3.0568,-3.0568,-3.0568,-3.0568,-3.0568,-3.0568,-3.0568,-3.0568,-3.0568,-3.0568,-3.0568,-3.0001,-2.8739,-2.8681,-2.8086,-2.6808,-2.6779,-2.6779,-2.6779,-2.6779,-2.6779,-2.6779,-2.6779,-2.6779,-2.9075,0.0,0.0,0.0,0.0,0.0,0.0,0.0,0.0,0.0,0.0,0.0,0.0,0.0,0.0,0.0,0.0,0.0,0.0,0.0,0.0,0.0,0.0,0.0,0.0,0.0,0.0,0.0,0.0,0.0,0.0,-3.6907,-3.6523,-3.5688,-3.5623,-3.5299,-3.4668,-3.4993,-3.5096,-3.4961,-3.5503,-3.6215,-3.7035,-3.7421,-3.7635,-3.7719,-3.7913,-3.8003,-3.8003,-3.8003,-3.8003,-3.8003,-3.8003,-3.8003,-3.7973,-3.7778,-3.7704,-3.7614,-3.6971,-3.6761,-3.6686,-3.6222,-3.5953,-3.5804,-3.5804,-3.5669,-3.5504,-3.5504,-3.5439,-3.5359,-3.5294,-3.5213,-3.5082,-3.4868,-3.4601,-3.4414,-3.4414,-3.4066,-3.3688,-3.3499,-3.3108,-3.2585,-3.1932,-3.1656,-3.1366,-3.0916,-3.0684,-3.0568,-3.0568,-3.0568,-3.0568,-3.0568,-3.0568,-3.0568,-3.0568,-3.0568,-3.0568,-3.0568,-3.0568,-3.0001,-2.8739,-2.8681,-2.8086,-2.6808,-2.6779,-2.6779,-2.6779,-2.6779,-2.6779,-2.6779,-2.6779,-2.6779,-2.9075,0.0,0.0,0.0,0.0,0.0,0.0,0.0,0.0,0.0,0.0,0.0,0.0,0.0,0.0,0.0,0.0,0.0,0.0,0.0,0.0,0.0,0.0,0.0,0.0,0.0,0.0,0.0,0.0,0.0,0.0,-3.6022,-3.5768,-3.5407,-3.5217,-3.4966,-3.4721,-3.5133,-3.5133,-3.4817,-3.5264,-3.5827,-3.6469,-3.6858,-3.7045,-3.706,-3.73,-3.7404,-3.7404,-3.7404,-3.7404,-3.7404,-3.7404,-3.7404,-3.7375,-3.7135,-3.7045,-3.6956,-3.6312,-3.6088,-3.6028,-3.5639,-3.5504,-3.5504,-3.5504,-3.5504,-3.5504,-3.5504,-3.5504,-3.5439,-3.5359,-3.5294,-3.5148,-3.4935,-3.4668,-3.4476,-3.428,-3.3864,-3.3376,-3.2931,-3.2445,-3.1917,-3.125,-3.1134,-3.1018,-3.0626,-3.0568,-3.0568,-3.0568,-3.0568,-3.0568,-3.0568,-3.0568,-3.0568,-3.0568,-3.0568,-3.0568,-3.0568,-3.0568,-3.0001,-2.8739,-2.8681,-2.8086,-2.6808,-2.6779,-2.6779,-2.6779,-2.6779,-2.6779,-2.6779,-2.6779,-2.6779,0.0,0.0,0.0,0.0,0.0,0.0,0.0,0.0,0.0,0.0,0.0,0.0,0.0,0.0,0.0,0.0,0.0,0.0,0.0,0.0,0.0,0.0,0.0,0.0,0.0,0.0,0.0,0.0,0.0,0.0,0.0,-3.4836,-3.4883,-3.5457,-3.5034,-3.4889,-3.4925,-3.5631,-3.5597,-3.4846,-3.5559,-3.5797,-3.5534,-3.6118,-3.6402,-3.6432,-3.6985,-3.724,-3.724,-3.724,-3.724,-3.724,-3.724,-3.724,-3.7165,-3.6611,-3.6402,-3.6312,-3.5714,-3.5504,-3.5504,-3.5504,-3.5504,-3.5504,-3.5504,-3.5504,-3.5504,-3.5504,-3.5504,-3.5504,-3.5504,-3.5314,-3.5059,-3.4912,-3.4728,-3.4515,-3.403,-3.363,-3.2998,-3.1944,-3.1605,-3.125,-3.0669,-3.0568,-3.0568,-3.0568,-3.0568,-3.0568,-3.0568,-3.0568,-3.0568,-3.0568,-3.0568,-3.0568,-3.0568,-3.0568,-3.0568,-3.0568,-3.0568,-3.0001,-2.8739,-2.8681,-2.8086,-2.6808,-2.6779,-2.6779,-2.6779,-2.6779,-2.6779,-2.6779,-2.6779,-2.6779,0.0,0.0,0.0,0.0,0.0,0.0,0.0,0.0,0.0,0.0,0.0,0.0,0.0,0.0,0.0,0.0,0.0,0.0,0.0,0.0,0.0,0.0,0.0,0.0,0.0,0.0,0.0,0.0,0.0,0.0,-3.4206,-3.4103,-3.4,-3.3726,-3.3617,-3.3443,-3.3098,-3.3839,-3.4218,0.0,-3.4961,-3.5424,-3.5504,-3.5654,-3.5714,-3.5729,-3.5848,-3.5908,-3.5908,-3.5908,-3.5908,-3.5908,-3.5908,-3.5908,-3.5893,-3.5759,-3.5714,-3.5699,-3.5549,-3.5504,-3.5504,-3.5504,-3.5504,-3.5504,-3.5504,-3.5504,-3.5504,-3.5504,-3.5504,-3.5504,-3.5504,-3.51,-3.4633,-3.4618,-3.4377,-3.4024,-3.3696,-3.2864,-3.2061,-3.1631,-3.1119,-3.0727,-3.0597,-3.0568,-3.0568,-3.0568,-3.0568,-3.0568,-3.0568,-3.0568,-3.0568,-3.0568,-3.0568,-3.0568,-3.0568,-3.0568,-3.0568,-3.0568,-3.0568,-3.0001,-2.8739,-2.8681,-2.8086,-2.6808,-2.6779,-2.6779,-2.6779,-2.6779,-2.6779,-2.6779,-2.6779,-2.6779,0.0,0.0,0.0,0.0,0.0,0.0,0.0,0.0,0.0,0.0,0.0,0.0,0.0,0.0,0.0,0.0,0.0,0.0,0.0,0.0,0.0,0.0,0.0,0.0,0.0,0.0,0.0,0.0,0.0,-3.2604,-3.2953,-3.2968,-3.3002,-3.3036,-3.3051,-3.3034,-3.2941,-3.3627,-3.3853,-3.3632,-3.4289,-3.476,-3.5026,-3.5355,-3.5504,-3.5504,-3.5504,-3.5504,-3.5504,-3.5504,-3.5504,-3.5504,-3.5504,-3.5504,-3.5504,-3.5504,-3.5504,-3.5504,-3.5504,-3.5504,-3.5504,-3.5504,-3.5504,-3.5504,-3.5504,-3.5504,-3.5429,-3.51,-3.5011,-3.4936,-3.4622,-3.4277,-3.4008,-3.3868,-3.3695,-3.3431,-3.2996,-3.2269,-3.1562,-3.1256,-3.086,-3.0568,-3.0568,-3.0568,-3.0568,-3.0568,-3.0568,-3.0568,-3.0568,-3.0568,-3.0568,-3.0568,-3.0568,-3.0568,-3.0568,-3.0568,-3.0568,-3.0568,-3.0292,-2.9682,-2.8724,-2.839,-2.7766,-2.6808,-2.6779,-2.6779,-2.6779,-2.6779,-2.6779,-2.6779,-2.6779,-2.6779,0.0,0.0,0.0,0.0,0.0,0.0,0.0,0.0,0.0,0.0,0.0,0.0,0.0,0.0,0.0,0.0,0.0,0.0,0.0,0.0,0.0,0.0,0.0,0.0,0.0,0.0,0.0,0.0,0.0,-3.1423,-3.1641,-3.1641,-3.1944,-3.2624,-3.2639,-3.2735,-3.2958,-3.3547,-3.3548,-3.306,-3.3622,-3.4091,-3.4322,-3.4891,-3.528,-3.5504,-3.5504,-3.5504,-3.5504,-3.5504,-3.5504,-3.5504,-3.5504,-3.5504,-3.5504,-3.5504,-3.5504,-3.5504,-3.5504,-3.5504,-3.5504,-3.5504,-3.5504,-3.5489,-3.537,-3.5325,-3.519,-3.4502,-3.4307,-3.4188,-3.3634,-3.341,-3.3259,-3.3121,-3.2862,-3.2623,-3.2331,-3.1821,-3.1329,-3.0924,-3.0702,-3.0642,-3.0568,-3.0568,-3.0568,-3.0568,-3.0568,-3.0568,-3.0568,-3.0568,-3.0568,-3.0568,-3.0568,-3.0568,-3.0568,-3.0568,-3.0568,-3.0568,-2.9972,-2.9334,-2.8695,-2.8071,-2.7432,-2.6794,-2.6779,-2.6779,-2.6779,-2.6779,-2.6779,-2.6779,-2.6779,-2.6779,0.0,0.0,0.0,0.0,0.0,0.0,0.0,0.0,0.0,0.0,0.0,0.0,0.0,0.0,0.0,0.0,0.0,0.0,0.0,0.0,0.0,0.0,0.0,0.0,0.0,0.0,0.0,0.0,-2.9154,-2.9542,-3.047,-3.0499,-3.0812,-3.1498,-3.1629,-3.1499,-3.113,-3.1883,-3.2346,-3.2436,-3.3169,-3.3606,-3.3634,-3.3724,-3.4397,-3.5504,-3.5504,-3.5504,-3.5504,-3.5504,-3.5504,-3.5504,-3.5504,-3.5504,-3.5504,-3.5504,-3.5504,-3.5504,-3.5504,-3.5504,-3.5504,-3.5504,-3.5504,-3.5385,-3.4801,-3.4607,-3.4472,-3.3814,-3.3619,-3.3604,-3.3514,-3.308,-3.2647,-3.2587,-3.202,-3.1619,-3.1942,-3.1648,-3.1279,-3.1087,-3.0895,-3.0762,-3.0642,-3.0568,-3.0568,-3.0568,-3.0568,-3.0568,-3.0568,-3.0568,-3.0568,-3.0568,-3.0568,-3.0568,-3.0568,-3.0568,-3.0568,-3.0568,-2.9972,-2.9334,-2.8695,-2.8071,-2.7432,-2.6794,-2.6779,-2.6779,-2.6779,-2.6779,-2.6779,-2.6779,-2.6779,-2.6779,0.0,0.0,0.0,0.0,0.0,0.0,0.0,0.0,0.0,0.0,0.0,0.0,0.0,0.0,0.0,0.0,0.0,0.0,0.0,0.0,0.0,0.0,0.0,0.0,0.0,0.0,0.0,0.0,-2.8905,-2.9119,-2.9398,-2.9814,-3.0277,-3.0743,-3.1107,-3.1304,-3.1288,-3.1787,-3.1973,-3.1871,-3.2572,-3.2946,-3.2961,-3.332,-3.3814,-3.4382,-3.4382,-3.4592,-3.4936,-3.4936,-3.516,-3.5504,-3.5504,-3.5504,-3.5504,-3.5504,-3.5504,-3.5504,-3.5504,-3.525,-3.4936,-3.4936,-3.4681,-3.4322,-3.4023,-3.3918,-3.3784,-3.3125,-3.2946,-3.2856,-3.2497,-3.2183,-3.1958,-3.1958,-3.1691,-3.1483,-3.1679,-3.1456,-3.119,-3.1132,-3.1014,-3.0955,-3.0895,-3.0895,-3.0821,-3.0702,-3.0396,-3.0163,-3.0045,-2.9726,-2.9523,-2.9523,-2.9523,-2.9523,-2.9523,-2.9523,-2.9523,-2.9523,-2.8913,-2.8434,-2.8158,-2.7534,-2.707,-2.6794,-2.6779,-2.6779,-2.6779,-2.6779,-2.6779,-2.6779,-2.6779,-2.6779,0.0,0.0,0.0,0.0,0.0,0.0,0.0,0.0,0.0,0.0,0.0,0.0,0.0,0.0,0.0,0.0,0.0,0.0,0.0,0.0,0.0,0.0,0.0,0.0,0.0,0.0,0.0,0.0,-2.8626,-2.8808,-2.8737,-2.9304,-2.9824,-3.0253,-3.0707,-3.1089,-3.13,-3.1525,-3.1498,-3.1228,-3.1943,-3.2273,-3.2273,-3.2766,-3.2991,-3.3021,-3.335,-3.3769,-3.4233,-3.4233,-3.4532,-3.4996,-3.4996,-3.4996,-3.4996,-3.4996,-3.4996,-3.4996,-3.4996,-3.4651,-3.4233,-3.4233,-3.3903,-3.3469,-3.3305,-3.3245,-3.311,-3.2452,-3.2273,-3.2153,-3.1601,-3.1482,-3.1482,-3.1482,-3.1482,-3.1482,-3.1482,-3.1366,-3.119,-3.1132,-3.1132,-3.1132,-3.1087,-3.094,-3.0705,-3.0587,-3.0031,-2.9564,-2.9377,-2.8971,-2.8681,-2.8681,-2.8681,-2.8681,-2.8681,-2.8681,-2.8681,-2.8681,-2.8086,-2.7668,-2.7668,-2.7128,-2.6779,-2.6779,-2.6674,-2.6674,-2.6779,-2.6779,-2.6779,-2.6779,-2.6621,-2.6568,0.0,0.0,0.0,0.0,0.0,0.0,0.0,0.0,0.0,0.0,0.0,0.0,0.0,0.0,0.0,0.0,0.0,0.0,0.0,0.0,0.0,0.0,0.0,0.0,0.0,0.0,0.0,0.0,-2.7505,-2.7912,-2.8858,-2.8955,-2.9331,-3.0186,-3.0351,-3.0345,-3.0166,-3.0458,-3.0567,-3.0567,-3.1255,-3.1526,-3.1526,-3.1556,-3.1571,-3.1646,-3.2961,-3.3514,-3.3544,-3.3544,-3.3559,-3.3604,-3.3604,-3.3604,-3.3604,-3.3604,-3.3604,-3.3604,-3.3604,-3.3574,-3.3544,-3.3544,-3.3529,-3.338,-3.2751,-3.2557,-3.2422,-3.1764,-3.1526,-3.1511,-3.1482,-3.1482,-3.1482,-3.1482,-3.1482,-3.1482,-3.1482,-3.1482,-3.1409,-3.1278,-3.1292,-3.1234,-3.1132,-3.0455,-2.9987,-2.9929,-2.9259,-2.8781,-2.8739,-2.8695,-2.8681,-2.8681,-2.8681,-2.8681,-2.8681,-2.8681,-2.8681,-2.8681,-2.8086,-2.7668,-2.7668,-2.7128,-2.6779,-2.6779,-2.6233,-2.6233,-2.6779,-2.6779,-2.6779,-2.6779,-2.6233,-2.5948,0.0,0.0,0.0,0.0,0.0,0.0,0.0,0.0,0.0,0.0,0.0,0.0,0.0,0.0,0.0,0.0,0.0,0.0,0.0,0.0,0.0,0.0,0.0,0.0,0.0,0.0,0.0,0.0,0.0,-2.7886,-2.8213,-2.8492,-2.8927,-2.9532,-2.9741,-2.9955,-3.021,-3.0334,-3.0204,-2.9924,-3.0163,-3.0492,-3.0866,-3.0866,-3.1106,-3.1497,-3.2033,-3.2482,-3.2871,-3.2871,-3.311,-3.3499,-3.3499,-3.3499,-3.3499,-3.3499,-3.3499,-3.3499,-3.3499,-3.3215,-3.2871,-3.2871,-3.2587,-3.2198,-3.1958,-3.1884,-3.1839,-3.1541,-3.1482,-3.1482,-3.1482,-3.1482,-3.1482,-3.1482,-3.1482,-3.1347,-3.0971,-3.1225,-3.1347,-3.0899,-3.0711,-3.0535,-3.019,-2.974,-2.941,-2.941,-2.8755,-2.8181,-2.8071,-2.7708,-2.7461,-2.7461,-2.7461,-2.7461,-2.7461,-2.7461,-2.7461,-2.7461,-2.7258,-2.7128,-2.7128,-2.6895,-2.6779,-2.6779,-2.6621,-2.6568,-2.6779,-2.6394,-2.6233,-2.6233,-2.6002,-2.5715,0.0,0.0,0.0,0.0,0.0,0.0,0.0,0.0,0.0,0.0,0.0,0.0,0.0,0.0,0.0,0.0,0.0,0.0,0.0,0.0,0.0,0.0,0.0,0.0,0.0,0.0,0.0,0.0,0.0,0.0,-2.8207,-2.8606,-2.9028,-2.9528,-2.9563,-2.9783,-3.0156,-3.0192,-2.9961,-2.9501,-2.9728,-2.9937,-3.0193,-3.0193,-3.0447,-3.0881,-3.1106,-3.1569,-3.2183,-3.2183,-3.2437,-3.2841,-3.2841,-3.2841,-3.2841,-3.2841,-3.2841,-3.2841,-3.2841,-3.2557,-3.2183,-3.2183,-3.1884,-3.1482,-3.1482,-3.1482,-3.1482,-3.1482,-3.1482,-3.1482,-3.1482,-3.1302,-3.118,-3.118,-3.1031,-3.0746,-3.0298,-3.0717,-3.0986,-3.0313,-3.0152,-2.9978,-2.9654,-2.9208,-2.8843,-2.8773,-2.8135,-2.7594,-2.7403,-2.7041,-2.6779,-2.6779,-2.6779,-2.6779,-2.6779,-2.6779,-2.6779,-2.6779,-2.6779,-2.6727,-2.65,-2.6674,-2.6674,-2.65,-2.65,-2.65,-2.65,-2.6111,-2.5893,-2.5893,-2.5495,-2.4978,0.0,0.0,0.0,0.0,0.0,0.0,0.0,0.0,0.0,0.0,0.0,0.0,0.0,0.0,0.0,0.0,0.0,0.0,0.0,0.0,0.0,0.0,0.0,0.0,0.0,0.0,0.0,0.0,-2.7695,-2.8207,-2.8858,-2.9289,-2.9738,-3.0189,-2.9941,-2.9793,-2.9793,-2.994,-2.975,-2.9285,-2.993,-3.0022,-2.9549,-2.9549,-2.9564,-2.9609,-3.0223,-3.0851,-3.1422,-3.1452,-3.1482,-3.1482,-3.1482,-3.1482,-3.1482,-3.1482,-3.1482,-3.1482,-3.1482,-3.1482,-3.1482,-3.1482,-3.1482,-3.1482,-3.1482,-3.1482,-3.1482,-3.1482,-3.1482,-3.1482,-3.1452,-3.0986,-3.0477,-3.0477,-3.0028,-2.9579,-2.9549,-3.0028,-3.0268,-2.9669,-2.9549,-2.9549,-2.952,-2.8875,-2.8337,-2.8231,-2.7504,-2.6951,-2.6832,-2.6779,-2.6779,-2.6779,-2.6779,-2.6779,-2.6779,-2.6779,-2.6779,-2.6779,-2.6779,-2.65,-2.5893,-2.65,-2.65,-2.5893,-2.5893,-2.5893,-2.5893,-2.5893,-2.5839,-2.5839,-2.4637,-2.3721,-2.8622,0.0,0.0,0.0,0.0,0.0,0.0,0.0,0.0,0.0,0.0,0.0,0.0,0.0,0.0,0.0,0.0,0.0,0.0,0.0,0.0,0.0,0.0,0.0,0.0,0.0,0.0,0.0,-2.761,-2.8042,-2.9289,-2.9738,-3.006,-3.0205,-3.0258,-3.0156,-2.9793,-2.9855,-2.9435,-2.8596,-2.8781,-2.885,-2.8876,-2.8876,-2.9131,-2.9594,-2.9759,-2.9939,-3.0193,-3.115,-3.1482,-3.1482,-3.1482,-3.1482,-3.1482,-3.1482,-3.1482,-3.1482,-3.1482,-3.1482,-3.1482,-3.1482,-3.1482,-3.1482,-3.1482,-3.1482,-3.1482,-3.1482,-3.1482,-3.1362,-3.0911,-3.0313,-2.9834,-2.9834,-2.9699,-2.9445,-2.8981,-2.9011,-2.9086,-2.8906,-2.8808,-2.8606,-2.8203,-2.7824,-2.755,-2.7617,-2.7351,-2.7093,-2.6951,-2.6951,-2.6899,-2.6779,-2.6779,-2.6779,-2.6779,-2.6779,-2.6621,-2.6179,-2.6568,-2.65,-2.5893,-2.65,-2.65,-2.5893,-2.5893,-2.5715,-2.5245,-2.5245,-2.5021,-2.458,-2.3767,-2.3245,0.0,0.0,0.0,0.0,0.0,0.0,-2.6832,-2.6779,0.0,0.0,0.0,0.0,0.0,0.0,0.0,0.0,0.0,0.0,0.0,0.0,0.0,0.0,0.0,0.0,0.0,-2.6126,-2.6155,-2.656,-2.6991,-2.7946,-2.9528,-3.0087,-3.0316,-3.0316,-3.0443,-3.0384,-3.0113,-2.9897,-2.9422,-2.8638,-2.84,-2.824,-2.8173,-2.8173,-2.8382,-2.8757,-2.9041,-2.9175,-2.925,-3.0298,-3.0866,-3.1106,-3.1106,-3.1228,-3.1482,-3.1482,-3.1482,-3.1482,-3.1482,-3.1482,-3.1482,-3.1482,-3.1482,-3.1482,-3.1482,-3.133,-3.1106,-3.1106,-3.0911,-3.0627,-3.0223,-2.9654,-2.9175,-2.9175,-2.8951,-2.8637,-2.8248,-2.8173,-2.8173,-2.8173,-2.8121,-2.7935,-2.7599,-2.7386,-2.7284,-2.7248,-2.7144,-2.7093,-2.6951,-2.6899,-2.6899,-2.6779,-2.6779,-2.6779,-2.6779,-2.6779,-2.6674,-2.6286,-2.6621,-2.6447,-2.5536,-2.6111,-2.6002,-2.5147,-2.537,-2.5258,-2.4624,-2.4624,-2.4292,-2.3649,-2.3245,-2.3078,0.0,0.0,0.0,0.0,0.0,0.0,-2.6779,-2.6779,-2.6765,0.0,0.0,0.0,0.0,0.0,0.0,0.0,0.0,0.0,0.0,0.0,0.0,0.0,0.0,0.0,-2.5676,-2.5168,-2.4834,-2.4883,-2.6219,-2.7721,-2.9412,-3.0084,-3.0385,-3.0426,-3.0468,-3.0526,-3.0526,-3.0027,-2.9572,-2.9074,-2.8543,-2.8076,-2.7625,-2.7625,-2.7625,-2.7655,-2.8218,-2.8487,-2.8532,-2.9116,-2.9774,-3.0402,-3.0402,-3.0776,-3.1315,-3.1315,-3.1315,-3.1315,-3.1315,-3.1315,-3.1315,-3.1315,-3.1315,-3.1315,-3.1315,-3.0881,-3.0402,-3.0402,-2.9953,-2.9475,-2.9475,-2.8981,-2.8487,-2.8487,-2.8008,-2.7625,-2.7625,-2.7625,-2.7625,-2.7625,-2.7575,-2.7524,-2.7401,-2.7401,-2.7299,-2.7055,-2.7003,-2.6951,-2.6846,-2.6832,-2.6832,-2.6779,-2.6779,-2.6779,-2.6779,-2.6779,-2.6779,-2.6674,-2.6779,-2.6272,-2.5063,-2.5591,-2.5328,-2.4118,-2.4567,-2.4509,-2.4015,-2.4015,-2.3662,-2.3078,-2.3078,-2.3078,0.0,0.0,0.0,0.0,0.0,0.0,-2.6779,-2.6779,-2.6634,0.0,0.0,0.0,0.0,0.0,0.0,0.0,0.0,0.0,0.0,0.0,0.0,0.0,0.0,0.0,-2.4974,-2.4858,-2.4917,-2.5272,-2.6425,-2.7303,-2.7612,-2.8903,-2.9733,-2.9924,-3.03,-3.0526,-3.0526,-3.0027,-2.9572,-2.9074,-2.8543,-2.8076,-2.7625,-2.7625,-2.7625,-2.7625,-2.776,-2.7784,-2.7835,-2.797,-2.8682,-2.9759,-2.9759,-2.9849,-2.9968,-2.9968,-2.9968,-2.9968,-2.9968,-2.9968,-2.9968,-2.9968,-2.9968,-2.9968,-2.9968,-2.9864,-2.9759,-2.9759,-2.9295,-2.8801,-2.8801,-2.8293,-2.7784,-2.7784,-2.773,-2.7625,-2.7625,-2.7625,-2.7625,-2.7625,-2.7539,-2.7437,-2.7401,-2.7284,-2.7233,-2.7181,-2.7181,-2.7093,-2.7003,-2.6951,-2.6899,-2.6779,-2.6779,-2.6779,-2.6779,-2.6779,-2.6621,-2.6111,-2.65,-2.6272,-2.5063,-2.5591,-2.5328,-2.4118,-2.3708,-2.3424,-2.3305,-2.3305,-2.3245,-2.3078,-2.3078,-2.3078,0.0,0.0,0.0,-2.6129,0.0,0.0,0.0,-2.5821,-2.572,0.0,0.0,0.0,0.0,0.0,0.0,0.0,0.0,0.0,0.0,0.0,0.0,0.0,0.0,0.0,-2.4355,-2.4192,-2.4535,-2.5528,-2.6367,-2.7061,-2.7517,-2.8412,-2.9098,-2.9599,-2.984,-3.0145,-3.0526,-2.9793,-2.9348,-2.9074,-2.8319,-2.7845,-2.7625,-2.7625,-2.7625,-2.7625,-2.7625,-2.7625,-2.7625,-2.7625,-2.803,-2.8622,-2.8951,-2.9295,-2.9579,-2.9579,-2.9579,-2.9579,-2.9579,-2.9579,-2.9579,-2.9579,-2.9579,-2.9579,-2.9579,-2.9355,-2.9026,-2.8682,-2.8338,-2.8083,-2.8083,-2.7829,-2.7625,-2.7625,-2.7625,-2.7625,-2.7625,-2.7625,-2.7625,-2.7625,-2.7488,-2.7401,-2.7401,-2.7284,-2.7181,-2.7093,-2.7041,-2.6989,-2.6899,-2.6899,-2.6899,-2.6779,-2.6779,-2.6779,-2.6779,-2.65,-2.6233,-2.5893,-2.5879,-2.5481,-2.4567,-2.4865,-2.458,-2.3603,-2.3245,-2.3078,-2.3078,-2.3078,-2.3078,-2.3078,-2.3078,-2.3078,0.0,0.0,0.0,0.0,0.0,-2.48,0.0,0.0,0.0,0.0,0.0,0.0,0.0,0.0,0.0,0.0,0.0,0.0,0.0,0.0,0.0,0.0,0.0,0.0,0.0,-2.3555,-2.4006,-2.542,-2.5918,-2.6543,-2.755,-2.7987,-2.8434,-2.9048,-2.9161,-2.9525,-3.017,-2.9319,-2.8902,-2.8935,-2.8042,-2.7625,-2.7625,-2.7625,-2.7625,-2.7625,-2.7625,-2.7625,-2.7625,-2.7625,-2.7625,-2.7619,-2.8188,-2.8727,-2.919,-2.919,-2.919,-2.919,-2.919,-2.919,-2.919,-2.919,-2.919,-2.919,-2.919,-2.8831,-2.8293,-2.7724,-2.7625,-2.7625,-2.7625,-2.7625,-2.7625,-2.7625,-2.7625,-2.7625,-2.7625,-2.7625,-2.7625,-2.7625,-2.7539,-2.7437,-2.7401,-2.7284,-2.713,-2.7003,-2.6899,-2.6832,-2.6779,-2.6779,-2.6779,-2.6779,-2.6779,-2.6727,-2.6621,-2.6179,-2.5839,-2.5715,-2.5245,-2.4738,-2.4118,-2.3956,-2.3662,-2.3138,-2.3078,-2.3078,-2.3078,-2.3078,-2.3078,-2.3078,-2.3078,-2.3078,0.0,0.0,0.0,0.0,-2.482,0.0,0.0,0.0,0.0,0.0,0.0,0.0,0.0,0.0,0.0,0.0,0.0,0.0,0.0,0.0,0.0,0.0,0.0,0.0,0.0,-2.3407,-2.3724,-2.4498,-2.4733,-2.5192,-2.6107,-2.6983,-2.7558,-2.7778,-2.826,-2.8622,-2.8881,-2.8407,-2.8215,-2.84,-2.7845,-2.7625,-2.7625,-2.7625,-2.7625,-2.7625,-2.7625,-2.7625,-2.7625,-2.7625,-2.7625,-2.7625,-2.7664,-2.779,-2.785,-2.785,-2.785,-2.785,-2.785,-2.785,-2.785,-2.785,-2.785,-2.785,-2.785,-2.779,-2.773,-2.764,-2.7625,-2.7625,-2.7625,-2.7625,-2.7625,-2.7625,-2.7625,-2.7625,-2.7625,-2.7625,-2.7625,-2.7625,-2.7575,-2.7524,-2.7401,-2.7284,-2.713,-2.7003,-2.7003,-2.6951,-2.6832,-2.6779,-2.6779,-2.6779,-2.6779,-2.6568,-2.6056,-2.5948,-2.566,-2.5133,-2.5021,-2.4738,-2.4118,-2.3543,-2.3198,-2.3078,-2.3078,-2.3078,-2.3078,-2.3078,-2.3078,-2.3078,-2.3078,-2.3078,0.0,0.0,0.0,0.0,0.0,0.0,-2.3746,0.0,-2.3457,0.0,0.0,0.0,0.0,0.0,0.0,0.0,0.0,0.0,0.0,0.0,0.0,0.0,0.0,0.0,0.0,0.0,0.0,0.0,-2.5121,-2.542,-2.6027,-2.6451,-2.6908,-2.7394,-2.7635,-2.7865,-2.8109,-2.8045,-2.7903,-2.7719,-2.7663,-2.7625,-2.7625,-2.7625,-2.7625,-2.7625,-2.7625,-2.7625,-2.7625,-2.7625,-2.7625,-2.7625,-2.7625,-2.7625,-2.7625,-2.7625,-2.7625,-2.7625,-2.7625,-2.7625,-2.7625,-2.7625,-2.7625,-2.7625,-2.7625,-2.7625,-2.7625,-2.7625,-2.7625,-2.7625,-2.7625,-2.7625,-2.7625,-2.7625,-2.7625,-2.7625,-2.7625,-2.7524,-2.7488,-2.7488,-2.7437,-2.7335,-2.7284,-2.7233,-2.713,-2.7003,-2.6951,-2.6846,-2.6779,-2.6779,-2.6779,-2.6779,-2.65,-2.6179,-2.5893,-2.5272,-2.4751,-2.4509,-2.4105,-2.3767,-2.3543,-2.3258,-2.3078,-2.3078,-2.3078,-2.3078,-2.3078,-2.3078,-2.3078,-2.3078,-2.3078,-2.3078,-2.3018,0.0,0.0,0.0,0.0,0.0,0.0,0.0,0.0,0.0,0.0,0.0,0.0,0.0,0.0,0.0,0.0,0.0,0.0,0.0,0.0,0.0,0.0,0.0,0.0,0.0,0.0,-2.54,-2.5368,-2.5556,-2.6168,-2.622,-2.6452,-2.6965,-2.6982,-2.7125,-2.7365,-2.7423,-2.7277,-2.7011,-2.7206,-2.7355,-2.7305,-2.7535,-2.7625,-2.7625,-2.7625,-2.7625,-2.7625,-2.7625,-2.7625,-2.7625,-2.7625,-2.7625,-2.7625,-2.7625,-2.7625,-2.7625,-2.7625,-2.7625,-2.7625,-2.7625,-2.7625,-2.7625,-2.7625,-2.7625,-2.7625,-2.7625,-2.7625,-2.7625,-2.7625,-2.7625,-2.7625,-2.7625,-2.7625,-2.7625,-2.7625,-2.7524,-2.7437,-2.7437,-2.7386,-2.7284,-2.7218,-2.7181,-2.713,-2.7003,-2.6899,-2.6846,-2.6779,-2.6779,-2.6779,-2.6779,-2.6394,-2.6056,-2.5893,-2.509,-2.4465,-2.4118,-2.3662,-2.3305,-2.3138,-2.3078,-2.3078,-2.3078,-2.3078,-2.3078,-2.3078,-2.3078,-2.3078,-2.3078,-2.3078,-2.3078,0.0,0.0,0.0,-2.2888,0.0,0.0,0.0,0.0,-2.1935,0.0,0.0,0.0,0.0,0.0,0.0,0.0,0.0,0.0,0.0,0.0,0.0,0.0,0.0,0.0,0.0,0.0,0.0,-2.5052,-2.4847,-2.5176,-2.6132,-2.622,-2.622,-2.6236,-2.6253,-2.6348,-2.6557,-2.6172,-2.6045,-2.6213,-2.6512,-2.6617,-2.6632,-2.7275,-2.7625,-2.7625,-2.7625,-2.7625,-2.7625,-2.7625,-2.7625,-2.7625,-2.7625,-2.7625,-2.7625,-2.7625,-2.7625,-2.7625,-2.7625,-2.7625,-2.7625,-2.7625,-2.7625,-2.7625,-2.7625,-2.7625,-2.7625,-2.7625,-2.7625,-2.7625,-2.7625,-2.7625,-2.7625,-2.7625,-2.7625,-2.7625,-2.7625,-2.7575,-2.7575,-2.7575,-2.7575,-2.7524,-2.7218,-2.7181,-2.713,-2.7003,-2.7003,-2.6951,-2.6832,-2.6779,-2.6779,-2.6779,-2.6779,-2.65,-2.5948,-2.5839,-2.5328,-2.4176,-2.4073,-2.378,-2.3138,-2.3078,-2.3078,-2.3078,-2.3078,-2.3078,-2.3078,-2.3078,-2.3078,-2.3078,-2.3078,-2.3078,0.0,0.0,-2.2509,-2.2797,0.0,0.0,0.0,0.0,0.0,0.0,0.0,0.0,0.0,0.0,0.0,0.0,0.0,0.0,0.0,0.0,0.0,0.0,0.0,0.0,0.0,0.0,0.0,-2.5052,-2.5176,-2.5519,-2.6168,-2.622,-2.622,-2.622,-2.5901,-2.5648,-2.5449,-2.5477,-2.5367,-2.5168,-2.5661,-2.5944,-2.5959,-2.6617,-2.6916,-2.6946,-2.738,-2.7625,-2.7625,-2.7625,-2.7625,-2.7625,-2.7625,-2.7625,-2.7625,-2.7625,-2.7625,-2.7625,-2.7625,-2.7625,-2.7625,-2.7625,-2.7625,-2.7625,-2.7625,-2.7625,-2.7625,-2.7625,-2.7625,-2.7625,-2.7625,-2.7625,-2.7625,-2.7625,-2.7625,-2.7625,-2.7625,-2.7524,-2.7488,-2.7488,-2.7335,-2.7196,-2.7093,-2.6989,-2.6937,-2.6884,-2.6899,-2.6727,-2.6286,-2.6233,-2.6233,-2.6233,-2.5879,-2.5536,-2.53,-2.4509,-2.406,-2.4131,-2.3649,-2.3305,-2.3138,-2.3078,-2.3078,-2.3078,-2.3078,-2.3078,-2.3078,-2.3078,-2.3078,-2.3078,-2.3078,-2.3078,-2.2992,-2.2615,0.0,-2.2555,-2.2016,0.0,-2.1589,0.0,0.0,0.0,0.0,0.0,0.0,0.0,0.0,0.0,0.0,0.0,0.0,-2.1921,0.0,0.0,0.0,0.0,0.0,0.0,-2.4282,-2.4918,-2.5176,-2.5572,0.0,0.0,-2.622,-2.622,-2.5721,-2.5389,-2.5137,-2.501,-2.4793,-2.4504,-2.4987,-2.5255,-2.5285,-2.5944,-2.6363,-2.6617,-2.7036,-2.74,-2.7625,-2.7625,-2.7625,-2.7625,-2.7625,-2.7625,-2.7625,-2.7625,-2.7625,-2.7625,-2.7625,-2.7625,-2.7625,-2.7625,-2.7625,-2.7625,-2.7625,-2.7625,-2.7625,-2.7625,-2.7625,-2.7625,-2.7625,-2.7625,-2.7625,-2.7625,-2.7625,-2.7625,-2.7625,-2.7524,-2.7437,-2.7401,-2.7093,-2.6884,-2.7003,-2.6765,-2.6539,-2.65,-2.6674,-2.6568,-2.6002,-2.6111,-2.6111,-2.5893,-2.5536,-2.5245,-2.5007,-2.4279,-2.3884,-2.4073,-2.3708,-2.3365,-2.3138,-2.3078,-2.3078,-2.3078,-2.3078,-2.3078,-2.3078,-2.3078,-2.3078,-2.3078,-2.3078,-2.3078]},{"header":{"parameterUnit":"m.s-1","parameterCategory":1,"la1":30.6,"la2":29.2853,"lo1":-89.7004,"lo2":-87.6739,"dy":0.0162,"dx":0.0183,"nx":112,"ny":82,"refTime":"2023-07-22T06:00:00:Z","depth":0,"parameterNumber":3,"parameterNumberName":"V-component_of_WINDS"},"data":[0.0,0.0,0.0,0.0,0.0,0.0,0.0,0.0,0.0,0.0,0.0,0.0,0.0,0.0,0.0,0.0,0.0,0.0,0.0,0.0,0.0,0.0,0.0,0.0,0.0,0.0,0.0,0.0,0.0,0.0,0.0,0.0,0.0,0.0,0.0,0.0,0.0,0.0,0.0,0.0,0.0,0.0,0.0,0.0,0.0,0.0,0.0,0.0,0.0,0.0,0.0,0.0,0.0,0.0,0.0,0.0,0.0,0.0,0.0,0.0,0.0,0.0,0.0,0.0,0.0,0.0,0.0,0.0,0.0,0.0,0.0,0.0,0.0,0.0,0.0,0.0,0.0,0.0,0.0,0.0,0.0,0.0,0.0,0.0,0.0,0.0,0.0,0.0,0.0,0.0,-2.4112,-2.4112,-2.4112,-2.4112,-2.4112,-2.4112,-2.4112,-2.4112,0.0,0.0,0.0,0.0,0.0,0.0,0.0,0.0,0.0,0.0,0.0,0.0,0.0,0.0,0.0,0.0,0.0,0.0,0.0,0.0,0.0,0.0,0.0,0.0,0.0,0.0,0.0,0.0,0.0,0.0,0.0,0.0,0.0,0.0,0.0,0.0,0.0,0.0,0.0,0.0,0.0,0.0,0.0,0.0,0.0,0.0,0.0,0.0,0.0,0.0,0.0,0.0,0.0,0.0,0.0,0.0,0.0,0.0,0.0,0.0,0.0,0.0,0.0,0.0,0.0,0.0,0.0,0.0,0.0,0.0,0.0,0.0,0.0,0.0,0.0,0.0,0.0,0.0,0.0,0.0,0.0,0.0,0.0,0.0,0.0,0.0,0.0,0.0,0.0,0.0,0.0,0.0,0.0,0.0,0.0,0.0,0.0,0.0,0.0,0.0,0.0,0.0,0.0,0.0,-2.4112,-2.4112,-2.4112,-2.4112,-2.4112,-2.4112,-2.4112,-2.4112,0.0,0.0,0.0,0.0,0.0,0.0,0.0,0.0,0.0,0.0,0.0,0.0,0.0,0.0,0.0,0.0,0.0,0.0,0.0,0.0,0.0,0.0,0.0,0.0,0.0,0.0,0.0,0.0,0.0,0.0,0.0,0.0,0.0,0.0,0.0,0.0,0.0,0.0,0.0,0.0,0.0,0.0,0.0,0.0,0.0,0.0,0.0,0.0,0.0,0.0,0.0,0.0,0.0,0.0,0.0,0.0,0.0,0.0,0.0,0.0,0.0,0.0,0.0,0.0,0.0,0.0,0.0,0.0,0.0,0.0,0.0,0.0,0.0,0.0,0.0,0.0,0.0,0.0,0.0,0.0,0.0,0.0,0.0,0.0,0.0,0.0,0.0,0.0,0.0,0.0,0.0,0.0,0.0,0.0,0.0,0.0,0.0,0.0,0.0,0.0,0.0,0.0,0.0,-2.4112,-2.4112,-2.4112,-2.4112,-2.4112,-2.4112,-2.4112,-2.4112,-2.4112,-2.4112,0.0,0.0,0.0,0.0,0.0,0.0,0.0,0.0,0.0,0.0,0.0,0.0,0.0,0.0,0.0,0.0,0.0,0.0,0.0,0.0,0.0,0.0,0.0,0.0,0.0,0.0,0.0,0.0,0.0,0.0,0.0,0.0,0.0,0.0,0.0,0.0,0.0,0.0,0.0,0.0,0.0,0.0,0.0,0.0,0.0,0.0,0.0,0.0,0.0,0.0,0.0,0.0,0.0,0.0,0.0,0.0,0.0,0.0,0.0,0.0,0.0,0.0,0.0,0.0,0.0,0.0,0.0,0.0,0.0,0.0,0.0,0.0,0.0,0.0,0.0,0.0,0.0,0.0,0.0,0.0,0.0,0.0,0.0,0.0,0.0,0.0,0.0,0.0,0.0,0.0,0.0,0.0,0.0,0.0,0.0,0.0,0.0,0.0,0.0,0.0,0.0,0.0,-2.4112,-2.4112,-2.4112,-2.4112,-2.4112,-2.4112,-2.4112,-2.4112,-2.4112,-2.4112,0.0,0.0,0.0,0.0,0.0,0.0,0.0,0.0,0.0,0.0,0.0,0.0,0.0,0.0,0.0,0.0,0.0,0.0,0.0,0.0,0.0,0.0,0.0,0.0,0.0,0.0,0.0,0.0,0.0,0.0,0.0,0.0,0.0,0.0,0.0,0.0,0.0,0.0,0.0,0.0,0.0,0.0,0.0,0.0,0.0,0.0,0.0,0.0,0.0,0.0,0.0,0.0,0.0,0.0,0.0,0.0,0.0,0.0,0.0,0.0,0.0,0.0,0.0,0.0,0.0,0.0,0.0,0.0,0.0,0.0,0.0,0.0,0.0,0.0,0.0,0.0,0.0,0.0,0.0,0.0,0.0,0.0,0.0,0.0,0.0,0.0,0.0,0.0,0.0,0.0,0.0,0.0,0.0,0.0,0.0,0.0,0.0,0.0,0.0,0.0,0.0,0.0,-2.4112,-2.4112,-2.4112,-2.4112,-2.4112,-2.4112,-2.4112,-2.4112,-2.4112,-2.4112,0.0,0.0,0.0,0.0,0.0,0.0,0.0,0.0,0.0,0.0,0.0,0.0,0.0,0.0,0.0,0.0,0.0,0.0,0.0,0.0,0.0,0.0,0.0,0.0,0.0,0.0,0.0,0.0,0.0,0.0,0.0,0.0,0.0,0.0,0.0,0.0,0.0,0.0,0.0,0.0,0.0,0.0,0.0,0.0,0.0,0.0,0.0,0.0,0.0,0.0,0.0,0.0,0.0,0.0,0.0,0.0,0.0,0.0,0.0,0.0,0.0,0.0,0.0,0.0,0.0,0.0,0.0,0.0,0.0,0.0,0.0,0.0,0.0,0.0,0.0,0.0,0.0,0.0,0.0,0.0,0.0,0.0,0.0,0.0,0.0,0.0,0.0,0.0,0.0,0.0,0.0,0.0,0.0,0.0,0.0,0.0,0.0,0.0,0.0,0.0,0.0,0.0,-2.4112,-2.4112,0.0,-2.4112,-2.4112,-2.4112,-2.4112,-2.4112,-2.4112,0.0,0.0,0.0,0.0,0.0,0.0,0.0,0.0,0.0,0.0,0.0,0.0,0.0,0.0,0.0,0.0,0.0,0.0,0.0,0.0,0.0,0.0,0.0,0.0,0.0,0.0,0.0,0.0,0.0,0.0,0.0,0.0,0.0,0.0,0.0,0.0,0.0,0.0,0.0,0.0,0.0,0.0,0.0,0.0,0.0,0.0,0.0,0.0,0.0,0.0,0.0,0.0,0.0,0.0,0.0,0.0,0.0,0.0,0.0,0.0,0.0,0.0,0.0,0.0,0.0,0.0,0.0,0.0,0.0,0.0,0.0,0.0,0.0,0.0,0.0,0.0,0.0,0.0,0.0,0.0,0.0,0.0,0.0,0.0,0.0,0.0,0.0,0.0,0.0,0.0,0.0,0.0,0.0,0.0,0.0,0.0,0.0,0.0,0.0,0.0,0.0,0.0,-2.4112,-2.4112,-2.4112,0.0,-2.4112,-2.4112,-2.4112,-2.4112,-2.4112,-2.4112,0.0,0.0,0.0,0.0,0.0,0.0,0.0,0.0,0.0,0.0,0.0,0.0,0.0,0.0,0.0,0.0,0.0,0.0,0.0,0.0,0.0,0.0,0.0,0.0,0.0,0.0,0.0,0.0,0.0,0.0,0.0,0.0,0.0,0.0,0.0,0.0,0.0,0.0,0.0,0.0,0.0,0.0,0.0,0.0,0.0,0.0,0.0,0.0,0.0,0.0,0.0,0.0,0.0,0.0,0.0,0.0,0.0,0.0,0.0,0.0,0.0,0.0,0.0,0.0,0.0,0.0,0.0,0.0,0.0,0.0,0.0,0.0,0.0,0.0,0.0,0.0,0.0,0.0,0.0,0.0,0.0,0.0,0.0,0.0,0.0,0.0,0.0,0.0,0.0,0.0,0.0,0.0,0.0,0.0,0.0,0.0,0.0,0.0,0.0,0.0,0.0,0.0,-2.4112,-2.4112,-2.4112,-2.4112,-2.4112,-2.4112,-2.4112,-2.4112,-2.4112,0.0,0.0,0.0,0.0,0.0,0.0,0.0,0.0,0.0,0.0,0.0,0.0,0.0,0.0,0.0,0.0,0.0,0.0,0.0,0.0,0.0,0.0,0.0,0.0,0.0,0.0,0.0,0.0,0.0,0.0,0.0,0.0,0.0,0.0,0.0,0.0,0.0,0.0,0.0,0.0,0.0,0.0,0.0,0.0,0.0,0.0,0.0,0.0,0.0,0.0,0.0,0.0,0.0,0.0,0.0,0.0,0.0,0.0,0.0,0.0,0.0,0.0,0.0,0.0,0.0,0.0,0.0,0.0,0.0,0.0,0.0,0.0,0.0,0.0,0.0,0.0,0.0,0.0,0.0,0.0,0.0,0.0,0.0,0.0,0.0,0.0,0.0,0.0,0.0,0.0,0.0,0.0,0.0,0.0,0.0,0.0,0.0,0.0,0.0,0.0,0.0,0.0,0.0,-2.4112,-2.4112,-2.4112,-2.4112,-2.4112,-2.4112,-2.4112,-2.4112,-2.4112,-2.4112,0.0,0.0,0.0,0.0,0.0,0.0,0.0,0.0,0.0,0.0,0.0,0.0,0.0,0.0,0.0,0.0,0.0,0.0,0.0,0.0,0.0,0.0,0.0,0.0,0.0,0.0,0.0,0.0,0.0,0.0,0.0,0.0,0.0,0.0,0.0,0.0,0.0,0.0,0.0,0.0,0.0,0.0,0.0,0.0,0.0,0.0,0.0,0.0,0.0,0.0,0.0,0.0,0.0,0.0,0.0,0.0,0.0,0.0,0.0,0.0,0.0,0.0,0.0,0.0,0.0,0.0,0.0,0.0,0.0,0.0,0.0,0.0,0.0,0.0,0.0,0.0,0.0,0.0,0.0,0.0,0.0,0.0,0.0,0.0,0.0,0.0,0.0,0.0,0.0,0.0,0.0,0.0,0.0,0.0,0.0,0.0,0.0,0.0,0.0,0.0,0.0,0.0,-2.4112,-2.4112,-2.4112,-2.4112,-2.4112,-2.4112,-2.4112,-2.4112,-2.4112,-2.4112,0.0,0.0,0.0,0.0,0.0,0.0,0.0,0.0,0.0,0.0,0.0,0.0,0.0,0.0,0.0,0.0,0.0,0.0,0.0,0.0,0.0,0.0,0.0,0.0,0.0,0.0,0.0,0.0,0.0,0.0,0.0,0.0,0.0,0.0,0.0,0.0,0.0,0.0,0.0,0.0,0.0,0.0,0.0,0.0,0.0,0.0,0.0,0.0,0.0,0.0,0.0,0.0,0.0,0.0,0.0,0.0,0.0,0.0,0.0,0.0,0.0,0.0,0.0,0.0,0.0,0.0,0.0,0.0,0.0,0.0,0.0,0.0,0.0,0.0,0.0,0.0,0.0,0.0,0.0,0.0,0.0,0.0,0.0,0.0,0.0,0.0,0.0,0.0,0.0,0.0,0.0,0.0,0.0,0.0,0.0,0.0,0.0,0.0,0.0,0.0,0.0,0.0,-2.4112,-2.4112,-2.4112,-2.4112,-2.4112,-2.4112,-2.4112,-2.4112,-2.4112,-2.4112,0.0,0.0,0.0,0.0,0.0,0.0,0.0,0.0,0.0,0.0,0.0,0.0,0.0,0.0,0.0,0.0,0.0,0.0,0.0,0.0,0.0,0.0,0.0,0.0,0.0,0.0,0.0,0.0,0.0,0.0,0.0,0.0,0.0,0.0,0.0,0.0,0.0,0.0,0.0,0.0,0.0,0.0,0.0,0.0,0.0,0.0,0.0,0.0,0.0,0.0,0.0,0.0,0.0,0.0,0.0,0.0,0.0,0.0,0.0,0.0,-2.0635,0.0,0.0,0.0,0.0,0.0,0.0,0.0,0.0,0.0,0.0,0.0,0.0,0.0,0.0,0.0,0.0,0.0,0.0,0.0,0.0,0.0,0.0,0.0,0.0,0.0,0.0,0.0,0.0,0.0,0.0,0.0,0.0,0.0,0.0,0.0,0.0,0.0,0.0,0.0,0.0,0.0,-2.4112,-2.4112,-2.4112,-2.4112,-2.4112,-2.4112,-2.4112,-2.4112,-2.4112,-2.4112,-2.4112,0.0,0.0,0.0,0.0,0.0,0.0,0.0,0.0,0.0,0.0,0.0,0.0,0.0,0.0,0.0,0.0,0.0,0.0,0.0,0.0,0.0,0.0,0.0,0.0,0.0,0.0,0.0,0.0,0.0,0.0,0.0,0.0,0.0,0.0,0.0,0.0,0.0,0.0,0.0,0.0,0.0,0.0,0.0,0.0,0.0,0.0,0.0,0.0,0.0,0.0,0.0,0.0,0.0,0.0,0.0,0.0,0.0,0.0,0.0,0.0,-2.0903,0.0,0.0,0.0,0.0,0.0,0.0,0.0,0.0,0.0,0.0,0.0,0.0,0.0,0.0,0.0,0.0,0.0,0.0,0.0,0.0,0.0,0.0,0.0,0.0,0.0,0.0,0.0,0.0,0.0,0.0,0.0,0.0,0.0,0.0,0.0,0.0,0.0,0.0,0.0,0.0,-2.4112,-2.4112,-2.4112,-2.4112,-2.4112,-2.4112,-2.4112,-2.4112,-2.4112,-2.4112,-2.4112,0.0,0.0,0.0,0.0,0.0,0.0,0.0,0.0,0.0,0.0,0.0,0.0,0.0,0.0,0.0,0.0,0.0,0.0,0.0,0.0,0.0,0.0,0.0,0.0,0.0,0.0,0.0,0.0,0.0,0.0,0.0,0.0,0.0,0.0,0.0,0.0,0.0,0.0,0.0,0.0,0.0,0.0,0.0,0.0,0.0,0.0,0.0,0.0,0.0,0.0,0.0,0.0,0.0,-2.1293,-2.1433,-2.1433,-2.1433,-2.1433,-2.1433,-2.1433,-2.1394,-2.1221,0.0,0.0,0.0,0.0,0.0,0.0,0.0,0.0,0.0,0.0,0.0,0.0,0.0,0.0,0.0,0.0,0.0,0.0,0.0,0.0,0.0,0.0,0.0,0.0,0.0,-2.2725,-2.2859,0.0,0.0,0.0,0.0,0.0,0.0,0.0,0.0,0.0,0.0,0.0,0.0,-2.4112,-2.4112,-2.4112,-2.4112,-2.4112,-2.4112,-2.4112,-2.4112,-2.4112,-2.4112,-2.4112,-2.4112,0.0,0.0,0.0,0.0,0.0,0.0,0.0,0.0,0.0,0.0,0.0,0.0,0.0,0.0,0.0,0.0,0.0,0.0,0.0,0.0,0.0,0.0,0.0,0.0,0.0,0.0,0.0,0.0,0.0,0.0,0.0,0.0,-1.6132,-1.6272,0.0,0.0,0.0,0.0,0.0,0.0,0.0,0.0,0.0,0.0,0.0,0.0,0.0,-2.0314,-2.0695,-2.1086,-2.1498,-2.2014,-2.2343,-2.2478,-2.2478,-2.2478,-2.2478,-2.2478,-2.2478,0.0,-2.1221,-2.1221,0.0,0.0,0.0,0.0,0.0,0.0,0.0,0.0,0.0,0.0,0.0,0.0,0.0,0.0,0.0,0.0,0.0,0.0,0.0,0.0,0.0,0.0,-2.2137,-2.3078,-2.3271,-2.345,0.0,-2.3628,-2.345,-2.3995,-2.4054,0.0,0.0,0.0,0.0,0.0,0.0,0.0,-2.4112,-2.4112,-2.4112,-2.4112,-2.4112,-2.4112,-2.4112,-2.4112,-2.4112,-2.4112,-2.4112,-2.4112,-2.4112,-2.4112,0.0,0.0,0.0,0.0,0.0,0.0,0.0,0.0,0.0,0.0,0.0,0.0,0.0,0.0,0.0,0.0,0.0,0.0,0.0,0.0,0.0,0.0,0.0,0.0,0.0,0.0,0.0,0.0,0.0,-1.607,-1.6132,-1.6272,-1.6202,-1.6132,0.0,0.0,0.0,0.0,0.0,0.0,0.0,0.0,0.0,-2.0904,-2.1319,-2.1576,-2.1618,-2.2218,-2.2604,-2.2912,-2.3326,-2.3534,-2.3534,-2.3534,-2.3534,-2.3523,-2.3224,-2.2857,-2.2398,-2.1824,-2.1594,-2.1571,0.0,0.0,0.0,0.0,-2.1221,-2.1221,-2.1221,-2.1221,0.0,-2.1221,0.0,0.0,0.0,0.0,0.0,0.0,0.0,0.0,0.0,0.0,-2.2944,-2.3628,-2.3819,-2.3878,-2.4067,-2.3936,-2.3878,0.0,-2.4112,-2.4112,-2.4112,0.0,0.0,0.0,0.0,-2.4112,-2.4112,-2.4112,-2.4112,-2.4112,-2.4112,-2.4112,-2.4112,-2.4112,-2.4112,-2.4112,-2.4112,-2.4112,-2.4112,-2.4112,-2.4112,0.0,0.0,0.0,0.0,0.0,0.0,0.0,0.0,0.0,0.0,0.0,0.0,0.0,0.0,0.0,0.0,0.0,0.0,0.0,0.0,0.0,0.0,0.0,0.0,0.0,0.0,0.0,0.0,-1.6132,-1.6202,-1.6421,-1.6482,-1.6587,0.0,0.0,0.0,0.0,0.0,0.0,-2.0809,-2.1338,-2.1776,-2.2073,-2.2718,-2.2993,-2.292,-2.3495,-2.3818,-2.3956,-2.4407,-2.4579,-2.4579,-2.4579,-2.4579,-2.4568,-2.4189,-2.4028,-2.3853,-2.265,-2.2122,-2.2076,-2.1697,-2.1548,-2.1548,-2.1548,-2.1548,-2.1548,-2.1548,-2.1468,-2.1353,-2.1353,0.0,-2.1411,-2.1411,0.0,0.0,0.0,0.0,-2.2187,-2.2677,-2.3226,-2.3726,-2.4216,-2.4452,-2.4557,-2.4557,-2.4439,-2.4282,0.0,-2.4112,-2.4112,-2.4112,0.0,0.0,0.0,0.0,-2.4112,-2.4112,-2.4112,-2.4112,-2.4112,-2.4112,-2.4112,-2.4112,-2.4112,-2.4112,-2.4112,-2.4112,-2.4112,-2.4112,-2.4112,-2.4112,-2.4112,0.0,0.0,0.0,0.0,0.0,0.0,0.0,0.0,0.0,0.0,0.0,0.0,0.0,0.0,0.0,0.0,0.0,0.0,0.0,0.0,0.0,0.0,0.0,0.0,0.0,0.0,0.0,0.0,0.0,-1.6839,-1.7304,0.0,0.0,0.0,0.0,-2.0579,-2.0398,-2.0773,-2.2034,-2.2236,-2.2633,-2.3256,-2.3867,-2.4338,-2.4723,-2.4832,-2.5096,-2.5601,-2.5624,-2.5635,-2.5635,-2.5635,-2.5635,-2.5635,-2.5612,-2.5601,-2.544,-2.3454,-2.2639,-2.2639,-2.2616,-2.2604,-2.2604,-2.2604,-2.2604,-2.2604,-2.2604,-2.2294,-2.1881,-2.1881,-2.1859,-2.1877,-2.1877,-2.2175,0.0,0.0,-2.2543,-2.2665,-2.3198,-2.3771,-2.4274,-2.4862,-2.5341,-2.5733,-2.5733,-2.5301,-2.4766,0.0,-2.4112,-2.4112,-2.4112,0.0,-2.4112,-2.4112,-2.4112,-2.4112,-2.4112,-2.4112,-2.4112,-2.4112,-2.4112,-2.4112,-2.4112,-2.4112,-2.4112,-2.4112,-2.4112,-2.4112,-2.4112,-2.4112,-2.4112,-2.4112,-2.4112,0.0,0.0,0.0,0.0,0.0,0.0,0.0,0.0,0.0,0.0,0.0,0.0,0.0,0.0,0.0,0.0,0.0,0.0,0.0,0.0,0.0,0.0,0.0,0.0,0.0,0.0,0.0,0.0,-1.7722,-1.8021,0.0,-1.9189,-1.9859,-2.0409,-2.0876,-2.1568,-2.2424,-2.3588,-2.3852,-2.4312,-2.4889,-2.5084,-2.5256,-2.5429,-2.575,-2.6003,-2.6198,-2.6531,-2.6691,-2.6691,-2.6691,-2.6691,-2.6668,-2.6347,-2.6198,-2.6117,-2.5061,-2.443,-2.4051,-2.342,-2.3167,-2.3133,-2.28,-2.2685,-2.2685,-2.2685,-2.2559,-2.2409,-2.2409,-2.2417,-2.2387,-2.2387,-2.2758,-2.3135,-2.2769,-2.3405,-2.418,-2.3978,-2.457,-2.5249,-2.5449,-2.568,-2.5824,-2.5824,-2.5667,-2.5458,-2.5249,-2.4622,-2.4112,-2.4112,-2.4112,-2.4112,-2.4112,-2.4112,-2.4112,-2.4112,-2.4112,-2.4112,-2.4112,-2.4112,-2.4112,-2.4112,-2.4112,-2.4112,-2.4112,-2.4112,-2.4112,-2.4112,-2.4112,-2.4112,-2.4112,-2.4112,-2.4112,0.0,0.0,0.0,0.0,0.0,0.0,0.0,0.0,0.0,0.0,0.0,0.0,0.0,0.0,0.0,0.0,0.0,0.0,0.0,0.0,0.0,0.0,0.0,0.0,0.0,0.0,-1.7432,-1.8547,-1.9282,-2.0053,-2.0751,-2.1656,-2.231,-2.2574,-2.3372,-2.4186,-2.5099,-2.5447,-2.5934,-2.6462,-2.6634,-2.6714,-2.6714,-2.7047,-2.7219,-2.7219,-2.7564,-2.7725,-2.7725,-2.7725,-2.7725,-2.7713,-2.7369,-2.7128,-2.6944,-2.6611,-2.6163,-2.5601,-2.4602,-2.4212,-2.4166,-2.3833,-2.3707,-2.3672,-2.35,-2.3328,-2.3167,-2.2983,-2.2948,-2.2945,-2.2945,-2.3325,-2.3634,-2.3537,-2.4263,-2.4988,-2.4822,-2.5422,-2.6112,-2.6112,-2.6255,-2.6399,-2.6399,-2.6242,-2.6112,-2.6112,-2.5341,-2.4687,-2.4687,-2.4687,-2.4687,-2.4687,-2.453,-2.44,-2.44,-2.4243,-2.4112,-2.4112,-2.4112,-2.4112,-2.4112,-2.4112,-2.4112,-2.4112,-2.4112,-2.4112,-2.4112,-2.4112,-2.4112,-2.4112,-2.4112,-2.4112,-2.4112,0.0,0.0,0.0,0.0,0.0,0.0,0.0,0.0,0.0,0.0,0.0,0.0,0.0,0.0,0.0,0.0,0.0,0.0,0.0,0.0,0.0,0.0,0.0,-1.7081,-1.7853,-1.8647,-1.9301,-2.1197,-2.2633,-2.3128,-2.4213,-2.5187,-2.5716,-2.5773,-2.6003,-2.6508,-2.7001,-2.7495,-2.7989,-2.8459,-2.87,-2.87,-2.87,-2.87,-2.87,-2.87,-2.87,-2.87,-2.87,-2.87,-2.87,-2.87,-2.8436,-2.8,-2.8,-2.7713,-2.7174,-2.614,-2.5739,-2.5739,-2.5716,-2.5716,-2.5647,-2.5119,-2.4636,-2.4166,-2.3672,-2.3433,-2.3487,-2.3475,-2.3797,-2.4325,-2.4895,-2.5102,-2.523,-2.574,-2.6334,-2.6752,-2.6752,-2.7183,-2.7589,-2.7589,-2.7131,-2.6726,-2.6726,-2.6269,-2.5863,-2.5837,-2.5824,-2.5824,-2.5824,-2.5354,0.0,-2.4988,-2.4491,-2.4151,-2.4151,-2.4125,-2.4112,-2.4112,-2.4112,-2.4112,-2.4112,-2.4112,-2.4112,-2.4112,-2.4112,-2.4112,-2.4112,-2.4112,-2.4112,-2.4112,0.0,0.0,0.0,0.0,0.0,0.0,0.0,0.0,0.0,0.0,0.0,0.0,0.0,0.0,0.0,0.0,0.0,0.0,0.0,0.0,0.0,0.0,-1.8081,-1.8214,-1.8349,-1.9314,-2.1776,-2.2327,-2.3035,-2.4382,-2.5506,-2.6176,-2.6357,-2.6976,-2.7575,-2.8057,-2.8218,-2.8356,-2.8494,-2.8632,-2.87,-2.87,-2.87,-2.87,-2.87,-2.87,-2.87,-2.87,-2.87,-2.87,-2.87,-2.87,-2.8632,-2.8505,-2.8505,-2.8425,-2.8161,-2.6795,-2.6255,-2.6209,-2.5842,-2.5716,-2.5693,-2.5543,-2.5406,-2.5268,-2.5142,-2.5067,-2.5164,-2.5571,-2.6142,-2.6586,-2.6825,-2.7475,-2.8045,-2.7754,-2.8148,-2.8569,-2.8569,-2.8686,-2.8804,-2.8804,-2.8333,-2.7915,-2.7915,-2.7458,-2.6791,-2.5968,-2.5824,-2.5824,-2.5824,-2.568,0.0,-2.5589,-2.5092,-2.4726,-2.4726,-2.436,-2.4112,-2.4112,-2.4112,-2.4112,-2.4112,-2.4112,-2.4112,-2.4112,-2.4112,-2.4112,-2.4112,-2.4112,-2.4112,0.0,0.0,0.0,0.0,0.0,0.0,0.0,0.0,0.0,0.0,0.0,0.0,0.0,0.0,0.0,0.0,0.0,0.0,0.0,0.0,0.0,0.0,-1.8159,-1.9065,-2.0108,-2.0183,-2.0886,-2.2892,-2.3946,-2.4875,-2.5916,-2.6816,-2.7435,-2.7481,-2.803,-2.8505,-2.901,-2.9033,-2.9125,-2.9332,-2.9332,-2.9332,-2.9332,-2.9332,-2.9332,-2.9332,-2.9332,-2.9332,-2.9332,-2.9332,-2.9332,0.0,-2.9332,-2.9217,-2.9033,-2.9033,-2.8896,0.0,0.0,0.0,0.0,0.0,-2.6347,-2.6347,-2.6347,-2.6209,-2.6104,-2.6337,-2.6252,-2.6218,-2.6812,-2.7261,-2.757,-2.7865,-2.8388,-2.8905,-2.8821,-2.9048,-2.9274,-2.9274,-2.9274,-2.9274,-2.9274,-2.9,-2.8765,-2.8765,-2.849,0.0,-2.7053,-2.67,-2.6543,-2.6543,-2.6334,-2.6177,-2.6177,-2.568,-2.5236,-2.4988,-2.4674,-2.4374,-2.4138,-2.4112,0.0,0.0,0.0,-2.4112,-2.4112,-2.4112,0.0,0.0,0.0,-2.4112,-2.4112,0.0,0.0,0.0,-2.5723,-2.6451,0.0,0.0,0.0,0.0,0.0,0.0,0.0,0.0,0.0,0.0,0.0,0.0,0.0,0.0,0.0,0.0,-1.9097,-2.0179,-2.2139,-2.277,-2.3186,-2.3559,-2.5765,-2.7227,-2.7392,-2.8241,-2.8792,-2.8792,-2.8838,-2.9079,-2.955,0.0,0.0,0.0,0.0,-3.0216,-3.0216,-3.0216,-3.0216,-3.0216,-3.0216,-3.0216,-3.0216,-3.0216,-3.0216,-3.0216,-3.0216,-2.9975,-2.9573,-2.9573,-2.9263,-2.8746,-2.8253,-2.8057,-2.8,-2.7506,-2.7311,-2.73,-2.7254,0.0,0.0,-2.7254,-2.7156,-2.6904,-2.768,-2.7841,-2.799,-2.8566,-2.8711,-2.8797,-2.9314,-2.947,-2.947,-2.947,-2.947,-2.947,-2.947,-2.9418,-2.9379,-2.9379,-2.9327,-2.9104,-2.8569,-2.8007,-2.7602,-2.7536,-2.7092,-2.6765,-2.6765,-2.6269,-2.572,-2.521,0.0,0.0,-2.4256,-2.4151,-2.4112,-2.4112,-2.4112,-2.4112,-2.4112,-2.4112,-2.4112,-2.4112,-2.4112,-2.4112,-2.4112,-2.4171,-2.4505,-2.5005,-2.6215,-2.7019,0.0,0.0,0.0,0.0,0.0,0.0,0.0,0.0,0.0,0.0,0.0,0.0,0.0,0.0,0.0,-1.9452,-2.122,-2.2294,-2.1879,-2.4553,-2.6428,-2.6419,-2.6952,-2.764,-2.8328,-2.8976,-2.9343,-2.9343,-2.9711,-2.9975,-3.0078,-3.0078,-3.0124,-3.0216,-3.0216,-3.0216,-3.0216,-3.0216,-3.0216,-3.0216,0.0,0.0,-3.0216,-3.0216,-3.0216,-3.0216,-3.0216,-3.017,-3.0078,-3.0078,-2.9791,-2.9297,-2.8769,-2.8563,-2.8505,-2.8012,-2.7839,-2.7782,-2.7369,-2.7162,-2.7163,-2.7865,-2.7953,-2.8095,-2.9172,-2.9568,0.0,-3.0348,-3.0498,-3.0498,-3.066,-3.066,-3.066,-3.066,-3.066,-3.066,-3.066,-3.0294,-2.9967,-2.9967,-2.9601,-2.9248,-2.9131,-2.8608,-2.8059,-2.7589,-2.7432,-2.7366,-2.7366,-2.687,-2.6465,-2.636,-2.5572,-2.4922,-2.4818,-2.4387,-2.4112,-2.4112,-2.4112,-2.4112,-2.4112,-2.4112,-2.4112,-2.4112,-2.4112,-2.4112,-2.4112,-2.462,-2.4892,-2.5005,-2.5687,-2.6336,0.0,0.0,0.0,0.0,0.0,0.0,0.0,0.0,0.0,0.0,0.0,-1.7828,0.0,0.0,-1.9716,-2.1352,-2.2006,-2.29,-2.4305,-2.593,-2.6926,-2.6552,-2.7655,-2.8652,-2.9102,-2.9561,-2.986,-2.986,-3.0078,-3.0216,-3.0216,-3.0216,-3.0216,-3.0216,-3.0216,-3.0216,-3.0216,-3.0216,-3.0216,-3.0216,-3.0216,-3.0216,-3.0216,-3.0216,-3.0216,-3.0216,-3.0216,-3.0216,-3.0216,-3.0216,-3.0078,-2.9825,-2.9561,-2.9148,-2.8666,-2.8425,-2.8344,-2.8299,-2.8057,-2.7966,-2.8133,-2.9092,-2.9262,-2.9285,-3.0546,-3.0739,-3.0583,-3.0911,-3.0986,-3.0986,-3.0986,-3.0986,-3.0986,-3.0986,-3.0986,-3.0986,-3.0986,-3.0764,-3.0555,-3.0555,-3.0333,-3.0032,-2.9758,-2.9457,-2.8961,-2.8085,-2.7706,-2.7523,-2.7523,-2.7288,-2.6987,-2.6713,-2.6164,-2.5651,-2.5074,-2.4452,-2.4112,-2.4112,-2.4112,-2.4112,-2.4112,-2.4112,-2.4112,-2.4112,-2.4112,-2.4112,-2.4112,-2.439,-2.4677,-2.5005,-2.5522,-2.596,0.0,0.0,0.0,0.0,0.0,0.0,0.0,0.0,-1.8149,-1.8697,-1.8641,-1.8833,-1.9851,-1.9856,-2.0546,-2.2813,-2.2626,-2.3261,-2.6504,-2.7013,-2.6886,-2.6396,-2.8265,-2.9642,-2.9642,-2.9986,-3.0216,-3.0216,-3.0216,-3.0216,-3.0216,-3.0216,-3.0216,-3.0216,-3.0216,-3.0216,-3.0216,-3.0216,-3.0216,-3.0216,-3.0216,-3.0216,-3.0216,-3.0216,-3.0216,-3.0216,-3.0216,-3.0216,-3.0216,-3.0216,-3.0216,-3.0216,-3.0216,-2.9711,-2.8976,-2.8884,-2.885,-2.8838,-2.8735,-2.87,-2.8947,-3.0276,-3.0421,-3.0319,-3.1603,-3.1679,-3.1313,-3.1313,-3.1235,-3.1156,-3.1156,-3.1065,-3.0986,-3.0986,-3.0986,-3.0986,-3.0986,-3.0986,-3.0986,-3.0986,-3.0986,-3.0843,-3.0385,-3.0215,-2.9771,-2.8712,-2.8059,-2.7693,-2.7693,-2.7589,-2.7353,-2.6883,-2.6739,-2.6203,-2.5127,-2.4543,-2.423,-2.4125,-2.4112,-2.4112,-2.4112,-2.4112,-2.4112,-2.4112,-2.4112,-2.4112,-2.4112,-2.4112,-2.4332,-2.4835,-2.5481,-2.5837,-1.614,-1.6874,-1.7981,-1.8104,-1.9061,-2.0063,0.0,0.0,-1.9764,-2.079,-2.0254,-2.0071,-2.1231,-2.1441,-2.1724,-2.276,-2.3927,-2.4844,-2.5307,-2.7118,-2.843,-2.8375,-2.9442,-3.0135,-3.0135,-3.0181,-3.0216,-3.0216,-3.0216,-3.0216,-3.0216,-3.0216,-3.0216,-3.0216,-3.0216,-3.0216,-3.0216,-3.0216,-3.0216,-3.0216,-3.0216,-3.0216,-3.0216,-3.0216,-3.0216,-3.0216,-3.0216,-3.0216,-3.0216,-3.0216,-3.0216,-3.0216,-3.0216,-3.0147,-2.9998,-2.9561,-2.9412,-2.9343,-2.8873,-2.87,-2.8947,-3.0276,-3.0655,-3.0852,-3.2184,-3.2555,-3.2502,-3.2502,-3.2136,-3.1744,-3.1744,-3.1365,-3.0986,-3.0986,-3.0986,-3.0986,-3.0986,-3.0986,-3.0986,-3.0986,-3.0986,-3.096,-3.0895,-3.0464,-2.9915,-2.9274,-2.8673,-2.8281,-2.8281,-2.7837,-2.751,-2.7445,-2.6974,-2.6203,-2.5127,-2.4909,-2.4661,-2.4151,-2.4112,-2.4112,-2.4112,-2.4112,-2.4112,-2.4112,-2.4112,-2.4112,-2.4112,-2.4112,-2.4112,-2.4229,-2.53,-2.6068,-1.7113,-1.8068,0.0,0.0,-2.0451,-2.0958,-2.1215,-2.0682,-2.0323,-2.1061,-2.1052,-2.1209,-2.1942,-2.2282,-2.2806,0.0,-2.4724,-2.558,-2.6973,-2.8025,-2.891,-2.9463,-2.9932,-3.0216,-3.0216,-3.0216,-3.0216,-3.0216,-3.0216,-3.0216,-3.0216,-3.0216,-3.0216,-3.0216,-3.0216,-3.0216,-3.0216,-3.0216,-3.0216,-3.0216,-3.0216,-3.0216,-3.0216,-3.0216,-3.0216,-3.0216,-3.0216,-3.0216,-3.0216,-3.0216,-3.0216,-3.0216,-3.0216,-3.0216,-3.0193,-2.9998,-2.9917,-2.9883,-2.9665,-2.9584,-2.9839,-3.121,-3.1429,-3.1447,-3.2791,-3.2973,-3.2685,-3.2685,-3.2515,-3.2333,-3.2333,-3.1914,-3.1483,-3.1483,-3.1222,-3.0986,-3.0986,-3.0986,-3.0986,-3.0986,-3.0986,-3.0986,-3.0986,-3.079,-3.0555,-3.0307,-2.9196,-2.8386,-2.8386,-2.7876,-2.7523,-2.7523,-2.7013,-2.6478,-2.5994,-2.5354,-2.4857,-2.4622,-2.4295,-2.4112,-2.4112,-2.4112,-2.4112,-2.4112,-2.4112,-2.4112,-2.4112,-2.4112,-2.4287,-2.462,-2.5104,-2.5646,-1.8428,0.0,0.0,-2.135,-2.1659,-2.1789,-2.1899,-2.1447,-2.1127,-2.1528,-2.1864,-2.2147,-2.2401,-2.2926,-2.3664,-2.4651,-2.5119,-2.5979,-2.8006,-2.8527,-2.9095,-3.0125,-3.0216,-3.0216,-3.0216,-3.0216,-3.0216,-3.0216,-3.0216,-3.0216,-3.0216,-3.0216,-3.0216,-3.0216,-3.0216,-3.0216,-3.0216,-3.0216,-3.0216,-3.0216,-3.0216,-3.0216,-3.0216,-3.0216,-3.0216,-3.0216,-3.0216,-3.0216,-3.0216,-3.0216,-3.0216,-3.0216,-3.0216,-3.0216,-3.0216,-3.0216,-3.0216,-3.0216,-3.0216,-3.0216,-3.0385,-3.1865,-3.2056,-3.2017,-3.3385,-3.3509,-3.3156,-3.3156,-3.3051,-3.2947,-3.2947,-3.2502,-3.2045,-3.1798,-3.1522,-3.1182,-3.1013,-3.0986,-3.0986,-3.0986,-3.0986,-3.0986,-3.0986,-3.0986,-3.0986,-3.0986,-2.9771,-2.8804,-2.8647,-2.7994,-2.7523,-2.7523,-2.7157,-2.6844,-2.6687,-2.5916,-2.5363,-2.5048,-2.4583,-2.4282,-2.4125,-2.4112,-2.4112,-2.4112,-2.4112,-2.4112,-2.4112,-2.4112,-2.4345,-2.4778,-2.4892,-2.5216,0.0,0.0,-2.1619,-2.2294,-2.268,-2.3063,-2.3557,-2.2938,-2.2502,-2.2901,-2.3086,-2.3015,-2.287,-2.3663,-2.421,-2.4193,-2.5001,-2.6051,-2.7094,-2.8049,-2.9095,-3.0125,-3.0216,-3.0216,0.0,-3.0216,-3.0216,-3.0216,-3.0216,-3.0216,-3.0216,-3.0216,-3.0216,-3.0216,-3.0216,-3.0216,-3.0216,-3.0216,-3.0216,-3.0216,-3.0216,-3.0216,-3.0216,-3.0216,-3.0216,-3.0216,-3.0216,-3.0216,-3.0216,-3.0216,-3.0216,-3.0216,-3.0216,-3.0216,-3.0216,-3.0216,-3.0216,-3.0216,-3.0216,-3.0216,-3.0385,-3.1865,-3.2302,-3.255,-3.394,-3.4358,-3.4345,-3.4345,-3.3966,-3.3561,-3.3561,-3.3117,-3.2529,-3.198,-3.1823,-3.1666,-3.1104,-3.0986,-3.0986,-3.0986,-3.0986,-3.0986,-3.0986,-3.0986,-3.0986,-3.0986,-3.0477,-2.9876,-2.9327,-2.8242,-2.7523,-2.7523,-2.751,-2.7288,-2.6726,-2.6634,-2.6151,-2.5101,-2.5009,-2.4687,-2.4138,-2.4112,-2.4112,-2.4112,-2.4112,-2.4112,-2.4112,-2.4112,-2.4112,-2.4112,-2.4734,-2.5005,0.0,0.0,-2.2409,-2.4246,-2.4052,-2.3657,-2.4481,-2.3477,-2.2326,-2.2185,-2.2372,-2.2562,-2.2483,-2.2936,-2.3401,-2.3308,-2.4974,-2.638,-2.6744,-2.8506,-2.984,-3.0125,-3.0216,0.0,0.0,0.0,0.0,-3.0216,-3.0216,-3.0216,-3.0216,-3.0216,-3.0216,-3.0216,-3.0216,-3.0216,-3.0216,-3.0216,-3.0216,-3.0216,-3.0216,-3.0216,-3.0216,-3.0216,-3.0216,-3.0216,-3.0216,-3.0216,-3.0216,-3.0216,-3.0216,-3.0216,-3.0216,-3.0216,-3.0216,-3.0216,-3.0216,-3.0216,-3.0216,-3.0216,-3.0385,-3.1865,-3.2302,-3.2562,-3.3966,-3.4397,-3.4397,-3.4397,-3.4267,-3.4123,-3.4123,-3.3705,-3.3247,-3.3051,-3.2411,-3.1707,-3.1588,-3.1248,-3.0986,-3.0986,-3.0986,-3.0986,-3.0986,-3.0986,-3.0986,-3.0986,-3.0503,-2.9784,-2.8804,-2.8333,-2.7941,-2.7562,-2.7523,-2.7458,-2.7262,-2.6896,-2.6517,-2.6125,-2.5393,-2.4883,-2.4687,-2.4321,-2.4112,-2.4112,-2.4112,-2.4112,-2.4112,-2.4112,-2.4112,-2.4112,-2.4287,-2.439,0.0,-2.2961,-2.3934,-2.5925,-2.5319,-2.4365,-2.5052,-2.388,-2.2475,-2.2213,-2.2363,-2.2407,-2.2208,-2.2723,-2.3047,-2.2829,-2.4536,-2.6064,-2.6496,-2.8254,-2.9636,-3.0102,-3.0216,0.0,0.0,0.0,0.0,-3.0216,-3.0216,-3.0216,-3.0216,-3.0216,-3.0216,-3.0216,-3.0216,-3.0216,-3.0216,-3.0216,-3.0216,-3.0216,-3.0216,-3.0216,-3.0216,-3.0216,-3.0216,-3.0216,-3.0216,-3.0216,-3.0216,-3.0216,-3.0216,-3.0216,-3.0216,-3.0216,-3.0216,-3.0216,-3.0216,-3.0216,-3.0216,-3.0216,-3.0385,-3.1865,-3.2302,-3.2562,-3.3966,-3.4397,-3.4397,-3.4397,-3.4397,-3.4397,-3.4397,-3.4136,-3.3835,-3.3639,-3.3012,-3.2346,-3.185,-3.1548,-3.1235,-3.1026,-3.0986,-3.0986,-3.0986,-3.0986,-3.0986,-3.0986,-3.0673,-3.0019,-2.8856,-2.8516,-2.8164,-2.7589,-2.7523,-2.7523,-2.7523,-2.7196,-2.6896,-2.6687,-2.5981,-2.5393,-2.5048,-2.4622,-2.4321,-2.4112,-2.4112,-2.4112,-2.4112,-2.4112,-2.4112,-2.4112,-2.4112,-2.4112,-2.3926,-2.4999,-2.604,-2.7173,-2.6331,-2.5269,-2.5269,-2.42,-2.3086,-2.3066,-2.2775,-2.246,0.0,0.0,-2.3176,-2.2674,-2.3689,-2.5055,-2.6392,-2.7495,-2.8711,0.0,0.0,0.0,0.0,0.0,0.0,-3.0216,0.0,-3.0216,-3.0216,-3.0216,-3.0216,-3.0216,-3.0216,-3.0216,-3.0216,-3.0216,-3.0216,-3.0216,-3.0216,-3.0216,-3.0216,-3.0216,-3.0216,-3.0216,-3.0216,-3.0216,-3.0216,-3.0216,-3.0216,-3.0216,-3.0216,-3.0216,-3.0216,-3.0216,-3.0216,-3.0216,-3.0216,-3.0216,-3.0385,-3.1865,-3.2302,-3.2562,-3.3966,-3.4397,-3.4397,-3.4397,-3.4397,-3.4397,-3.4397,-3.4397,-3.4267,-3.3757,-3.3613,-3.3273,-3.2123,-3.1785,-3.1666,-3.1091,-3.0986,-3.0986,-3.0986,-3.0986,-3.0986,-3.0986,-3.0986,-3.0581,-2.947,-2.8804,-2.8203,-2.7628,-2.7549,-2.7523,-2.7523,-2.7523,-2.7301,-2.6752,-2.6687,-2.619,-2.5105,-2.5061,-2.4713,-2.4178,-2.4138,-2.4112,-2.4112,-2.4112,-2.4112,-2.4112,-2.4112,-2.4112,-2.4129,-2.4625,-2.5358,-2.7385,-2.68,-2.5826,-2.6646,-2.4872,-2.3008,-2.2695,-2.1703,-2.0775,0.0,0.0,0.0,-2.2349,-2.4466,0.0,-2.6573,-2.8099,0.0,0.0,0.0,-3.0216,-3.0216,-3.0216,0.0,0.0,-3.0216,-3.0216,-3.0216,-3.0216,-3.0216,-3.0216,-3.0216,-3.0216,-3.0216,-3.0216,-3.0216,-3.0216,-3.0216,-3.0216,-3.0216,-3.0216,-3.0216,-3.0216,-3.0216,-3.0216,-3.0216,-3.0216,-3.0216,-3.0216,-3.0216,-3.0216,-3.0216,-3.0216,-3.0216,-3.0216,-3.0216,-3.0216,-3.0385,-3.1865,-3.2302,-3.2562,-3.3966,-3.4397,-3.4397,-3.4397,-3.4397,-3.4397,-3.4397,-3.4397,-3.4358,-3.4228,-3.3888,-3.3378,-3.2633,-3.215,-3.1666,-3.1091,-3.0986,-3.0986,-3.0986,-3.0986,-3.0986,-3.0986,-3.0986,-3.0725,-3.0006,-2.9405,-2.8817,-2.8229,-2.7785,-2.7523,-2.7523,-2.7523,-2.7471,-2.7314,-2.6909,-2.6543,-2.6255,-2.5481,-2.4896,-2.4753,-2.4334,-2.4112,-2.4112,-2.4112,-2.4112,-2.4112,-2.4112,-2.4112,-2.4877,-2.5595,-2.647,-2.8298,-2.7899,-2.7019,-2.69,-2.4992,-2.3087,-2.233,-2.0819,0.0,0.0,0.0,0.0,0.0,0.0,0.0,-2.6127,-2.762,-2.8788,0.0,-2.9917,0.0,-3.0216,-3.0216,-3.0216,0.0,-3.0216,-3.0216,-3.0216,-3.0216,-3.0216,-3.0216,-3.0216,-3.0216,-3.0216,-3.0216,-3.0216,-3.0216,-3.0216,-3.0216,-3.0216,-3.0216,-3.0216,-3.0216,0.0,-3.0216,-3.0216,-3.0216,-3.0216,-3.0216,-3.0216,-3.0216,-3.0216,-3.0216,-3.0216,-3.0216,-3.0216,-3.0397,-3.0836,-3.1965,-3.2302,-3.2562,-3.3966,-3.4397,-3.4397,-3.4397,-3.4397,-3.4397,-3.4397,-3.4397,-3.4397,-3.4397,-3.4162,-3.3783,-3.3208,-3.262,-3.1967,-3.1143,-3.1196,-3.1287,-3.1026,-3.0986,-3.0986,-3.0986,-3.0986,-3.0869,-3.0555,-2.9797,-2.9052,-2.8438,-2.7863,-2.7523,-2.7523,-2.7523,-2.7523,-2.7523,-2.7236,-2.6935,-2.6687,-2.6123,-2.5484,-2.5035,-2.4661,-2.436,-2.4112,-2.4112,-2.4112,-2.4112,-2.4112,-2.4112,-2.5973,-2.7115,-2.8363,-2.9238,-2.9102,-2.8271,-2.6551,-2.4798,-2.3091,-2.1851,0.0,0.0,-1.9221,0.0,-1.9716,-2.1009,0.0,-2.3533,-2.5583,-2.6841,-2.7921,-2.9244,-2.9825,-3.0147,-3.0204,-3.0216,-3.0216,-3.0216,-3.0216,-3.0216,-3.0216,-3.0216,-3.0216,-3.0216,-3.0216,-3.0216,-3.0216,-3.0216,-3.0216,-3.0216,-3.0216,-3.0216,-3.0216,-3.0216,-3.0216,-3.0216,-3.0216,0.0,-3.0216,-3.0216,-3.0216,-3.0216,-3.0216,-3.0216,-3.0216,-3.0216,-3.0216,-3.0216,-3.0216,-3.0668,-3.1383,-3.2052,-3.2401,-3.2661,-3.3966,-3.4397,-3.4397,-3.4397,-3.4397,-3.4397,-3.4397,-3.4397,-3.4397,-3.4397,-3.4397,-3.4241,-3.3705,-3.3117,-3.2398,-3.1405,-3.1561,-3.1679,-3.1182,-3.1039,-3.0986,-3.0986,-3.0986,-3.0986,-3.0986,-2.998,-2.9078,-2.8556,-2.7915,-2.7523,-2.7523,-2.7523,-2.7523,-2.7523,-2.7523,-2.7301,-2.6817,-2.6713,-2.6203,-2.5271,-2.5179,-2.4844,-2.4347,-2.4347,-2.4347,-2.4347,-2.4347,-2.4295,-2.7062,-2.7836,-2.869,-2.9317,-2.9102,-2.8191,-2.6411,-2.4243,0.0,0.0,0.0,-1.7602,-1.7835,-1.8733,0.0,-2.1296,0.0,0.0,0.0,0.0,-2.8117,0.0,0.0,0.0,0.0,0.0,0.0,0.0,0.0,-3.0216,-3.0216,-3.0216,-3.0216,-3.0216,-3.0216,-3.0216,-3.0216,-3.0216,-3.0216,-3.0216,-3.0216,-3.0216,-3.0216,-3.0216,-3.0216,-3.0216,-3.0216,0.0,-3.0216,-3.0216,-3.0216,-3.0216,-3.0216,-3.0216,-3.0216,-3.0216,-3.0216,-3.0216,-3.0216,-3.0668,-3.1383,-3.2052,-3.2673,-3.3386,-3.4147,-3.4397,-3.4397,-3.4397,-3.4397,-3.4397,-3.4397,-3.4397,-3.4397,-3.4397,-3.4397,-3.4241,-3.3705,-3.3117,-3.2633,-3.2437,-3.2097,-3.181,-3.1718,-3.13,-3.0986,-3.0986,-3.0986,-3.0986,-3.0986,-2.998,-2.9248,-2.9144,-2.8164,-2.7523,-2.7523,-2.7523,-2.7523,-2.7523,-2.7523,-2.7484,-2.7392,-2.6922,-2.6582,-2.6373,-2.5916,-2.5628,-2.5524,-2.5524,-2.5524,-2.5524,-2.5524,-2.5275,-2.677,-2.7435,-2.8041,-2.8566,-2.8322,-2.7379,-2.5196,0.0,0.0,0.0,0.0,-1.7042,-1.7402,0.0,0.0,0.0,0.0,0.0,0.0,0.0,0.0,0.0,0.0,0.0,0.0,0.0,0.0,0.0,0.0,-3.0216,-3.0216,-3.0216,-3.0216,-3.0216,-3.0216,-3.0216,-3.0216,-3.0216,-3.0216,-3.0216,-3.0216,-3.0216,-3.0216,-3.0216,-3.0216,-3.0216,-3.0216,0.0,-3.0216,-3.0216,-3.0216,-3.0216,-3.0216,-3.0216,-3.0216,-3.0216,-3.0216,-3.0216,-3.0216,-3.0925,-3.1889,-3.2227,-3.276,-3.3569,-3.423,-3.4397,-3.4397,-3.4397,-3.4397,-3.4397,-3.4397,-3.4397,-3.4397,-3.4397,-3.4397,-3.4241,-3.3705,-3.3587,-3.3404,-3.2816,-3.2476,-3.2189,-3.1888,-3.1365,-3.0986,-3.0986,-3.0986,-3.0986,-3.0986,-2.998,-2.9274,-2.9274,-2.8229,-2.7523,-2.7523,-2.7523,-2.7523,-2.7523,-2.7523,-2.7523,-2.7523,-2.7262,-2.6987,-2.6687,-2.6412,-2.6112,-2.5824,-2.5824,-2.5824,-2.5824,-2.5824,-2.568,-2.6538,-2.7117,-2.7456,-2.7763,-2.7273,-2.6192,-2.3903,-2.236,0.0,0.0,-1.7569,-1.6892,-1.7202,0.0,0.0,0.0,0.0,0.0,0.0,0.0,0.0,0.0,0.0,0.0,0.0,0.0,0.0,0.0,0.0,0.0,-3.0216,-3.0216,-3.0216,-3.0216,-3.0216,-3.0216,-3.0216,-3.0216,-3.0216,-3.0216,-3.0216,-3.0216,-3.0216,-3.0216,-3.0216,-3.0216,-3.0216,0.0,0.0,-3.0216,-3.0216,-3.0216,-3.0216,-3.0216,-3.0216,-3.0216,-3.0216,-3.0216,-3.0216,-3.1003,-3.214,-3.2227,-3.2846,-3.3725,-3.423,-3.4397,-3.4397,-3.4397,-3.4397,-3.4397,-3.4397,-3.4397,-3.4397,-3.4397,-3.4397,-3.428,-3.3862,-3.4097,-3.4136,-3.3234,-3.2868,-3.2555,-3.2097,-3.1444,-3.0986,-3.0986,-3.0986,-3.0986,-3.0986,-2.998,-2.9274,-2.9274,-2.8229,-2.7523,-2.7523,-2.7523,-2.7523,-2.7523,-2.7523,-2.7523,-2.7523,-2.7523,-2.7314,-2.687,-2.6857,-2.6634,-2.619,-2.619,-2.619,-2.619,-2.619,-2.6125,-2.7493,-2.7927,-2.7836,-2.7415,-2.6318,-2.4996,-2.3417,0.0,0.0,0.0,-1.7811,-1.7204,-1.6772,-1.6684,0.0,0.0,0.0,0.0,0.0,0.0,0.0,0.0,0.0,0.0,0.0,0.0,0.0,0.0,0.0,0.0,-3.0216,-3.0216,-3.0216,-3.0216,-3.0216,-3.0216,-3.0216,-3.0216,-3.0216,-3.0216,-3.0216,-3.0216,-3.0216,-3.0216,-3.0216,-3.0216,-3.0216,0.0,0.0,-3.0216,-3.0216,-3.0216,-3.0216,-3.0216,-3.0216,-3.0216,-3.0216,-3.0216,-3.0216,-3.0758,-3.1472,-3.1901,-3.3018,-3.4314,-3.4397,-3.4397,-3.4397,-3.4397,-3.4397,-3.4397,-3.4397,-3.4397,-3.4397,-3.4397,-3.4397,-3.4384,-3.4332,-3.4358,-3.4371,-3.4254,-3.3404,-3.2672,-3.262,-3.1705,-3.0986,-3.0986,-3.0986,-3.0986,-3.0986,-2.998,-2.9274,-2.9274,-2.8229,-2.7523,-2.7523,-2.7523,-2.7523,-2.7523,-2.7523,-2.7523,-2.7523,-2.7523,-2.751,-2.7458,-2.7458,-2.7419,-2.7366,-2.7366,-2.7366,-2.7366,-2.7366,-2.7092,-2.6064,-2.6611,-2.6565,-2.637,-2.5461,-2.431,-2.3207,0.0,0.0,-1.9363,-1.8664,-1.8085,-1.756,-1.7354,-1.7436,0.0,0.0,0.0,0.0,0.0,0.0,0.0,0.0,0.0,0.0,0.0,0.0,0.0,0.0,0.0,-3.0216,-3.0216,-3.0216,-3.0216,-3.0216,-3.0216,-3.0216,-3.0216,-3.0216,-3.0216,-3.0216,-3.0216,-3.0216,-3.0216,-3.0216,-3.0216,-3.0216,0.0,0.0,-3.0216,-3.0216,-3.0216,-3.0216,-3.0216,-3.0216,-3.0216,-3.0216,-3.0216,-3.0216,-3.0925,-3.1977,-3.214,-3.3177,-3.4397,-3.4243,-3.4243,-3.4243,-3.4397,-3.4314,-3.4243,-3.4243,-3.4243,-3.4243,-3.4397,-3.4397,-3.4397,-3.4397,-3.4397,-3.4397,-3.4397,-3.347,-3.2685,-3.2685,-3.1744,-3.0986,-3.0986,-3.0986,-3.0986,-3.0986,-2.998,-2.9274,-2.9274,-2.8229,-2.7523,-2.7523,-2.7523,-2.7523,-2.7523,-2.7523,-2.7523,-2.7523,-2.7523,-2.7523,-2.7523,-2.7523,-2.7523,-2.7523,-2.7523,-2.7523,-2.7523,-2.7523,-2.7406,-2.4399,-2.499,-2.5038,-2.5038,-2.4237,-2.3266,0.0,0.0,-2.0628,-1.987,-1.9452,-1.9034,-1.8432,-1.8037,-1.7734,0.0,0.0,0.0,0.0,0.0,0.0,0.0,0.0,0.0,0.0,0.0,0.0,0.0,0.0,0.0,0.0,-3.0216,-3.0216,-3.0216,-3.0216,-3.0216,-3.0216,-3.0216,-3.0216,-3.0216,-3.0216,-3.0216,-3.0216,-3.0216,-3.0216,-3.0216,-3.0216,0.0,0.0,-3.0216,-3.0216,-3.0216,-3.0216,-3.0216,-3.0216,-3.0216,-3.0306,-3.0487,-3.0487,-3.127,-3.2302,-3.2488,-3.3189,-3.4063,-3.4076,-3.416,-3.4243,-3.4314,-3.4243,-3.4076,-3.4076,-3.416,-3.4243,-3.4397,-3.4397,-3.4397,-3.4397,-3.4397,-3.4397,-3.4397,-3.347,-3.2685,-3.2685,-3.1744,-3.0986,-3.0986,-3.0986,-3.0934,-3.0764,-2.9876,-2.9209,-2.9039,-2.8124,-2.7523,-2.7523,-2.7523,-2.7523,-2.7523,-2.7523,-2.7523,-2.7523,-2.7523,-2.7523,-2.7523,-2.7523,-2.7523,-2.7523,-2.7523,-2.7523,-2.7523,-2.7523,-2.7445,-2.2933,-2.3245,-2.3395,-2.3395,-2.2436,-2.1589,0.0,0.0,-2.0597,-2.0205,-2.0107,-1.9835,-1.911,-1.8442,-1.7969,-1.7978,0.0,0.0,0.0,0.0,0.0,0.0,0.0,0.0,0.0,0.0,0.0,0.0,0.0,0.0,0.0,-3.0216,-3.0216,-3.0216,-3.0216,-3.0216,-3.0216,-3.0216,-3.0216,-3.0216,-3.0216,-3.0216,-3.0216,-3.0216,-3.0216,0.0,0.0,0.0,0.0,-3.0216,-3.0216,-3.0216,-3.0216,-3.0216,-3.0216,-3.0216,-3.0668,-3.1306,-3.1306,-3.1725,-3.2401,-3.2846,-3.3215,-3.3484,-3.3992,-3.4243,-3.4397,-3.416,-3.4076,-3.4076,-3.4076,-3.4243,-3.4397,-3.4397,-3.4397,-3.4397,-3.4397,-3.4397,-3.4397,-3.4397,-3.347,-3.2685,-3.2685,-3.1744,-3.0986,-3.0986,-3.0986,-3.0777,-3.0215,-2.964,-2.9052,-2.8451,-2.7863,-2.7523,-2.7523,-2.7523,-2.7523,-2.7523,-2.7523,-2.7523,-2.7523,-2.7523,-2.7523,-2.7523,-2.7523,-2.7523,-2.7523,-2.7523,-2.7523,-2.7523,-2.7523,-2.7223,-2.1936,-2.2472,-2.2926,-2.2926,-2.2332,-2.1789,-2.1896,-2.1445,-2.1009,-2.0862,-2.0828,-2.0624,-1.9901,-1.9573,-1.91,-1.8162,0.0,0.0,0.0,0.0,0.0,0.0,0.0,0.0,0.0,0.0,0.0,0.0,0.0,0.0,0.0,-3.0216,-3.0216,-3.0216,-3.0216,-3.0216,-3.0216,-3.0216,-3.0216,-3.0216,-3.0216,-3.0216,-3.0216,-3.0216,-3.0216,0.0,0.0,0.0,0.0,-3.0216,-3.0216,-3.0216,-3.0216,-3.0216,-3.0125,-2.9852,-3.0306,-3.0949,-3.0668,-3.146,-3.2612,-3.2957,-3.3386,-3.3907,-3.4243,-3.4243,-3.416,-3.416,-3.4076,-3.416,-3.4243,-3.4243,-3.4243,-3.4397,-3.4397,-3.4397,-3.4397,-3.4397,-3.4397,-3.4397,-3.347,-3.2685,-3.2685,-3.1744,-3.0986,-3.0986,-3.0986,-3.0777,-3.0215,-2.9627,-2.9052,-2.8438,-2.7863,-2.7523,-2.7523,-2.7523,-2.7523,-2.7523,-2.7523,-2.7523,-2.7523,-2.7523,-2.7523,-2.7523,-2.7523,-2.7523,-2.7523,-2.7523,-2.7327,-2.6935,-2.6543,-2.6059,0.0,-2.1138,-2.1766,-2.2033,-2.187,0.0,0.0,-2.1388,-2.1221,-2.1221,-2.1221,-2.1031,-2.0624,-2.0302,-1.9835,-1.89,0.0,0.0,0.0,0.0,0.0,0.0,0.0,0.0,0.0,0.0,0.0,0.0,0.0,0.0,0.0,-3.0216,-3.0216,-3.0216,-3.0487,-3.0487,-3.0216,-3.0487,-3.0487,-3.0216,-3.0216,-3.0216,-3.0216,-3.0216,-3.0216,0.0,0.0,0.0,0.0,-3.0216,-3.0125,-2.9943,-2.9943,-2.9852,-2.9566,-2.929,-3.0011,-3.1003,-3.0644,-3.1701,-3.3129,-3.3202,-3.3556,-3.3979,-3.4063,-3.4147,-3.4076,-3.3992,-3.3992,-3.4076,-3.4147,-3.4147,-3.4243,-3.4397,-3.4397,-3.4397,-3.4397,-3.4397,-3.4397,-3.4397,-3.347,-3.2685,-3.2685,-3.1744,-3.0986,-3.0986,-3.0986,-3.0699,-2.9915,-2.9497,-2.8961,-2.815,-2.7732,-2.7523,-2.7523,-2.7523,-2.7523,-2.7523,-2.7523,-2.7523,-2.7523,-2.7523,-2.7523,-2.7523,-2.7523,-2.7523,-2.7523,-2.7314,-2.6909,-2.6347,-2.5772,-2.5315,0.0,0.0,0.0,0.0,0.0,0.0,0.0,-2.1221,0.0,-2.1221,-2.1221,-2.1221,-2.1221,-2.0635,-2.0161,-2.0096,0.0,0.0,0.0,0.0,0.0,0.0,0.0,0.0,0.0,0.0,0.0,0.0,0.0,0.0,0.0,-3.0216,-3.0216,-3.0216,-3.0937,-3.1026,-3.0306,-3.0949,-3.0949,-3.0306,-3.0306,-3.0306,-3.0306,-3.0216,-3.0216,0.0,0.0,0.0,0.0,-3.0125,-2.9852,-2.9485,-2.9485,-2.9106,-2.8724,-2.8631,-2.9704,-3.1045,-3.1045,-3.2103,-3.3543,-3.3628,-3.3713,-3.3713,-3.3713,-3.3894,-3.3992,-3.381,-3.3894,-3.3992,-3.381,-3.4063,-3.4397,-3.4397,-3.4397,-3.4397,-3.4397,-3.4397,-3.4397,-3.4397,-3.347,-3.2685,-3.2685,-3.1744,-3.0986,-3.0986,-3.0947,-3.0529,-2.9418,-2.9248,-2.8778,-2.7641,-2.7523,-2.7523,-2.7523,-2.7523,-2.7523,-2.7523,-2.7523,-2.7523,-2.7523,-2.7523,-2.7523,-2.7523,-2.7484,-2.7445,-2.7406,-2.6831,-2.6282,-2.5746,-2.5171,-2.4909,-1.9901,0.0,-2.0302,-2.1031,0.0,0.0,0.0,0.0,0.0,0.0,0.0,0.0,0.0,0.0,0.0,0.0,0.0,0.0,0.0,0.0,0.0,0.0,0.0,0.0,0.0,0.0,0.0,0.0,0.0,0.0,0.0,-3.0216,-3.0216,-3.0216,-3.1436,-3.1713,-3.1026,-3.1205,-3.1205,-3.1038,-3.1038,-3.1038,-3.1026,-3.0487,-3.0487,0.0,0.0,0.0,-2.9669,-2.9669,-2.9382,-2.891,-2.891,-2.8817,-2.8631,-2.8269,-2.891,-2.9829,-2.9441,-3.0519,-3.2239,-3.3202,-3.3556,-3.3713,-3.3713,-3.3713,-3.381,-3.3725,-3.3725,-3.381,-3.3992,-3.4076,-3.4243,-3.4397,-3.4397,-3.4397,-3.4397,-3.4397,-3.4397,-3.4397,-3.347,-3.2685,-3.2685,-3.1744,-3.0986,-3.0986,-3.062,-3.0085,-2.9366,-2.8882,-2.832,-2.7602,-2.7523,-2.7523,-2.7523,-2.7523,-2.7523,-2.7523,-2.7523,-2.7523,-2.7523,-2.7523,-2.7523,-2.7523,-2.7105,-2.6661,-2.6229,-2.5641,-2.5363,-2.5158,-2.4583,-2.4321,-2.0096,-2.0096,-2.0302,-2.1031,-2.1221,-2.1221,0.0,0.0,0.0,0.0,0.0,0.0,0.0,0.0,0.0,0.0,0.0,0.0,0.0,0.0,0.0,0.0,0.0,0.0,0.0,0.0,0.0,0.0,0.0,0.0,0.0,-2.9883,-2.9986,-3.0204,-3.127,-3.1637,-3.1306,-3.1913,-3.2077,-3.1725,-3.1472,-3.1472,-3.1725,-3.1015,-3.1104,0.0,0.0,0.0,-2.992,-2.9669,-2.9013,-2.8362,-2.8362,-2.8269,-2.7987,-2.7809,-2.8279,-2.9198,-2.936,-3.0621,-3.2438,-3.3056,-3.3313,-3.3398,-3.3398,-3.3398,-3.3484,-3.3556,-3.3725,-3.3894,-3.3894,-3.4076,-3.4243,-3.4397,-3.4397,-3.4397,-3.4397,-3.4397,-3.4332,-3.4071,-3.33,-3.2607,-3.2346,-3.1575,-3.0986,-3.0986,-3.0503,-2.9928,-2.9353,-2.8752,-2.8164,-2.7589,-2.7523,-2.7523,-2.7523,-2.7523,-2.7523,-2.7523,-2.7523,-2.7523,-2.7523,-2.7523,-2.7406,-2.7144,-2.6569,-2.6007,-2.5432,-2.5118,-2.4831,-2.457,-2.4256,-2.4112,-2.0302,-2.0302,-2.0431,-2.1031,-2.1221,-2.1221,0.0,0.0,0.0,0.0,0.0,0.0,0.0,0.0,0.0,0.0,0.0,0.0,0.0,0.0,0.0,0.0,0.0,0.0,0.0,0.0,0.0,0.0,0.0,0.0,0.0,-2.9378,-2.9596,-3.0089,-3.0819,-3.13,-3.1472,-3.2785,-3.3129,-3.2488,-3.1901,-3.1901,-3.2401,-3.1725,-3.1813,-3.2401,0.0,0.0,-3.0543,-2.9749,-2.8921,-2.8081,-2.7998,-2.7715,-2.7536,-2.7536,-2.8081,-2.9084,-3.0079,-3.1524,-3.2896,-3.3081,-3.3081,-3.3081,-3.3081,-3.3081,-3.3154,-3.3313,-3.3654,-3.3992,-3.381,-3.4063,-3.4397,-3.4397,-3.4397,-3.4397,-3.4397,-3.4397,-3.4241,-3.3692,-3.3104,-3.2515,-3.194,-3.1365,-3.096,-3.0869,-3.0372,-2.9797,-2.9209,-2.8621,-2.8072,-2.7575,-2.7523,-2.7523,-2.7523,-2.7523,-2.7523,-2.7523,-2.7523,-2.7523,-2.7523,-2.7445,-2.7131,-2.6556,-2.5981,-2.5406,-2.4831,-2.4831,-2.4596,-2.4112,-2.4112,-2.4112,-2.1031,-2.1031,-2.1031,-2.1158,-2.1221,-2.1221,0.0,0.0,0.0,0.0,0.0,0.0,0.0,0.0,0.0,0.0,0.0,0.0,0.0,0.0,0.0,0.0,0.0,0.0,0.0,0.0,0.0,0.0,0.0,0.0,0.0,-2.8827,-2.9056,-2.9596,-3.0279,-3.1069,-3.214,-3.2945,-3.33,-3.3215,-3.3142,-3.3129,-3.3215,-3.2339,-3.2251,-3.2859,0.0,-3.1282,-3.0812,-2.984,-2.9106,-2.8538,-2.7715,-2.7809,-2.8445,-2.8445,-2.9084,-3.0079,-3.108,-3.1625,-3.1989,-3.2797,-3.3081,-3.3081,-3.3081,-3.3081,-3.3081,-3.3154,-3.3326,-3.3569,-3.3907,-3.4076,-3.416,-3.4397,-3.4397,-3.4397,-3.4397,-3.4397,-3.4241,-3.3692,-3.3104,-3.2515,-3.194,-3.1365,-3.083,-3.0346,-2.9784,-2.9196,-2.8595,-2.802,-2.7628,-2.7536,-2.7523,-2.7523,-2.7523,-2.7523,-2.7523,-2.7523,-2.7523,-2.7523,-2.7523,-2.7066,-2.653,-2.5968,-2.5393,-2.4818,-2.4243,-2.4243,-2.4204,-2.4112,-2.4112,-2.4112,-2.1221,-2.1221,-2.1221,-2.1221,-2.1221,-2.1221,0.0,0.0,0.0,0.0,0.0,0.0,0.0,0.0,0.0,0.0,0.0,0.0,0.0,0.0,0.0,0.0,0.0,0.0,0.0,0.0,0.0,0.0,0.0,0.0,0.0,0.0,-2.854,-2.9045,-3.0355,-3.121,-3.1354,-3.3038,-3.3979,-3.3894,-3.3556,-3.3569,-3.3738,-3.2945,-3.2859,-3.3373,0.0,-3.2001,-3.1448,-3.0644,-3.0,-2.9452,-2.9084,-2.9176,-2.9543,-2.9543,-3.0079,-3.0991,-3.1448,-3.1989,-3.2537,-3.2982,-3.3081,-3.3081,-3.3081,-3.3081,-3.3091,-3.2874,-3.3157,-3.3641,-3.381,-3.4063,-3.4314,-3.4397,-3.4397,-3.4397,-3.4397,-3.4162,-3.3796,-3.3208,-3.2633,-3.2045,-3.1483,-3.1156,-3.079,-3.0215,-2.964,-2.9065,-2.8464,-2.7876,-2.7523,-2.7523,-2.7523,-2.7523,-2.7523,-2.7523,-2.7523,-2.7523,-2.7523,-2.7392,-2.7079,-2.6517,-2.5942,-2.5367,-2.4805,-2.4387,-2.4112,-2.4112,-2.4112,-2.4112,-2.4112,-2.4112,-2.1221,-2.1221,-2.1221,0.0,0.0,0.0,0.0,0.0,0.0,0.0,0.0,0.0,0.0,0.0,0.0,0.0,0.0,0.0,0.0,0.0,0.0,0.0,0.0,0.0,0.0,0.0,0.0,0.0,0.0,0.0,0.0,0.0,-2.8107,-2.8761,-3.0169,-3.087,-3.081,-3.2878,-3.4017,-3.4147,-3.381,-3.3823,-3.4076,-3.3471,-3.3288,-3.3641,-3.3056,-3.2624,-3.2176,-3.1347,-3.089,-3.0531,-3.026,-3.0351,-3.0531,-3.08,-3.1347,-3.1989,-3.1989,-3.2438,-3.3081,-3.3081,-3.298,-3.288,-3.288,-3.278,-3.2676,-3.2402,-3.2842,-3.3328,-3.3328,-3.3662,-3.3923,-3.3923,-3.4005,-3.4005,-3.4005,-3.3679,-3.3208,-3.2607,-3.215,-3.1666,-3.1091,-3.0869,-3.0594,-3.0019,-2.9444,-2.8856,-2.8255,-2.7798,-2.7523,-2.7523,-2.7523,-2.7523,-2.7523,-2.7523,-2.7523,-2.7523,-2.7523,-2.7275,-2.67,-2.6125,-2.555,-2.5035,-2.4413,-2.4112,-2.4112,-2.4112,-2.4112,-2.4112,-2.4112,-2.4112,-2.1221,-2.1221,-2.1221,-2.1221,0.0,0.0,0.0,0.0,0.0,0.0,0.0,0.0,0.0,0.0,0.0,0.0,0.0,0.0,0.0,0.0,0.0,0.0,0.0,0.0,0.0,0.0,0.0,0.0,0.0,0.0,0.0,0.0,0.0,-2.8869,-2.9011,-2.9934,-3.1625,-3.232,-3.2937,-3.3484,-3.4063,-3.4243,-3.4076,-3.381,-3.3556,-3.3398,-3.3154,-3.3081,-3.2982,-3.1989,-3.1536,-3.1436,-3.0531,-3.0711,-3.1625,-3.2525,-3.2896,-3.2982,-3.2982,-3.3068,-3.3081,-3.3081,-3.2717,-3.2277,-3.2277,-3.1913,-3.1499,-3.1461,-3.1825,-3.2201,-3.2243,-3.2417,-3.251,-3.251,-3.2657,-3.2816,-3.2816,-3.2777,-3.2594,-3.2006,-3.1798,-3.1666,-3.1091,-3.0555,-3.0006,-2.9431,-2.883,-2.8242,-2.7667,-2.7562,-2.7523,-2.7523,-2.7523,-2.7523,-2.7523,-2.7523,-2.7523,-2.7523,-2.7523,-2.7275,-2.67,-2.6125,-2.555,-2.5035,-2.4413,-2.4112,-2.4112,-2.4112,-2.4112,-2.4112,-2.4112,-2.4112,-2.1221,-2.1221,-2.1221,-2.1221,0.0,0.0,0.0,0.0,0.0,0.0,0.0,0.0,0.0,0.0,0.0,0.0,0.0,0.0,0.0,0.0,0.0,0.0,0.0,0.0,0.0,0.0,0.0,0.0,0.0,0.0,0.0,-2.7231,-2.7627,-2.8452,-2.9169,-2.9935,-3.0574,-3.1911,-3.2551,-3.2371,-3.3656,-3.4076,-3.381,-3.3641,-3.3398,-3.324,-3.3154,-3.3081,-3.3068,-3.2711,-3.2537,-3.2525,-3.2164,-3.2251,-3.2624,-3.2982,-3.3081,-3.3031,-3.2667,-3.2541,-3.2491,-3.2139,-3.1876,-3.17,-3.17,-3.1549,-3.1323,-3.0997,-3.1002,-3.1318,-3.1809,-3.2207,-3.254,-3.2473,-3.254,-3.2685,-3.2685,-3.2411,-3.2097,-3.1798,-3.1548,-3.113,-3.0555,-3.0281,-2.981,-2.8869,-2.8529,-2.8177,-2.7602,-2.7523,-2.7523,-2.7523,-2.7523,-2.7523,-2.7523,-2.7523,-2.7523,-2.7523,-2.7523,-2.7118,-2.6177,-2.5942,-2.5393,-2.4452,-2.423,-2.4112,-2.4112,-2.4112,-2.4112,-2.4112,-2.4112,-2.4112,-2.1221,-2.1221,-2.1221,0.0,0.0,0.0,0.0,0.0,0.0,0.0,0.0,0.0,0.0,0.0,0.0,0.0,0.0,0.0,0.0,0.0,0.0,0.0,0.0,0.0,0.0,0.0,0.0,0.0,0.0,0.0,0.0,-2.7231,-2.7545,-2.8179,-2.8996,-2.9591,-2.9911,-3.1337,-3.1937,-3.1643,-3.2834,-3.3296,-3.32,-3.314,-3.3047,-3.2817,-3.3006,-3.3081,-3.3081,-3.3081,-3.3081,-3.3081,-3.3081,-3.3081,-3.3056,-3.2867,-3.2805,-3.2717,-3.2152,-3.1951,-3.1888,-3.1512,-3.1286,-3.1148,-3.1148,-3.1022,-3.0809,-3.0457,-3.0357,-3.0511,-3.1048,-3.1601,-3.1993,-3.185,-3.2006,-3.215,-3.215,-3.1849,-3.1522,-3.1263,-3.0986,-3.0542,-2.9967,-2.9706,-2.9314,-2.8503,-2.8229,-2.7968,-2.7575,-2.7523,-2.7523,-2.7523,-2.7523,-2.7523,-2.7523,-2.7523,-2.7523,-2.7523,-2.7523,-2.7013,-2.5876,-2.5824,-2.5288,-2.4138,-2.4112,-2.4112,-2.4112,-2.4112,-2.4112,-2.4112,-2.4112,-2.4112,-2.1221,-2.1221,0.0,0.0,0.0,0.0,0.0,0.0,0.0,0.0,0.0,0.0,0.0,0.0,0.0,0.0,0.0,0.0,0.0,0.0,0.0,0.0,0.0,0.0,0.0,0.0,0.0,0.0,0.0,0.0,0.0,-2.7231,-2.7545,-2.8179,-2.8259,-2.8791,-3.0037,-3.0438,-3.0874,-3.1487,-3.1685,-3.1898,-3.2111,-3.2485,-3.2465,-3.224,-3.2805,-3.3056,-3.3056,-3.3056,-3.3056,-3.3056,-3.3056,-3.3056,-3.2993,-3.2416,-3.2202,-3.2127,-3.1574,-3.1386,-3.1386,-3.1373,-3.1035,-3.0608,-3.0608,-3.0231,-2.9792,-2.9792,-2.9934,-3.0088,-2.9869,-3.0075,-3.0444,-3.0622,-3.0849,-3.0986,-3.0986,-3.0986,-3.0803,-3.0255,-3.0124,-2.9941,-2.9366,-2.8778,-2.8386,-2.8373,-2.7889,-2.7523,-2.7523,-2.7523,-2.7523,-2.7523,-2.7523,-2.7523,-2.7523,-2.7523,-2.7523,-2.7523,-2.7523,-2.7013,-2.5876,-2.5824,-2.5288,-2.4138,-2.4112,-2.4112,-2.4112,-2.4112,-2.4112,-2.4112,-2.4112,-2.4112,-2.1221,0.0,0.0,0.0,0.0,0.0,0.0,0.0,0.0,0.0,0.0,0.0,0.0,0.0,0.0,0.0,0.0,0.0,0.0,0.0,0.0,0.0,0.0,0.0,0.0,0.0,0.0,0.0,0.0,0.0,0.0,-2.7938,-2.8407,-2.9419,-2.9496,-2.9883,-3.0672,-3.0688,-3.0778,-3.0931,-3.0727,-3.1067,-3.1911,-3.182,-3.1719,-3.165,-3.1813,-3.1888,-3.1888,-3.1888,-3.1888,-3.1888,-3.1888,-3.1888,-3.1863,-3.17,-3.1637,-3.1562,-3.1022,-3.0846,-3.0783,-3.0394,-3.0168,-3.0043,-3.0043,-2.993,-2.9792,-2.9792,-2.9869,-2.9934,-3.0011,-3.0075,-3.0228,-3.0444,-3.0748,-3.0986,-3.0986,-3.0673,-3.0333,-3.0163,-2.981,-2.934,-2.8752,-2.8503,-2.8242,-2.7837,-2.7628,-2.7523,-2.7523,-2.7523,-2.7523,-2.7523,-2.7523,-2.7523,-2.7523,-2.7523,-2.7523,-2.7523,-2.7523,-2.7013,-2.5876,-2.5824,-2.5288,-2.4138,-2.4112,-2.4112,-2.4112,-2.4112,-2.4112,-2.4112,-2.4112,-2.4112,-2.1221,0.0,0.0,0.0,0.0,0.0,0.0,0.0,0.0,0.0,0.0,0.0,0.0,0.0,0.0,0.0,0.0,0.0,0.0,0.0,0.0,0.0,0.0,0.0,0.0,0.0,0.0,0.0,0.0,0.0,0.0,-2.7392,-2.7945,-2.8929,-2.916,-2.9732,-3.0583,-3.0139,-3.0139,-3.0533,-2.9985,-3.0196,-3.101,-3.1065,-3.1085,-3.1097,-3.1298,-3.1386,-3.1386,-3.1386,-3.1386,-3.1386,-3.1386,-3.1386,-3.1361,-3.116,-3.1085,-3.1009,-3.047,-3.0281,-3.0231,-2.9905,-2.9792,-2.9792,-2.9792,-2.9792,-2.9792,-2.9792,-2.9792,-2.9869,-2.9934,-3.0011,-3.0152,-3.0368,-3.0672,-3.0771,-3.0462,-3.0225,-2.992,-2.9392,-2.9086,-2.8739,-2.8137,-2.8033,-2.7928,-2.7575,-2.7523,-2.7523,-2.7523,-2.7523,-2.7523,-2.7523,-2.7523,-2.7523,-2.7523,-2.7523,-2.7523,-2.7523,-2.7523,-2.7013,-2.5876,-2.5824,-2.5288,-2.4138,-2.4112,-2.4112,-2.4112,-2.4112,-2.4112,-2.4112,-2.4112,-2.4112,0.0,0.0,0.0,0.0,0.0,0.0,0.0,0.0,0.0,0.0,0.0,0.0,0.0,0.0,0.0,0.0,0.0,0.0,0.0,0.0,0.0,0.0,0.0,0.0,0.0,0.0,0.0,0.0,0.0,0.0,0.0,-2.637,-2.6888,-2.7454,-2.7992,-2.876,-2.9961,-2.9241,-2.9344,-3.0291,-2.9574,-2.9378,-2.9817,-3.0306,-3.0545,-3.057,-3.1035,-3.1248,-3.1248,-3.1248,-3.1248,-3.1248,-3.1248,-3.1248,-3.1185,-3.0721,-3.0545,-3.047,-2.9967,-2.9792,-2.9792,-2.9792,-2.9792,-2.9792,-2.9792,-2.9792,-2.9792,-2.9792,-2.9792,-2.9792,-2.9792,-2.9896,-3.0075,-3.0215,-3.0456,-3.0403,-2.9712,-2.9753,-2.9581,-2.8386,-2.8209,-2.8137,-2.7615,-2.7523,-2.7523,-2.7523,-2.7523,-2.7523,-2.7523,-2.7523,-2.7523,-2.7523,-2.7523,-2.7523,-2.7523,-2.7523,-2.7523,-2.7523,-2.7523,-2.7013,-2.5876,-2.5824,-2.5288,-2.4138,-2.4112,-2.4112,-2.4112,-2.4112,-2.4112,-2.4112,-2.4112,-2.4112,0.0,0.0,0.0,0.0,0.0,0.0,0.0,0.0,0.0,0.0,0.0,0.0,0.0,0.0,0.0,0.0,0.0,0.0,0.0,0.0,0.0,0.0,0.0,0.0,0.0,0.0,0.0,0.0,0.0,0.0,-2.7087,-2.7249,-2.7533,-2.8174,-2.8333,-2.8689,-2.9411,-2.9545,-2.9615,0.0,-2.9859,-2.9856,-2.9792,-2.9917,-2.9967,-2.998,-3.008,-3.0131,-3.0131,-3.0131,-3.0131,-3.0131,-3.0131,-3.0131,-3.0118,-3.0005,-2.9967,-2.9955,-2.9829,-2.9792,-2.9792,-2.9792,-2.9792,-2.9792,-2.9792,-2.9792,-2.9792,-2.9792,-2.9792,-2.9792,-2.9792,-2.9453,-2.9189,-2.9177,-2.949,-2.9838,-2.9943,-2.9204,-2.849,-2.8356,-2.802,-2.7667,-2.7549,-2.7523,-2.7523,-2.7523,-2.7523,-2.7523,-2.7523,-2.7523,-2.7523,-2.7523,-2.7523,-2.7523,-2.7523,-2.7523,-2.7523,-2.7523,-2.7523,-2.7013,-2.5876,-2.5824,-2.5288,-2.4138,-2.4112,-2.4112,-2.4112,-2.4112,-2.4112,-2.4112,-2.4112,-2.4112,0.0,0.0,0.0,0.0,0.0,0.0,0.0,0.0,0.0,0.0,0.0,0.0,0.0,0.0,0.0,0.0,0.0,0.0,0.0,0.0,0.0,0.0,0.0,0.0,0.0,0.0,0.0,0.0,0.0,-2.6402,-2.6685,-2.6697,-2.6964,-2.7598,-2.761,-2.7965,-2.8762,-2.8594,-2.8659,-2.8979,-2.89,-2.9038,-2.939,-2.9666,-2.9792,-2.9792,-2.9792,-2.9792,-2.9792,-2.9792,-2.9792,-2.9792,-2.9792,-2.9792,-2.9792,-2.9792,-2.9792,-2.9792,-2.9792,-2.9792,-2.9792,-2.9792,-2.9792,-2.9792,-2.9792,-2.9792,-2.9729,-2.9453,-2.9377,-2.9315,-2.9051,-2.8762,-2.8536,-2.8672,-2.8905,-2.9061,-2.8936,-2.855,-2.817,-2.7897,-2.7665,-2.7523,-2.7523,-2.7523,-2.7523,-2.7523,-2.7523,-2.7523,-2.7523,-2.7523,-2.7523,-2.7523,-2.7523,-2.7523,-2.7523,-2.7523,-2.7523,-2.7523,-2.7275,-2.6726,-2.5863,-2.5563,-2.5001,-2.4138,-2.4112,-2.4112,-2.4112,-2.4112,-2.4112,-2.4112,-2.4112,-2.4112,0.0,0.0,0.0,0.0,0.0,0.0,0.0,0.0,0.0,0.0,0.0,0.0,0.0,0.0,0.0,0.0,0.0,0.0,0.0,0.0,0.0,0.0,0.0,0.0,0.0,0.0,0.0,0.0,0.0,-2.5903,-2.5852,-2.5852,-2.6099,-2.6655,-2.6667,-2.7105,-2.8024,-2.7532,-2.7654,-2.8236,-2.784,-2.7978,-2.88,-2.9277,-2.9603,-2.9792,-2.9792,-2.9792,-2.9792,-2.9792,-2.9792,-2.9792,-2.9792,-2.9792,-2.9792,-2.9792,-2.9792,-2.9792,-2.9792,-2.9792,-2.9792,-2.9792,-2.9792,-2.9779,-2.9679,-2.9641,-2.9528,-2.895,-2.8787,-2.8687,-2.8222,-2.8034,-2.8031,-2.8164,-2.8316,-2.8234,-2.7736,-2.7906,-2.7962,-2.7359,-2.7403,-2.7469,-2.7523,-2.7523,-2.7523,-2.7523,-2.7523,-2.7523,-2.7523,-2.7523,-2.7523,-2.7523,-2.7523,-2.7523,-2.7523,-2.7523,-2.7523,-2.7523,-2.6987,-2.6412,-2.5837,-2.5275,-2.47,-2.4125,-2.4112,-2.4112,-2.4112,-2.4112,-2.4112,-2.4112,-2.4112,-2.4112,0.0,0.0,0.0,0.0,0.0,0.0,0.0,0.0,0.0,0.0,0.0,0.0,0.0,0.0,0.0,0.0,0.0,0.0,0.0,0.0,0.0,0.0,0.0,0.0,0.0,0.0,0.0,0.0,-2.5793,-2.5794,-2.5794,-2.582,-2.6085,-2.6665,-2.654,-2.6784,-2.742,-2.7716,-2.7748,-2.7703,-2.7956,-2.8074,-2.8222,-2.8298,-2.8863,-2.9792,-2.9792,-2.9792,-2.9792,-2.9792,-2.9792,-2.9792,-2.9792,-2.9792,-2.9792,-2.9792,-2.9792,-2.9792,-2.9792,-2.9792,-2.9792,-2.9792,-2.9792,-2.9691,-2.9202,-2.9038,-2.8925,-2.8373,-2.821,-2.8197,-2.8122,-2.7758,-2.7394,-2.7465,-2.7227,-2.7125,-2.7767,-2.7391,-2.6952,-2.7024,-2.7214,-2.7335,-2.7469,-2.7523,-2.7523,-2.7523,-2.7523,-2.7523,-2.7523,-2.7523,-2.7523,-2.7523,-2.7523,-2.7523,-2.7523,-2.7523,-2.7523,-2.7523,-2.6987,-2.6412,-2.5837,-2.5275,-2.47,-2.4125,-2.4112,-2.4112,-2.4112,-2.4112,-2.4112,-2.4112,-2.4112,-2.4112,0.0,0.0,0.0,0.0,0.0,0.0,0.0,0.0,0.0,0.0,0.0,0.0,0.0,0.0,0.0,0.0,0.0,0.0,0.0,0.0,0.0,0.0,0.0,0.0,0.0,0.0,0.0,0.0,-2.5573,-2.5537,-2.5781,-2.5239,-2.4959,-2.5006,-2.5302,-2.5462,-2.545,-2.632,-2.6829,-2.6981,-2.7452,-2.7645,-2.7657,-2.7959,-2.8373,-2.885,-2.885,-2.9026,-2.9315,-2.9315,-2.9503,-2.9792,-2.9792,-2.9792,-2.9792,-2.9792,-2.9792,-2.9792,-2.9792,-2.9578,-2.9315,-2.9315,-2.9101,-2.88,-2.8549,-2.8461,-2.8348,-2.7795,-2.7645,-2.757,-2.7268,-2.7005,-2.6816,-2.6816,-2.671,-2.6653,-2.7056,-2.6985,-2.6875,-2.6943,-2.7079,-2.7146,-2.7214,-2.7214,-2.7268,-2.7403,-2.7129,-2.6921,-2.7053,-2.6765,-2.6582,-2.6582,-2.6582,-2.6582,-2.6582,-2.6582,-2.6582,-2.6582,-2.6033,-2.5602,-2.5354,-2.4792,-2.4374,-2.4125,-2.4112,-2.4112,-2.4112,-2.4112,-2.4112,-2.4112,-2.4112,-2.4112,0.0,0.0,0.0,0.0,0.0,0.0,0.0,0.0,0.0,0.0,0.0,0.0,0.0,0.0,0.0,0.0,0.0,0.0,0.0,0.0,0.0,0.0,0.0,0.0,0.0,0.0,0.0,0.0,-2.4884,-2.4823,-2.5202,-2.448,-2.3937,-2.3743,-2.4207,-2.429,-2.4017,-2.5188,-2.5965,-2.6319,-2.6804,-2.708,-2.708,-2.7494,-2.7682,-2.7708,-2.7984,-2.8335,-2.8725,-2.8725,-2.8976,-2.9365,-2.9365,-2.9365,-2.9365,-2.9365,-2.9365,-2.9365,-2.9365,-2.9076,-2.8725,-2.8725,-2.8448,-2.8084,-2.7946,-2.7896,-2.7783,-2.7231,-2.708,-2.6979,-2.6634,-2.6533,-2.6533,-2.6533,-2.6533,-2.6533,-2.6533,-2.6671,-2.6875,-2.6943,-2.6943,-2.6943,-2.7024,-2.6896,-2.6928,-2.7061,-2.6569,-2.6272,-2.6452,-2.6086,-2.5824,-2.5824,-2.5824,-2.5824,-2.5824,-2.5824,-2.5824,-2.5824,-2.5288,-2.5022,-2.5022,-2.4426,-2.4112,-2.4112,-2.4229,-2.4229,-2.4112,-2.4112,-2.4112,-2.4112,-2.4287,-2.4345,0.0,0.0,0.0,0.0,0.0,0.0,0.0,0.0,0.0,0.0,0.0,0.0,0.0,0.0,0.0,0.0,0.0,0.0,0.0,0.0,0.0,0.0,0.0,0.0,0.0,0.0,0.0,0.0,-2.3492,-2.3525,-2.3578,-2.3552,-2.3646,-2.3796,-2.3713,-2.3815,-2.4103,-2.5108,-2.5649,-2.5649,-2.6226,-2.6571,-2.6571,-2.6596,-2.6609,-2.6672,-2.7657,-2.8122,-2.8147,-2.8147,-2.816,-2.8197,-2.8197,-2.8197,-2.8197,-2.8197,-2.8197,-2.8197,-2.8197,-2.8172,-2.8147,-2.8147,-2.8134,-2.8009,-2.7482,-2.7318,-2.7205,-2.6653,-2.6571,-2.6559,-2.6533,-2.6533,-2.6533,-2.6533,-2.6533,-2.6533,-2.6533,-2.6533,-2.6589,-2.6714,-2.6726,-2.6794,-2.6943,-2.6709,-2.6413,-2.6479,-2.6115,-2.5801,-2.5876,-2.5837,-2.5824,-2.5824,-2.5824,-2.5824,-2.5824,-2.5824,-2.5824,-2.5824,-2.5288,-2.5022,-2.5022,-2.4426,-2.4112,-2.4112,-2.4677,-2.4677,-2.4112,-2.4112,-2.4112,-2.4112,-2.4677,-2.4948,0.0,0.0,0.0,0.0,0.0,0.0,0.0,0.0,0.0,0.0,0.0,0.0,0.0,0.0,0.0,0.0,0.0,0.0,0.0,0.0,0.0,0.0,0.0,0.0,0.0,0.0,0.0,0.0,0.0,-2.2885,-2.2948,-2.2663,-2.2297,-2.1952,-2.2616,-2.3299,-2.3923,-2.4237,-2.4678,-2.5109,-2.531,-2.5586,-2.59,-2.59,-2.6101,-2.6546,-2.6879,-2.7256,-2.7582,-2.7582,-2.7783,-2.8109,-2.8109,-2.8109,-2.8109,-2.8109,-2.8109,-2.8109,-2.8109,-2.7871,-2.7582,-2.7582,-2.7344,-2.7017,-2.6816,-2.6753,-2.6716,-2.6584,-2.6533,-2.6533,-2.6533,-2.6533,-2.6533,-2.6533,-2.6533,-2.642,-2.5988,-2.6201,-2.642,-2.6043,-2.6114,-2.6079,-2.5671,-2.5626,-2.5679,-2.5679,-2.5329,-2.5153,-2.5275,-2.4949,-2.4726,-2.4726,-2.4726,-2.4726,-2.4726,-2.4726,-2.4726,-2.4726,-2.4543,-2.4426,-2.4426,-2.4217,-2.4112,-2.4112,-2.4287,-2.4345,-2.4112,-2.4505,-2.4677,-2.4677,-2.4892,-2.516,0.0,0.0,0.0,0.0,0.0,0.0,0.0,0.0,0.0,0.0,0.0,0.0,0.0,0.0,0.0,0.0,0.0,0.0,0.0,0.0,0.0,0.0,0.0,0.0,0.0,0.0,0.0,0.0,0.0,0.0,-2.2237,-2.1753,-2.1187,-2.0484,-2.138,-2.2039,-2.2519,-2.2959,-2.3513,-2.4211,-2.4397,-2.4788,-2.5335,-2.5335,-2.5548,-2.5912,-2.6101,-2.649,-2.7005,-2.7005,-2.7218,-2.7557,-2.7557,-2.7557,-2.7557,-2.7557,-2.7557,-2.7557,-2.7557,-2.7318,-2.7005,-2.7005,-2.6753,-2.6533,-2.6533,-2.6533,-2.6533,-2.6533,-2.6533,-2.6533,-2.6533,-2.6382,-2.6163,-2.6163,-2.6038,-2.5799,-2.5423,-2.5774,-2.6,-2.5435,-2.5413,-2.5378,-2.4883,-2.4836,-2.4962,-2.5012,-2.4674,-2.452,-2.4674,-2.4347,-2.4112,-2.4112,-2.4112,-2.4112,-2.4112,-2.4112,-2.4112,-2.4112,-2.4112,-2.4171,-2.439,-2.4229,-2.4229,-2.439,-2.439,-2.439,-2.439,-2.4778,-2.5005,-2.5005,-2.5384,-2.5865,0.0,0.0,0.0,0.0,0.0,0.0,0.0,0.0,0.0,0.0,0.0,0.0,0.0,0.0,0.0,0.0,0.0,0.0,0.0,0.0,0.0,0.0,0.0,0.0,0.0,0.0,0.0,0.0,-2.2932,-2.2237,-2.1451,-2.0892,-2.0248,-1.9605,-1.9911,-2.0096,-2.0096,-2.1257,-2.2215,-2.2983,-2.3489,-2.4096,-2.4795,-2.4795,-2.4808,-2.4845,-2.536,-2.5887,-2.6483,-2.6508,-2.6533,-2.6533,-2.6533,-2.6533,-2.6533,-2.6533,-2.6533,-2.6533,-2.6533,-2.6533,-2.6533,-2.6533,-2.6533,-2.6533,-2.6533,-2.6533,-2.6533,-2.6533,-2.6533,-2.6533,-2.6508,-2.6,-2.5573,-2.5573,-2.5197,-2.482,-2.4795,-2.5197,-2.5398,-2.4895,-2.4795,-2.4795,-2.477,-2.4444,-2.4202,-2.4325,-2.412,-2.3949,-2.4054,-2.4112,-2.4112,-2.4112,-2.4112,-2.4112,-2.4112,-2.4112,-2.4112,-2.4112,-2.4112,-2.439,-2.5005,-2.439,-2.439,-2.5005,-2.5005,-2.5005,-2.5005,-2.5005,-2.5061,-2.5061,-2.619,-2.7049,-2.1765,0.0,0.0,0.0,0.0,0.0,0.0,0.0,0.0,0.0,0.0,0.0,0.0,0.0,0.0,0.0,0.0,0.0,0.0,0.0,0.0,0.0,0.0,0.0,0.0,0.0,0.0,0.0,-2.3065,-2.2506,-2.0892,-2.0248,-1.9802,-1.9615,-1.9462,-1.9584,-2.0096,-2.0423,-2.119,-2.2342,-2.2486,-2.3154,-2.423,-2.423,-2.4443,-2.4833,-2.4971,-2.5121,-2.5335,-2.6138,-2.6533,-2.6533,-2.6533,-2.6533,-2.6533,-2.6533,-2.6533,-2.6533,-2.6533,-2.6533,-2.6533,-2.6533,-2.6533,-2.6533,-2.6533,-2.6533,-2.6533,-2.6533,-2.6533,-2.6433,-2.5937,-2.5435,-2.5034,-2.5034,-2.4921,-2.4707,-2.4318,-2.4343,-2.4406,-2.4255,-2.428,-2.4217,-2.3665,-2.3659,-2.3739,-2.3692,-2.3671,-2.376,-2.3949,-2.3949,-2.4008,-2.4112,-2.4112,-2.4112,-2.4112,-2.4112,-2.4287,-2.4734,-2.4345,-2.439,-2.5005,-2.439,-2.439,-2.5005,-2.5005,-2.516,-2.5577,-2.5577,-2.5797,-2.6244,-2.6982,-2.7458,0.0,0.0,0.0,0.0,0.0,0.0,-2.4054,-2.4112,0.0,0.0,0.0,0.0,0.0,0.0,0.0,0.0,0.0,0.0,0.0,0.0,0.0,0.0,0.0,0.0,0.0,-2.3524,-2.314,-2.2584,-2.2648,-2.2031,-2.0484,-1.9726,-1.9407,-1.9407,-1.9208,-1.9264,-1.9649,-1.9977,-2.0602,-2.1678,-2.199,-2.2665,-2.364,-2.364,-2.3816,-2.413,-2.4368,-2.4481,-2.4544,-2.5423,-2.59,-2.6101,-2.6101,-2.6319,-2.6533,-2.6533,-2.6533,-2.6533,-2.6533,-2.6533,-2.6533,-2.6533,-2.6533,-2.6533,-2.6533,-2.6289,-2.6101,-2.6101,-2.5937,-2.5699,-2.536,-2.4883,-2.4481,-2.4481,-2.4293,-2.4029,-2.3703,-2.364,-2.364,-2.364,-2.3701,-2.3649,-2.3261,-2.339,-2.3509,-2.3582,-2.37,-2.376,-2.3949,-2.4008,-2.4008,-2.4112,-2.4112,-2.4112,-2.4112,-2.4112,-2.4229,-2.462,-2.4287,-2.4447,-2.5314,-2.4778,-2.4892,-2.5701,-2.5481,-2.5591,-2.6176,-2.6176,-2.651,-2.7086,-2.7458,-2.7625,0.0,0.0,0.0,0.0,0.0,0.0,-2.4112,-2.4112,-2.4099,0.0,0.0,0.0,0.0,0.0,0.0,0.0,0.0,0.0,0.0,0.0,0.0,0.0,0.0,0.0,-2.3119,-2.2662,-2.2361,-2.2307,-2.1806,-2.1175,-2.0309,-1.9444,-1.9079,-1.9198,-1.9131,-1.9075,-1.9075,-1.9781,-2.042,-2.1123,-2.1803,-2.2433,-2.3078,-2.3078,-2.3078,-2.3103,-2.3678,-2.3904,-2.3941,-2.4431,-2.4983,-2.5511,-2.5511,-2.5824,-2.6276,-2.6276,-2.6276,-2.6276,-2.6276,-2.6276,-2.6276,-2.6276,-2.6276,-2.6276,-2.6276,-2.5912,-2.5511,-2.5511,-2.5134,-2.4732,-2.4732,-2.4318,-2.3904,-2.3904,-2.3502,-2.3078,-2.3078,-2.3078,-2.3078,-2.3078,-2.3138,-2.3198,-2.3403,-2.3403,-2.3522,-2.3832,-2.3891,-2.3949,-2.4067,-2.4054,-2.4054,-2.4112,-2.4112,-2.4112,-2.4112,-2.4112,-2.4112,-2.4229,-2.4112,-2.4607,-2.5728,-2.5258,-2.555,-2.6669,-2.6229,-2.6283,-2.6788,-2.6788,-2.71,-2.7625,-2.7625,-2.7625,0.0,0.0,0.0,0.0,0.0,0.0,-2.4112,-2.4112,-2.3981,0.0,0.0,0.0,0.0,0.0,0.0,0.0,0.0,0.0,0.0,0.0,0.0,0.0,0.0,0.0,-2.2585,-2.2481,-2.2239,-2.1776,-2.0553,-2.0203,-2.1188,-1.9495,-1.8942,-1.9901,-1.9396,-1.9075,-1.9075,-1.9781,-2.042,-2.1123,-2.1803,-2.2433,-2.3078,-2.3078,-2.3078,-2.3078,-2.319,-2.3314,-2.3253,-2.3366,-2.4067,-2.4971,-2.4971,-2.5046,-2.5146,-2.5146,-2.5146,-2.5146,-2.5146,-2.5146,-2.5146,-2.5146,-2.5146,-2.5146,-2.5146,-2.5059,-2.4971,-2.4971,-2.4582,-2.4167,-2.4167,-2.374,-2.3314,-2.3314,-2.3165,-2.3078,-2.3078,-2.3078,-2.3078,-2.3078,-2.321,-2.333,-2.3403,-2.3509,-2.3569,-2.3628,-2.3628,-2.376,-2.3891,-2.3949,-2.4008,-2.4112,-2.4112,-2.4112,-2.4112,-2.4112,-2.4287,-2.4778,-2.439,-2.4607,-2.5728,-2.5258,-2.555,-2.6669,-2.7034,-2.7306,-2.7408,-2.7408,-2.7458,-2.7625,-2.7625,-2.7625,0.0,0.0,0.0,-2.2814,0.0,0.0,0.0,-2.325,-2.3158,0.0,0.0,0.0,0.0,0.0,0.0,0.0,0.0,0.0,0.0,0.0,0.0,0.0,0.0,0.0,-2.193,-2.1497,-2.0955,-2.0397,-1.9333,-1.9036,-1.981,-1.8717,-1.8448,-1.9222,-1.8919,-1.8837,-1.9075,-2.0096,-2.0741,-2.1123,-2.2125,-2.275,-2.3078,-2.3078,-2.3078,-2.3078,-2.3078,-2.3078,-2.3078,-2.3078,-2.3416,-2.4017,-2.4293,-2.4582,-2.482,-2.482,-2.482,-2.482,-2.482,-2.482,-2.482,-2.482,-2.482,-2.482,-2.482,-2.4632,-2.4356,-2.4067,-2.3778,-2.3565,-2.3565,-2.3351,-2.3078,-2.3078,-2.3078,-2.3078,-2.3078,-2.3078,-2.3078,-2.3078,-2.3271,-2.3403,-2.3403,-2.3509,-2.3628,-2.376,-2.3819,-2.3878,-2.4008,-2.4008,-2.4008,-2.4112,-2.4112,-2.4112,-2.4112,-2.439,-2.4677,-2.5005,-2.4991,-2.537,-2.6229,-2.5974,-2.6244,-2.7152,-2.7458,-2.7625,-2.7625,-2.7625,-2.7625,-2.7625,-2.7625,-2.7625,0.0,0.0,0.0,0.0,0.0,-2.2428,0.0,0.0,0.0,0.0,0.0,0.0,0.0,0.0,0.0,0.0,0.0,0.0,0.0,0.0,0.0,0.0,0.0,0.0,0.0,-2.0476,-1.9701,-1.9069,-1.8487,-1.8242,-1.8321,-1.7829,-1.7854,-1.8417,-1.8311,-1.8539,-1.9128,-2.0339,-2.1095,-2.1313,-2.2506,-2.3078,-2.3078,-2.3078,-2.3078,-2.3078,-2.3078,-2.3078,-2.3078,-2.3078,-2.3078,-2.3175,-2.3653,-2.4104,-2.4494,-2.4494,-2.4494,-2.4494,-2.4494,-2.4494,-2.4494,-2.4494,-2.4494,-2.4494,-2.4494,-2.4192,-2.374,-2.3263,-2.3078,-2.3078,-2.3078,-2.3078,-2.3078,-2.3078,-2.3078,-2.3078,-2.3078,-2.3078,-2.3078,-2.3078,-2.321,-2.333,-2.3403,-2.3509,-2.3688,-2.3891,-2.4008,-2.4054,-2.4112,-2.4112,-2.4112,-2.4112,-2.4112,-2.4171,-2.4287,-2.4734,-2.5061,-2.516,-2.5577,-2.6068,-2.6669,-2.6841,-2.71,-2.7575,-2.7625,-2.7625,-2.7625,-2.7625,-2.7625,-2.7625,-2.7625,-2.7625,0.0,0.0,0.0,0.0,-2.2348,0.0,0.0,0.0,0.0,0.0,0.0,0.0,0.0,0.0,0.0,0.0,0.0,0.0,0.0,0.0,0.0,0.0,0.0,0.0,0.0,-2.008,-1.9643,-1.8798,-1.8553,-1.8556,-1.8794,-1.7691,-1.7557,-1.8648,-1.8091,-1.8322,-1.9389,-2.0076,-2.0973,-2.199,-2.275,-2.3078,-2.3078,-2.3078,-2.3078,-2.3078,-2.3078,-2.3078,-2.3078,-2.3078,-2.3078,-2.3078,-2.3213,-2.3215,-2.3265,-2.3265,-2.3265,-2.3265,-2.3265,-2.3265,-2.3265,-2.3265,-2.3265,-2.3265,-2.3265,-2.3215,-2.3165,-2.309,-2.3078,-2.3078,-2.3078,-2.3078,-2.3078,-2.3078,-2.3078,-2.3078,-2.3078,-2.3078,-2.3078,-2.3078,-2.3138,-2.3198,-2.3403,-2.3509,-2.3688,-2.3891,-2.3891,-2.3949,-2.4054,-2.4112,-2.4112,-2.4112,-2.4112,-2.4345,-2.4835,-2.4948,-2.5216,-2.5687,-2.5797,-2.6068,-2.6669,-2.7203,-2.7524,-2.7625,-2.7625,-2.7625,-2.7625,-2.7625,-2.7625,-2.7625,-2.7625,-2.7625,0.0,0.0,0.0,0.0,0.0,0.0,-2.1381,0.0,-2.1495,0.0,0.0,0.0,0.0,0.0,0.0,0.0,0.0,0.0,0.0,0.0,0.0,0.0,0.0,0.0,0.0,0.0,0.0,0.0,-1.7754,-1.7634,-1.7473,-1.6932,-1.6978,-1.7705,-1.7436,-1.7838,-1.896,-1.9912,-2.0836,-2.1656,-2.2602,-2.3078,-2.3078,-2.3078,-2.3078,-2.3078,-2.3078,-2.3078,-2.3078,-2.3078,-2.3078,-2.3078,-2.3078,-2.3078,-2.3078,-2.3078,-2.3078,-2.3078,-2.3078,-2.3078,-2.3078,-2.3078,-2.3078,-2.3078,-2.3078,-2.3078,-2.3078,-2.3078,-2.3078,-2.3078,-2.3078,-2.3078,-2.3078,-2.3078,-2.3078,-2.3078,-2.3078,-2.3198,-2.3271,-2.3271,-2.333,-2.345,-2.3509,-2.3569,-2.3688,-2.3891,-2.3949,-2.4067,-2.4112,-2.4112,-2.4112,-2.4112,-2.439,-2.4734,-2.5005,-2.5605,-2.6082,-2.6283,-2.6654,-2.6982,-2.7203,-2.7473,-2.7625,-2.7625,-2.7625,-2.7625,-2.7625,-2.7625,-2.7625,-2.7625,-2.7625,-2.7625,-2.0817,0.0,0.0,0.0,0.0,0.0,0.0,0.0,0.0,0.0,0.0,0.0,0.0,0.0,0.0,0.0,0.0,0.0,0.0,0.0,0.0,0.0,0.0,0.0,0.0,0.0,0.0,-1.7457,-1.7435,-1.7157,-1.6431,-1.6384,-1.6529,-1.685,-1.686,-1.7364,-1.8458,-1.9471,-2.0369,-2.1103,-2.2328,-2.2852,-2.2912,-2.3002,-2.3078,-2.3078,-2.3078,-2.3078,-2.3078,-2.3078,-2.3078,-2.3078,-2.3078,-2.3078,-2.3078,-2.3078,-2.3078,-2.3078,-2.3078,-2.3078,-2.3078,-2.3078,-2.3078,-2.3078,-2.3078,-2.3078,-2.3078,-2.3078,-2.3078,-2.3078,-2.3078,-2.3078,-2.3078,-2.3078,-2.3078,-2.3078,-2.3078,-2.3198,-2.333,-2.333,-2.339,-2.3509,-2.3556,-2.3628,-2.3688,-2.3891,-2.4008,-2.4067,-2.4112,-2.4112,-2.4112,-2.4112,-2.4505,-2.4835,-2.5005,-2.5756,-2.6351,-2.6669,-2.71,-2.7408,-2.7575,-2.7625,-2.7625,-2.7625,-2.7625,-2.7625,-2.7625,-2.7625,-2.7625,-2.7625,-2.7625,-2.7625,0.0,0.0,0.0,-2.0699,0.0,0.0,0.0,0.0,-2.165,0.0,0.0,0.0,0.0,0.0,0.0,0.0,0.0,0.0,0.0,0.0,0.0,0.0,0.0,0.0,0.0,0.0,0.0,-1.7952,-1.8135,-1.771,-1.6488,-1.6384,-1.6384,-1.6394,-1.6405,-1.6948,-1.8082,-1.8669,-1.9537,-2.0665,-2.1758,-2.2334,-2.2347,-2.2887,-2.3078,-2.3078,-2.3078,-2.3078,-2.3078,-2.3078,-2.3078,-2.3078,-2.3078,-2.3078,-2.3078,-2.3078,-2.3078,-2.3078,-2.3078,-2.3078,-2.3078,-2.3078,-2.3078,-2.3078,-2.3078,-2.3078,-2.3078,-2.3078,-2.3078,-2.3078,-2.3078,-2.3078,-2.3078,-2.3078,-2.3078,-2.3078,-2.3078,-2.3138,-2.3138,-2.3138,-2.3138,-2.3198,-2.3556,-2.3628,-2.3688,-2.3891,-2.3891,-2.3949,-2.4054,-2.4112,-2.4112,-2.4112,-2.4112,-2.439,-2.4948,-2.5061,-2.555,-2.6616,-2.6736,-2.6997,-2.7575,-2.7625,-2.7625,-2.7625,-2.7625,-2.7625,-2.7625,-2.7625,-2.7625,-2.7625,-2.7625,-2.7625,0.0,0.0,-2.1082,-2.0799,0.0,0.0,0.0,0.0,0.0,0.0,0.0,0.0,0.0,0.0,0.0,0.0,0.0,0.0,0.0,0.0,0.0,0.0,0.0,0.0,0.0,0.0,0.0,-1.7952,-1.771,-1.7213,-1.6431,-1.6384,-1.6384,-1.6384,-1.674,-1.73,-1.8069,-1.9025,-1.9908,-2.0655,-2.1437,-2.1769,-2.1782,-2.2334,-2.2585,-2.2611,-2.2975,-2.3078,-2.3078,-2.3078,-2.3078,-2.3078,-2.3078,-2.3078,-2.3078,-2.3078,-2.3078,-2.3078,-2.3078,-2.3078,-2.3078,-2.3078,-2.3078,-2.3078,-2.3078,-2.3078,-2.3078,-2.3078,-2.3078,-2.3078,-2.3078,-2.3078,-2.3078,-2.3078,-2.3078,-2.3078,-2.3078,-2.3198,-2.3271,-2.3271,-2.345,-2.3641,-2.376,-2.3878,-2.3936,-2.3995,-2.4008,-2.4171,-2.462,-2.4677,-2.4677,-2.4677,-2.4991,-2.5314,-2.5522,-2.6283,-2.6721,-2.6683,-2.7086,-2.7408,-2.7575,-2.7625,-2.7625,-2.7625,-2.7625,-2.7625,-2.7625,-2.7625,-2.7625,-2.7625,-2.7625,-2.7625,-2.0612,-2.0997,0.0,-2.1033,-2.1541,0.0,-2.1969,0.0,0.0,0.0,0.0,0.0,0.0,0.0,0.0,0.0,0.0,0.0,0.0,-2.1636,0.0,0.0,0.0,0.0,0.0,0.0,-1.8886,-1.8104,-1.771,-1.7168,0.0,0.0,-1.6384,-1.6384,-1.6944,-1.7368,-1.7765,-1.8932,-1.9721,-2.011,-2.0874,-2.1192,-2.1217,-2.1769,-2.2121,-2.2334,-2.2686,-2.289,-2.3078,-2.3078,-2.3078,-2.3078,-2.3078,-2.3078,-2.3078,-2.3078,-2.3078,-2.3078,-2.3078,-2.3078,-2.3078,-2.3078,-2.3078,-2.3078,-2.3078,-2.3078,-2.3078,-2.3078,-2.3078,-2.3078,-2.3078,-2.3078,-2.3078,-2.3078,-2.3078,-2.3078,-2.3078,-2.3198,-2.333,-2.3403,-2.376,-2.3995,-2.3891,-2.4099,-2.4319,-2.439,-2.4229,-2.4345,-2.4892,-2.4778,-2.4778,-2.5005,-2.5314,-2.5577,-2.5783,-2.6496,-2.6878,-2.6736,-2.7034,-2.7357,-2.7575,-2.7625,-2.7625,-2.7625,-2.7625,-2.7625,-2.7625,-2.7625,-2.7625,-2.7625,-2.7625,-2.7625]}]]